Date StartTime U_cm/s V_cm/s W_cm/s Ustd_cm/s Vstd_cm/s Wstd_cm/s Uvar_(cm/s)^2 Vvar_(cm/s)^2 Wvar_(cm/s)^2 KE_(m/s)^2 TurbulentKE_(m/s)^2 HorizWindSpeed_cm/s FrictionSpeec_cm/s DragCoef SpeedOfSound_m/s SonicTemperature_C Pressure_mb 
07/28/2014  00:00:00      -82.779       64.165      -12.932       35.523       41.725       23.378     1261.862     1740.955      546.533        0.734        0.177      104.735       16.838        0.026      347.123       25.865      865.043
07/28/2014  00:01:00      -65.479       70.457       -4.783       40.622       35.018       23.991     1650.129     1226.261      575.590        0.636        0.173       96.186       17.848        0.034      347.327       26.217      865.028
07/28/2014  00:02:00     -135.680       28.494      -13.357       33.584       34.735       20.441     1127.894     1206.526      417.825        1.108        0.138      138.640       10.977        0.006      347.169       25.944      865.047
07/28/2014  00:03:00      -96.013        9.460      -15.757       35.978       51.591       25.502     1294.443     2661.657      650.376        0.708        0.230       96.478       22.794        0.056      347.135       25.886      865.058
07/28/2014  00:04:00      -78.490       79.951      -11.634       32.170       44.300       24.184     1034.933     1962.503      584.880        0.813        0.179      112.039       20.233        0.033      347.166       25.938      865.056
07/28/2014  00:05:00      -44.298      115.101      -16.969       27.697       29.094       16.793      767.113      846.438      282.012        0.870        0.095      123.331       16.677        0.018      347.129       25.874      865.044
07/28/2014  00:06:00      -48.145       99.358      -18.784       41.597       50.502       19.595     1730.332     2550.467      383.954        0.860        0.233      110.408       16.800        0.023      347.231       26.050      865.049
07/28/2014  00:07:00      -87.025       13.964      -16.892       44.844       36.345       21.979     2011.024     1320.966      483.057        0.593        0.191       88.139       22.347        0.064      346.955       25.574      865.081
07/28/2014  00:08:00      -17.037       69.579       -0.498       20.578       39.221       19.306      423.473     1538.302      372.734        0.373        0.117       71.634       24.361        0.116      347.224       26.039      865.083
07/28/2014  00:09:00      -20.909       84.337      -10.164       29.654       33.368       21.104      879.368     1113.442      445.391        0.505        0.122       86.890       19.669        0.051      347.550       26.601      865.071
07/28/2014  00:10:00      -58.534       45.016      -10.285       22.848       37.988       13.659      522.043     1443.080      186.556        0.385        0.108       73.842        5.863        0.006      347.414       26.366      865.085
07/28/2014  00:11:00      -56.763       -0.307       -7.073       27.826       12.973       10.469      774.294      168.300      109.593        0.216        0.053       56.763       12.944        0.052      347.141       25.896      865.097
07/28/2014  00:12:00     -136.379        3.598      -22.202       26.344        9.380        8.556      694.025       87.990       73.211        0.998        0.043      136.427        3.414        0.001      347.239       26.066      865.108
07/28/2014  00:13:00     -123.047       23.782      -17.946       30.973       24.206       14.286      959.344      585.953      204.093        0.889        0.087      125.324       13.885        0.012      347.408       26.356      865.097
07/28/2014  00:14:00     -128.959       17.058       -8.282       28.523       28.008       18.714      813.535      784.453      350.218        0.947        0.097      130.082       16.493        0.016      347.555       26.608      865.085
07/28/2014  00:15:00     -130.533      -16.334       -9.184       54.443       59.612       22.828     2964.002     3553.598      521.106        1.221        0.352      131.551       22.963        0.030      347.352       26.259      865.088
07/28/2014  00:16:00     -144.381      -60.913       -7.831       40.137       46.526       27.312     1611.001     2164.651      745.971        1.457        0.226      156.705       17.449        0.012      347.175       25.954      865.073
07/28/2014  00:17:00     -229.912       -0.354      -26.995       77.909       38.675       27.871     6069.854     1495.787      776.792        3.096        0.417      229.912       31.560        0.019      347.362       26.273      865.060
07/28/2014  00:18:00     -179.163      -11.745      -13.894       72.969       44.160       28.185     5324.526     1950.105      794.377        2.025        0.403      179.548       34.686        0.037      347.107       25.835      865.051
07/28/2014  00:19:00     -133.827      -25.931      -11.632       44.759       46.699       23.236     2003.402     2180.813      539.894        1.172        0.236      136.316       20.264        0.022      346.942       25.553      865.054
07/28/2014  00:20:00     -138.840        4.232      -20.973       37.899       45.167       27.762     1436.364     2040.028      770.721        1.199        0.212      138.905       20.929        0.023      346.879       25.446      865.060
07/28/2014  00:21:00     -119.792       51.149      -18.752       80.311       47.268       32.949     6449.833     2234.229     1085.653        1.354        0.488      130.255       31.608        0.059      346.979       25.614      865.057
07/28/2014  00:22:00     -161.126       29.152      -18.334       49.682       48.693       27.685     2468.326     2371.041      766.468        1.638        0.280      163.742       21.739        0.018      347.438       26.405      865.042
07/28/2014  00:23:00      -98.783       83.415       -0.150       74.673       41.137       29.837     5576.048     1692.228      890.218        1.244        0.408      129.290       19.807        0.023      347.377       26.302      865.045
07/28/2014  00:24:00      -82.627       -0.851       -1.136       36.436       54.499       21.999     1327.599     2970.153      483.978        0.580        0.239       82.632       18.876        0.052      347.293       26.157      865.050
07/28/2014  00:25:00     -107.331      -25.165       -6.255       44.468       51.467       17.151     1977.428     2648.849      294.156        0.856        0.246      110.241        7.198        0.004      347.165       25.935      865.057
07/28/2014  00:26:00     -202.355      -40.466      -11.827       45.858       54.050       28.041     2102.912     2921.357      786.317        2.427        0.291      206.362       21.066        0.010      346.979       25.613      865.075
07/28/2014  00:27:00     -176.517       49.328      -19.095       56.935       51.391       30.513     3241.549     2641.025      931.070        2.038        0.341      183.279       19.576        0.011      347.038       25.716      865.104
07/28/2014  00:28:00      -56.190      125.054      -19.666       42.057       27.648       16.614     1768.782      764.410      276.025        1.100        0.140      137.098        9.050        0.004      347.179       25.961      865.103
07/28/2014  00:29:00      -41.163      153.027      -21.095       31.397       43.459       15.956      985.795     1888.720      254.585        1.434        0.156      158.466       15.743        0.010      347.232       26.051      865.083
07/28/2014  00:30:00     -117.368       78.035      -24.818       50.220       44.156       31.447     2522.005     1949.761      988.933        1.297        0.273      140.942       24.277        0.030      347.357       26.266      865.081
07/28/2014  00:31:00     -121.157      -36.586        0.169       36.635       34.950       22.188     1342.093     1221.514      492.323        0.954        0.153      126.561       18.412        0.021      346.956       25.577      865.099
07/28/2014  00:32:00     -125.232      -19.209       -5.645       37.846       26.832       17.736     1432.344      719.949      314.573        0.927        0.123      126.697       16.523        0.017      346.896       25.474      865.099
07/28/2014  00:33:00      -75.836       25.238       -6.775       16.583       17.072        8.726      275.003      291.455       76.145        0.354        0.032       79.925        6.134        0.006      346.866       25.421      865.084
07/28/2014  00:34:00      -99.697       48.690      -16.111       26.855       25.810       13.445      721.189      666.132      180.762        0.707        0.078      110.951        9.031        0.007      347.064       25.763      865.076
07/28/2014  00:35:00     -127.718      -15.560      -18.654       32.336       22.575       18.687     1045.632      509.643      349.186        0.940        0.095      128.662       14.907        0.013      346.822       25.347      865.071
07/28/2014  00:36:00      -93.622       -1.908       -8.624       14.222       16.296       11.129      202.271      265.548      123.860        0.472        0.030       93.641        8.234        0.008      346.796       25.304      865.063
07/28/2014  00:37:00      -65.442       26.438       -1.199       24.907       20.563       14.695      620.378      422.839      215.945        0.312        0.063       70.580       11.459        0.026      346.829       25.357      865.036
07/28/2014  00:38:00      -97.417       34.323       -6.425       23.344       19.576       15.100      544.950      383.205      228.021        0.593        0.058      103.287       12.059        0.014      346.706       25.145      865.027
07/28/2014  00:39:00     -136.484       44.804      -14.536       40.368       24.018       16.733     1629.568      576.844      279.992        1.167        0.124      143.650       13.541        0.009      346.710       25.153      865.013
07/28/2014  00:40:00     -108.487       48.998       -6.052       57.758       32.434       33.641     3335.970     1051.964     1131.697        0.986        0.276      119.039       29.246        0.060      346.806       25.318      865.014
07/28/2014  00:41:00     -104.574       89.450      -17.245       34.370       40.698       26.028     1181.287     1656.334      677.469        1.137        0.176      137.612       24.541        0.032      346.822       25.345      865.019
07/28/2014  00:42:00      -86.755       90.103      -13.581       35.850       40.557       27.882     1285.197     1644.877      777.425        0.977        0.185      125.080       26.668        0.045      346.857       25.405      865.018
07/28/2014  00:43:00      -80.772       86.143      -13.726       29.343       52.710       17.628      861.034     2778.373      310.750        0.904        0.198      118.088       19.564        0.027      346.840       25.377      865.003
07/28/2014  00:44:00      -25.700        1.411       -4.859       24.692       21.577       19.386      609.718      465.579      375.821        0.107        0.073       25.738        7.351        0.082      346.699       25.133      864.996
07/28/2014  00:45:00     -117.291      -72.391       -6.127       43.496       33.735       22.229     1891.869     1138.030      494.143        1.128        0.176      137.832       18.983        0.019      346.540       24.859      865.009
07/28/2014  00:46:00     -125.386       28.268       -7.120       54.977       29.124       16.267     3022.421      848.178      264.599        1.035        0.207      128.533       16.894        0.017      346.437       24.684      865.032
07/28/2014  00:47:00     -151.086       42.888      -14.350       34.627       21.782       18.357     1199.064      474.457      336.986        1.344        0.101      157.056       11.241        0.005      346.484       24.764      865.050
07/28/2014  00:48:00     -147.103       35.918       -8.306       29.932       36.005       16.616      895.918     1296.378      276.090        1.273        0.123      151.425        6.900        0.002      346.575       24.922      865.039
07/28/2014  00:49:00     -110.543      -43.304      -12.681       23.500       23.795       14.630      552.258      566.225      214.041        0.779        0.067      118.723       12.553        0.011      346.448       24.703      865.028
07/28/2014  00:50:00     -165.882      -22.916      -13.997       37.823       34.599       20.960     1430.582     1197.076      439.302        1.565        0.153      167.457       19.851        0.014      346.390       24.602      865.035
07/28/2014  00:51:00     -100.917      -20.985      -10.371       47.139       22.069       15.574     2222.060      487.057      242.544        0.684        0.148      103.075       13.189        0.016      346.395       24.611      865.036
07/28/2014  00:52:00      -73.376       10.919       -4.972       27.472       13.753       10.213      754.695      189.153      104.297        0.329        0.052       74.184        5.940        0.006      346.532       24.847      865.022
07/28/2014  00:53:00     -138.404      -26.676      -22.448       26.503       24.760       14.822      702.383      613.080      219.688        1.095        0.077      140.952       12.338        0.008      346.452       24.709      865.023
07/28/2014  00:54:00     -116.933       -8.247      -11.950       37.665       26.568       14.697     1418.666      705.868      215.987        0.811        0.117      117.224       13.838        0.014      346.350       24.535      865.036
07/28/2014  00:55:00     -156.529       17.482      -16.084       22.763       22.978       12.992      518.156      527.966      168.793        1.314        0.061      157.503        9.189        0.003      346.323       24.486      865.056
07/28/2014  00:56:00     -130.778       11.878       -5.703       23.949       24.697       14.498      573.534      609.962      210.202        0.933        0.070      131.316        9.506        0.005      346.381       24.589      865.058
07/28/2014  00:57:00      -94.286       32.182       -4.619       55.579       22.317       21.981     3089.072      498.053      483.148        0.701        0.204       99.627       19.680        0.039      346.464       24.731      865.063
07/28/2014  00:58:00      -71.984       27.558       -2.017       30.588       19.443       17.208      935.628      378.016      296.108        0.378        0.080       77.079        3.752        0.002      346.726       25.182      865.065
07/28/2014  00:59:00      -23.971       84.629      -10.357       17.776       18.723       12.821      315.993      350.544      164.382        0.434        0.042       87.959       10.248        0.014      346.925       25.523      865.077
07/28/2014  01:00:00      -39.969       39.058      -10.529       16.724       21.355        8.829      279.693      456.020       77.945        0.202        0.041       55.885        8.301        0.022      346.666       25.079      865.099
07/28/2014  01:01:00      -37.783       19.018        0.896       25.947       19.076       12.545      673.227      363.902      157.375        0.149        0.060       42.299       10.829        0.066      346.608       24.979      865.124
07/28/2014  01:02:00     -108.453       -7.042      -12.635       43.490       20.637       15.878     1891.351      425.885      252.105        0.727        0.128      108.682       20.234        0.035      346.140       24.173      865.151
07/28/2014  01:03:00      -30.986       77.265       -6.880       36.608       31.244       16.756     1340.132      976.179      280.758        0.479        0.130       83.246       19.556        0.055      346.684       25.109      865.164
07/28/2014  01:04:00       -6.003      101.588      -13.761       19.209       20.210       13.042      368.994      408.463      170.082        0.575        0.047      101.765        9.419        0.009      346.839       25.375      865.157
07/28/2014  01:05:00      -27.853      105.655      -12.568       19.232       22.652       11.837      369.856      513.102      140.110        0.656        0.051      109.265        8.554        0.006      346.962       25.588      865.161
07/28/2014  01:06:00      -27.707       49.430       -7.961       14.474       23.088       10.521      209.495      533.048      110.684        0.206        0.043       56.666        8.458        0.022      346.699       25.134      865.171
07/28/2014  01:07:00      -56.742        5.508       -2.627       17.702       26.751       12.564      313.344      715.629      157.859        0.222        0.059       57.009        7.887        0.019      346.397       24.615      865.176
07/28/2014  01:08:00      -81.646      -32.838      -10.819       15.000       13.996        8.499      224.993      195.876       72.238        0.418        0.025       88.002        6.308        0.005      346.180       24.242      865.180
07/28/2014  01:09:00     -107.762      -40.112       -7.047       20.045       21.968       13.347      401.792      482.612      178.135        0.717        0.053      114.985        8.201        0.005      346.122       24.141      865.185
07/28/2014  01:10:00      -67.978       -2.339      -11.786       23.407       12.817       12.137      547.894      164.284      147.311        0.281        0.043       68.018        5.817        0.007      346.132       24.159      865.187
07/28/2014  01:11:00      -47.380        3.855       -7.041       25.526       22.746       14.281      651.560      517.371      203.944        0.184        0.069       47.537       13.110        0.076      346.574       24.919      865.186
07/28/2014  01:12:00      -98.981      -59.114       -6.494       21.966       22.539       12.942      482.489      507.999      167.505        0.725        0.058      115.289        9.711        0.007      346.207       24.289      865.188
07/28/2014  01:13:00      -77.011      -14.380       -4.372       26.970       18.352       15.427      727.397      336.782      237.992        0.373        0.065       78.342       14.740        0.035      346.178       24.239      865.185
07/28/2014  01:14:00      -93.520      -22.399       -1.951       27.589       22.528       17.911      761.139      507.514      320.815        0.542        0.079       96.165       17.306        0.032      346.113       24.127      865.180
07/28/2014  01:15:00      -80.613      -16.344       -2.778       33.541       18.492       15.533     1124.988      341.939      241.269        0.424        0.085       82.254       15.030        0.033      346.184       24.248      865.190
07/28/2014  01:16:00      -45.581      -38.194        1.928       36.327       26.287       14.267     1319.659      691.008      203.555        0.288        0.111       59.468       13.759        0.054      346.174       24.233      865.193
07/28/2014  01:17:00      -50.898      -39.490        3.948       43.716       31.536       19.291     1911.062      994.520      372.141        0.372        0.164       64.421       21.354        0.110      346.174       24.231      865.182
07/28/2014  01:18:00      -73.353      -46.814       -2.662       42.866       31.725       22.416     1837.465     1006.444      502.467        0.546        0.167       87.018       22.998        0.070      346.394       24.610      865.167
07/28/2014  01:19:00     -101.323      -21.452       -5.078       33.535       20.749       16.288     1124.569      430.529      265.306        0.629        0.091      103.569       14.094        0.019      346.385       24.595      865.166
07/28/2014  01:20:00      -82.194      -38.379        5.994       39.815       26.193       19.718     1585.256      686.065      388.800        0.546        0.133       90.713       18.147        0.040      346.348       24.531      865.167
07/28/2014  01:21:00      -56.758      -32.368        8.278       32.867       24.397       18.094     1080.255      595.218      327.387        0.317        0.100       65.339       16.674        0.065      346.556       24.889      865.154
07/28/2014  01:22:00      -74.350      -10.659       -0.677       27.801       17.121       12.184      772.903      293.137      148.450        0.343        0.061       75.110       11.517        0.024      346.579       24.927      865.142
07/28/2014  01:23:00      -45.947        1.104        2.156       38.837       17.808       14.152     1508.343      317.122      200.276        0.207        0.101       45.960       14.305        0.097      346.321       24.485      865.131
07/28/2014  01:24:00      -59.550       28.773        1.909       35.449       21.655       20.024     1256.634      468.940      400.950        0.325        0.106       66.137       17.141        0.067      346.489       24.774      865.141
07/28/2014  01:25:00      -77.798       38.072       -3.695       22.489       29.997       15.654      505.765      899.812      245.036        0.458        0.083       86.614       12.083        0.019      346.368       24.567      865.135
07/28/2014  01:26:00      -49.509        9.200        1.698       21.053       15.881       12.241      443.212      252.195      149.831        0.169        0.042       50.356        9.429        0.035      346.154       24.199      865.120
07/28/2014  01:27:00      -45.233        8.567       -1.538       25.011       20.432       12.327      625.539      417.469      151.950        0.166        0.060       46.037       10.517        0.052      346.208       24.289      865.105
07/28/2014  01:28:00      -41.120        4.645       -3.364       17.841       13.629        9.571      318.308      185.748       91.613        0.116        0.030       41.382        5.102        0.015      346.178       24.240      865.103
07/28/2014  01:29:00     -155.528       -3.675      -22.509       61.155       29.315       21.886     3739.986      859.372      479.010        1.489        0.254      155.571       27.283        0.031      346.070       24.052      865.105
07/28/2014  01:30:00     -132.245       48.384       -8.509       41.975       38.904       24.919     1761.908     1513.489      620.981        1.190        0.195      140.818       16.227        0.013      346.109       24.119      865.106
07/28/2014  01:31:00     -107.319       40.271      -11.328       40.298       25.850       18.378     1623.968      668.223      337.735        0.795        0.131      114.626       14.399        0.016      346.340       24.516      865.087
07/28/2014  01:32:00     -141.737       35.368      -19.781       26.788       21.888       13.929      717.582      479.096      194.011        1.156        0.070      146.083        6.093        0.002      346.105       24.112      865.082
07/28/2014  01:33:00      -83.504       16.710      -11.378       21.046       24.037       12.774      442.955      577.764      163.185        0.428        0.059       85.159        3.077        0.001      346.125       24.147      865.070
07/28/2014  01:34:00     -105.931      -63.242       -7.822       37.470       24.328       13.986     1403.972      591.842      195.610        0.874        0.110      123.374        9.021        0.005      345.954       23.855      865.052
07/28/2014  01:35:00     -126.861      -28.910      -15.144       22.886       15.867       15.083      523.786      251.752      227.495        0.908        0.050      130.113       12.094        0.009      345.860       23.692      865.056
07/28/2014  01:36:00     -106.217      -20.721      -10.575       23.570       24.314       14.544      555.555      591.175      211.541        0.659        0.068      108.220       10.312        0.009      345.820       23.624      865.046
07/28/2014  01:37:00     -126.497       -4.428      -17.549       37.459       27.750       20.353     1403.164      770.063      414.236        0.946        0.129      126.574       14.500        0.013      345.743       23.494      865.051
07/28/2014  01:38:00     -150.030      -22.177      -10.646       41.465       38.193       30.226     1719.313     1458.718      913.626        1.360        0.205      151.660       24.558        0.026      345.855       23.684      865.041
07/28/2014  01:39:00     -151.888       -5.810       -9.200       53.984       44.421       25.218     2914.322     1973.201      635.928        1.435        0.276      151.999       25.763        0.029      345.914       23.786      865.033
07/28/2014  01:40:00     -112.931       10.270       -9.166       52.260       27.546       21.982     2731.080      758.758      483.221        0.846        0.199      113.398       22.009        0.038      345.910       23.778      865.026
07/28/2014  01:41:00      -77.579       -2.318       -1.238       48.618       36.725       21.106     2363.749     1348.693      445.451        0.509        0.208       77.614       24.104        0.096      345.921       23.797      865.039
07/28/2014  01:42:00     -168.923      -41.019      -20.241       38.455       43.091       25.703     1478.787     1856.837      660.649        1.731        0.200      173.832       19.557        0.013      346.187       24.253      865.029
07/28/2014  01:43:00      -82.708      -50.642        6.148       38.654       32.392       19.207     1494.094     1049.254      368.903        0.618        0.146       96.980       13.491        0.019      346.035       23.994      865.023
07/28/2014  01:44:00      -59.443      -28.796       -2.164       35.914       21.180       15.324     1289.830      448.572      234.818        0.317        0.099       66.051       12.730        0.037      346.140       24.172      865.029
07/28/2014  01:45:00      -50.551      -18.558       -1.315       43.114       16.873       18.367     1858.840      284.698      337.354        0.269        0.124       53.849       15.836        0.086      346.208       24.290      865.037
07/28/2014  01:46:00      -64.848      -22.145        2.245       33.163       35.347       15.788     1099.765     1249.422      249.268        0.365        0.130       68.525       16.775        0.060      346.033       23.989      865.058
07/28/2014  01:47:00      -35.705      -28.057        7.464       29.379       15.541       11.019      863.129      241.520      121.416        0.167        0.061       45.409       10.039        0.049      345.918       23.794      865.069
07/28/2014  01:48:00       -5.159      -36.968        2.212       27.071       24.327       12.859      732.813      591.780      165.352        0.144        0.074       37.326       11.993        0.103      346.059       24.033      865.077
07/28/2014  01:49:00        2.879       -6.060        8.295       15.135       15.866       10.740      229.072      251.724      115.351        0.035        0.030        6.709        8.069        1.446      346.036       23.993      865.086
07/28/2014  01:50:00        3.936      -49.304        0.684       17.377       27.264       15.503      301.945      743.325      240.353        0.187        0.064       49.461       16.702        0.114      346.106       24.114      865.098
07/28/2014  01:51:00       -0.565      -98.794       -3.148       20.198       22.379       17.154      407.941      500.809      294.258        0.549        0.060       98.796        9.183        0.009      346.173       24.231      865.120
07/28/2014  01:52:00      -53.726     -138.760       -5.590       42.742       36.164       20.316     1826.837     1307.830      412.760        1.286        0.177      148.798       19.004        0.016      346.387       24.599      865.127
07/28/2014  01:53:00      -55.687     -135.027       -3.829       24.077       31.536       18.505      579.718      994.493      342.443        1.163        0.096      146.060        8.138        0.003      346.304       24.457      865.132
07/28/2014  01:54:00      -11.897      -95.121      -16.046       32.525       28.761       22.331     1057.900      827.170      498.664        0.591        0.119       95.862       13.913        0.021      346.218       24.307      865.137
07/28/2014  01:55:00        5.088      -76.383       -2.832       29.883       41.589       22.884      892.978     1729.670      523.683        0.451        0.157       76.552       22.350        0.085      346.266       24.390      865.136
07/28/2014  01:56:00        5.717        9.916       30.504       20.343       16.422       15.898      413.838      269.693      252.749        0.100        0.047       11.446       11.290        0.973      345.861       23.692      865.128
07/28/2014  01:57:00       -1.561       37.659       45.291       20.282       22.253       15.061      411.380      495.192      226.842        0.230        0.057       37.692       11.698        0.096      345.761       23.523      865.148
07/28/2014  01:58:00       45.204       44.321       20.352       20.564       15.161       18.944      422.870      229.850      358.891        0.272        0.051       63.307       11.910        0.035      345.830       23.643      865.161
07/28/2014  01:59:00       45.069       14.988        7.424       19.755       16.567       16.728      390.256      274.459      279.840        0.163        0.047       47.496       12.063        0.065      345.935       23.820      865.152
07/28/2014  02:00:00       -4.085      -28.253       -3.696       21.480       17.238       10.426      461.376      297.145      108.703        0.085        0.043       28.547       10.782        0.143      346.163       24.213      865.156
07/28/2014  02:01:00       33.938        2.623        8.941       41.295       27.041       11.928     1705.282      731.233      142.286        0.191        0.129       34.040       20.745        0.371      346.213       24.298      865.154
07/28/2014  02:02:00      141.195       61.609       27.803       36.839       25.024       25.114     1357.113      626.183      630.733        1.356        0.131      154.051       19.060        0.015      346.234       24.336      865.149
07/28/2014  02:03:00       60.787       79.587       77.504       68.298       55.608       43.036     4664.552     3092.202     1852.132        1.282        0.480      100.146       31.094        0.096      346.092       24.090      865.131
07/28/2014  02:04:00      -12.792       -1.627       38.397       22.014       38.454       29.275      484.614     1478.730      857.034        0.223        0.141       12.895       22.468        3.036      345.981       23.899      865.138
07/28/2014  02:05:00      -89.306       22.447      -13.607       41.318       28.130       15.464     1707.164      791.308      239.144        0.570        0.137       92.084        9.445        0.011      345.706       23.429      865.151
07/28/2014  02:06:00      -70.991      -28.643       -3.816       32.078       17.496       15.454     1029.028      306.121      238.817        0.372        0.079       76.552       14.859        0.038      345.954       23.853      865.148
07/28/2014  02:07:00      -65.854      -17.902      -11.540       13.426       12.704       11.474      180.260      161.401      131.659        0.263        0.024       68.244       10.113        0.022      345.820       23.623      865.143
07/28/2014  02:08:00      -47.293      -19.651       -7.387       11.554        9.598        6.777      133.506       92.116       45.930        0.147        0.014       51.213        5.694        0.012      345.841       23.661      865.139
07/28/2014  02:09:00      -26.275      -23.071       -6.163       15.224       10.415        6.276      231.758      108.481       39.387        0.082        0.019       34.966        6.412        0.034      346.110       24.120      865.114
07/28/2014  02:10:00      -74.037      -24.482       -6.362       17.588       16.361       10.208      309.324      267.670      104.195        0.340        0.034       77.979        8.546        0.012      346.029       23.984      865.118
07/28/2014  02:11:00      -35.855        2.570       -2.415       11.741        3.565        3.427      137.854       12.708       11.741        0.073        0.008       35.947        3.045        0.007      346.187       24.255      865.101
07/28/2014  02:12:00      -22.990       34.707       -2.111        9.142       26.030       11.719       83.573      677.546      137.330        0.132        0.045       41.630       15.406        0.137      345.951       23.850      865.094
07/28/2014  02:13:00      -60.194       35.082       -9.843       25.614       47.723       18.506      656.060     2277.455      342.458        0.411        0.164       69.671       13.802        0.039      345.571       23.196      865.108
07/28/2014  02:14:00     -121.633      -22.579      -20.596       23.504       31.183       17.976      552.458      972.370      323.131        0.879        0.092      123.711        3.891        0.001      345.422       22.940      865.105
07/28/2014  02:15:00      -66.862      -31.281        2.353       24.245       24.437       18.153      587.829      597.149      329.529        0.348        0.076       73.817       14.390        0.038      345.360       22.834      865.092
07/28/2014  02:16:00      -56.097       -5.439       -9.346       13.714       22.979       12.222      188.081      528.052      149.368        0.206        0.043       56.360       10.111        0.032      345.467       23.017      865.082
07/28/2014  02:17:00      -63.488       61.042      -18.411       17.099       28.840       13.820      292.387      831.728      190.980        0.471        0.066       88.073       13.317        0.023      345.562       23.182      865.083
07/28/2014  02:18:00      -67.871       27.246       -8.615       18.653       20.990        9.943      347.929      440.594       98.854        0.316        0.044       73.135       10.456        0.020      345.649       23.330      865.079
07/28/2014  02:19:00     -120.725      -49.271       -8.956       69.409       34.895       12.277     4817.585     1217.681      150.735        1.163        0.309      130.392        5.892        0.002      345.603       23.250      865.081
07/28/2014  02:20:00     -140.892      -26.770        4.003       78.298       52.727       33.083     6130.556     2780.154     1094.514        1.529        0.500      143.412       32.151        0.050      345.482       23.043      865.085
07/28/2014  02:21:00      -90.132      -34.884        1.903       43.082       28.603       18.302     1856.050      818.123      334.967        0.618        0.150       96.647       14.387        0.022      345.461       23.007      865.085
07/28/2014  02:22:00      -26.373       -1.165       -4.141       15.163       19.703        8.681      229.918      388.212       75.365        0.070        0.035       26.399        7.381        0.078      345.796       23.583      865.080
07/28/2014  02:23:00      -28.080        5.003       -7.924       12.643       13.819       14.528      159.855      190.955      211.058        0.072        0.028       28.522        9.485        0.111      345.650       23.332      865.070
07/28/2014  02:24:00      -55.558        3.340       -5.719       22.722        8.426        6.942      516.309       71.004       48.196        0.188        0.032       55.658        6.015        0.012      345.616       23.271      865.066
07/28/2014  02:25:00      -97.738      -21.882      -12.189       15.086       19.670        8.523      227.583      386.923       72.644        0.543        0.034      100.158        5.786        0.003      345.554       23.167      865.077
07/28/2014  02:26:00     -136.669      -13.234      -17.469       39.386       34.103       16.423     1551.261     1163.026      269.705        1.107        0.149      137.308       12.645        0.008      345.538       23.140      865.084
07/28/2014  02:27:00      -31.974      -31.455       -7.499       31.629       25.354       16.297     1000.386      642.826      265.578        0.199        0.095       44.853       16.418        0.134      345.510       23.092      865.097
07/28/2014  02:28:00      -15.406      -32.130        4.666       31.241       17.707       18.532      975.971      313.530      343.437        0.146        0.082       35.633       17.618        0.244      345.548       23.156      865.090
07/28/2014  02:29:00      -73.665      -39.260       -8.981       26.916       20.052       14.975      724.454      402.064      224.258        0.420        0.068       83.474       10.772        0.017      345.567       23.190      865.075
07/28/2014  02:30:00     -100.352      -73.483       -8.397       34.562       23.957       14.498     1194.526      573.925      210.186        0.876        0.099      124.380       14.071        0.013      345.370       22.850      865.083
07/28/2014  02:31:00      -58.182      -35.746       -2.457       22.919       21.443       14.987      525.294      459.810      224.616        0.294        0.060       68.285       14.001        0.042      345.360       22.835      865.085
07/28/2014  02:32:00     -118.995      -32.951       -8.412       40.496       28.699       19.259     1639.927      823.643      370.909        0.907        0.142      123.473       17.465        0.020      345.304       22.740      865.095
07/28/2014  02:33:00      -95.903       -1.707       -3.780       37.067       20.046       18.313     1373.953      401.855      335.376        0.566        0.106       95.918       17.256        0.032      345.228       22.610      865.104
07/28/2014  02:34:00       -2.572       -8.442        1.908       29.702       16.123       11.929      882.219      259.941      142.301        0.068        0.064        8.825        7.595        0.741      345.339       22.800      865.077
07/28/2014  02:35:00       10.387      -33.352       -7.492       28.312       23.541       22.860      801.546      554.166      522.557        0.158        0.094       34.932       17.855        0.261      345.601       23.246      865.053
07/28/2014  02:36:00       -0.592      -37.030        3.088       27.515       14.137        7.248      757.069      199.868       52.529        0.120        0.050       37.035        8.815        0.057      345.972       23.886      865.044
07/28/2014  02:37:00      -63.369       -0.550       -6.938       19.422       13.143       10.409      377.195      172.747      108.354        0.236        0.033       63.371        9.887        0.024      345.401       22.905      865.052
07/28/2014  02:38:00     -116.673        6.156       -8.838       51.490       26.857       28.062     2651.235      721.295      787.500        0.894        0.208      116.835       26.186        0.050      345.010       22.236      865.070
07/28/2014  02:39:00      -85.631       -8.445       -8.437       51.165       41.978       17.692     2617.865     1762.179      312.995        0.608        0.235       86.046       20.089        0.055      345.127       22.436      865.075
07/28/2014  02:40:00       -9.598      -81.182       -1.391       21.859       17.572       10.851      477.830      308.785      117.734        0.379        0.045       81.748        9.187        0.013      345.604       23.252      865.050
07/28/2014  02:41:00       -2.456      -70.688       -9.502       49.744       24.974       17.587     2474.418      623.704      309.314        0.425        0.170       70.731       15.093        0.046      345.532       23.128      865.025
07/28/2014  02:42:00      -67.567      -80.601       -1.840       40.666       28.870       17.318     1653.733      833.503      299.927        0.693        0.139      105.175       19.174        0.033      345.454       22.994      865.018
07/28/2014  02:43:00      -36.663      -44.968        2.125       20.200       18.904       10.773      408.029      357.354      116.049        0.213        0.044       58.020        8.265        0.020      345.882       23.731      864.997
07/28/2014  02:44:00      -75.043      -17.185       -1.975       19.575       20.231       13.651      383.163      409.282      186.342        0.345        0.049       76.986        8.709        0.013      345.668       23.363      865.005
07/28/2014  02:45:00     -120.239      -47.435       -1.331       34.217       29.226       16.616     1170.800      854.172      276.079        0.950        0.115      129.257       16.483        0.016      345.242       22.632      865.002
07/28/2014  02:46:00      -23.523      -61.308       10.183       37.598       29.901       24.045     1413.643      894.073      578.150        0.365        0.144       65.665       21.955        0.112      345.214       22.583      864.985
07/28/2014  02:47:00      -56.164      -39.952        3.320       47.697       23.743       15.730     2274.963      563.730      247.418        0.392        0.154       68.924       18.803        0.074      345.410       22.919      864.971
07/28/2014  02:48:00     -111.923      -46.684       -1.313       24.152       22.107       15.967      583.315      488.734      254.933        0.802        0.066      121.269       12.711        0.011      345.325       22.774      864.972
07/28/2014  02:49:00      -99.187      -48.092        2.636       31.564       17.769       16.419      996.284      315.747      269.569        0.687        0.079      110.231       13.615        0.015      345.222       22.599      864.984
07/28/2014  02:50:00      -31.216      -50.963       -0.880       19.647       18.711       11.790      386.012      350.095      139.015        0.222        0.044       59.764       10.664        0.032      345.341       22.802      864.974
07/28/2014  02:51:00      -60.695      -24.965       -3.991       24.325       23.986       14.710      591.698      575.323      216.372        0.285        0.069       65.628       10.858        0.027      345.377       22.864      864.972
07/28/2014  02:52:00      -89.094       11.817       -5.772       17.582       14.233       12.871      309.114      202.585      165.675        0.439        0.034       89.874        8.640        0.009      345.213       22.582      864.976
07/28/2014  02:53:00      -47.846      -30.489        0.613       27.554       20.044       12.740      759.234      401.756      162.316        0.227        0.066       56.734       15.566        0.075      345.163       22.497      864.968
07/28/2014  02:54:00      -29.176      -36.457       -3.260       23.334       16.751       12.083      544.454      280.589      146.002        0.158        0.049       46.694        3.735        0.006      345.232       22.617      864.968
07/28/2014  02:55:00      -41.583       -9.339       -6.215       34.956       17.677       16.121     1221.927      312.482      259.885        0.182        0.090       42.618       15.178        0.127      345.211       22.578      864.970
07/28/2014  02:56:00      -71.723      -21.922       -0.782       34.422       23.870       17.029     1184.841      569.787      289.972        0.383        0.102       74.998       15.246        0.041      345.100       22.391      864.981
07/28/2014  02:57:00     -105.039      -35.034        4.540       46.575       38.794       20.150     2169.233     1504.998      406.033        0.818        0.204      110.728       21.627        0.038      344.983       22.190      864.978
07/28/2014  02:58:00      -38.654      -88.217       10.574       30.682       39.075       23.772      941.358     1526.881      565.095        0.621        0.152       96.314       15.135        0.025      345.383       22.876      864.955
07/28/2014  02:59:00      -47.269     -124.840       -6.894       25.720       29.386       14.894      661.530      863.535      221.835        0.981        0.087      133.489        8.353        0.004      345.771       23.539      864.925
07/28/2014  03:00:00      -27.770     -105.614        7.845       16.526       41.361       11.183      273.096     1710.720      125.056        0.705        0.105      109.204        8.777        0.006      345.737       23.481      864.899
07/28/2014  03:01:00     -103.954      -67.143       -4.038       49.652       53.156       17.825     2465.307     2825.536      317.737        1.047        0.280      123.752       16.390        0.018      345.474       23.030      864.902
07/28/2014  03:02:00     -179.027      -61.150       -0.368       48.736       44.838       24.960     2375.159     2010.404      622.985        2.040        0.250      189.182       23.261        0.015      345.263       22.665      864.929
07/28/2014  03:03:00     -146.087      -35.456       -2.540       52.962       40.085       24.786     2805.011     1606.768      614.365        1.381        0.251      150.328       23.009        0.023      345.217       22.588      864.957
07/28/2014  03:04:00      -87.016      -45.853        3.905       45.552       25.419       25.134     2075.021      646.145      631.698        0.652        0.168       98.358       24.860        0.064      345.171       22.512      864.956
07/28/2014  03:05:00      -75.706      -75.114        0.920       35.996       37.618       22.145     1295.724     1415.094      490.398        0.729        0.160      106.646       21.855        0.042      345.347       22.812      864.943
07/28/2014  03:06:00      -80.795      -51.229        2.284       38.696       25.591       15.991     1497.384      654.884      255.719        0.578        0.120       95.667       14.241        0.022      345.376       22.862      864.948
07/28/2014  03:07:00      -85.991      -37.792        4.606       35.488       28.229       19.400     1259.411      796.894      376.377        0.564        0.122       93.929       19.675        0.044      345.293       22.720      864.969
07/28/2014  03:08:00      -89.651      -38.290        2.115       37.490       24.632       17.974     1405.512      606.729      323.065        0.592        0.117       97.485       15.580        0.026      345.198       22.556      864.976
07/28/2014  03:09:00      -39.868      -42.728       -3.502       29.711       27.502       17.736      882.772      756.333      314.557        0.269        0.098       58.439       12.212        0.044      345.208       22.573      864.962
07/28/2014  03:10:00      -53.477      -63.537       -2.425       45.134       25.446       19.882     2037.063      647.498      395.286        0.499        0.154       83.047       23.040        0.077      345.150       22.474      864.953
07/28/2014  03:11:00      -33.922      -70.051       11.508       27.463       53.585       19.051      754.229     2871.320      362.945        0.509        0.199       77.832       17.356        0.050      345.225       22.602      864.965
07/28/2014  03:12:00      -23.474      -63.873        7.448       42.060       39.339       25.022     1769.055     1547.519      626.114        0.431        0.197       68.050       18.608        0.075      345.305       22.740      864.985
07/28/2014  03:13:00      -10.564      -63.444       -6.829       26.427       45.894       14.653      698.378     2106.295      214.707        0.360        0.151       64.318        5.504        0.007      345.257       22.658      865.003
07/28/2014  03:14:00      -70.480      -81.814        7.984       49.478       44.882       28.733     2448.087     2014.426      825.568        0.851        0.264      107.985       28.059        0.068      345.215       22.587      865.008
07/28/2014  03:15:00      -61.633      -40.641       -0.158       47.705       36.661       21.491     2275.741     1344.057      461.882        0.477        0.204       73.826       23.913        0.105      345.048       22.302      865.008
07/28/2014  03:16:00      -56.932      -39.844       -8.394       35.924       14.863       14.738     1290.532      220.917      217.219        0.331        0.086       69.490        5.746        0.007      345.036       22.282      865.005
07/28/2014  03:17:00       -8.100      -74.577       -2.316       16.296       32.405       14.172      265.568     1050.082      200.848        0.357        0.076       75.016       10.461        0.019      345.143       22.462      865.001
07/28/2014  03:18:00      -67.925      -90.136       -3.792       44.326       40.025       20.752     1964.825     1601.989      430.649        0.837        0.200      112.864       18.792        0.028      345.187       22.536      865.006
07/28/2014  03:19:00      -89.736      -52.942        4.532       41.148       25.303       21.709     1693.126      640.241      471.265        0.684        0.140      104.190       21.144        0.041      345.082       22.357      865.011
07/28/2014  03:20:00      -12.162      -58.032       -1.656       22.508       39.098       14.306      506.613     1528.623      204.672        0.288        0.112       59.293       16.856        0.081      345.092       22.376      865.010
07/28/2014  03:21:00      -43.067      -82.186       -2.412       35.877       35.769       16.396     1287.140     1279.431      268.837        0.572        0.142       92.786       11.294        0.015      345.237       22.624      865.003
07/28/2014  03:22:00      -85.118      -88.034        9.624       56.471       44.882       25.908     3188.961     2014.410      671.240        1.048        0.294      122.455       24.598        0.040      345.069       22.337      865.006
07/28/2014  03:23:00      -95.881      -80.182        1.076       50.516       36.098       25.018     2551.880     1303.044      625.901        1.005        0.224      124.990       18.457        0.022      344.990       22.202      865.008
07/28/2014  03:24:00      -98.748      -71.227       -0.649       46.631       30.971       25.107     2174.461      959.227      630.366        0.929        0.188      121.756       25.993        0.046      345.020       22.253      864.998
07/28/2014  03:25:00     -112.199      -77.689       -4.856       45.903       43.012       26.983     2107.075     1850.020      728.080        1.167        0.234      136.471       23.920        0.031      344.949       22.131      864.998
07/28/2014  03:26:00      -96.752      -63.507        0.074       52.787       30.870       21.645     2786.421      952.938      468.512        0.880        0.210      115.733       15.100        0.017      344.914       22.071      864.994
07/28/2014  03:27:00     -138.655      -88.266        1.147       74.405       44.045       34.454     5536.173     1939.942     1187.049        1.784        0.433      164.366       39.639        0.058      344.971       22.166      864.986
07/28/2014  03:28:00     -196.546     -101.796        0.798       46.319       39.238       27.028     2145.410     1539.607      730.524        2.670        0.221      221.343       24.383        0.012      345.072       22.338      864.998
07/28/2014  03:29:00     -188.710     -131.767       -4.036       75.760       65.973       36.060     5739.634     4352.478     1300.297        3.219        0.570      230.161       40.690        0.031      345.117       22.415      865.018
07/28/2014  03:30:00     -158.511      -70.155       -8.558       55.914       44.507       28.220     3126.364     1980.839      796.370        1.801        0.295      173.343       25.083        0.021      345.039       22.283      865.017
07/28/2014  03:31:00     -139.659      -65.461       -1.385       53.635       43.513       30.501     2876.759     1893.423      930.299        1.474        0.285      154.239       28.302        0.034      344.992       22.204      865.008
07/28/2014  03:32:00      -99.398      -74.265        9.326       57.364       44.777       28.349     3290.654     2005.021      803.676        1.079        0.305      124.078       27.666        0.050      345.012       22.239      864.984
07/28/2014  03:33:00     -139.499      -66.974       -2.408       53.078       50.336       34.025     2817.305     2533.753     1157.675        1.523        0.325      154.744       31.037        0.040      345.028       22.266      864.961
07/28/2014  03:34:00     -104.979      -28.614        0.086       52.952       36.534       24.855     2803.947     1334.752      617.786        0.830        0.238      108.809       27.057        0.062      344.980       22.184      864.951
07/28/2014  03:35:00      -88.116      -19.300       -1.121       34.536       31.806       18.827     1192.733     1011.592      354.459        0.535        0.128       90.205       13.696        0.023      344.886       22.022      864.941
07/28/2014  03:36:00     -105.839      -19.881       -2.216       45.307       35.570       17.381     2052.743     1265.189      302.091        0.761        0.181      107.690       21.681        0.041      344.870       21.996      864.921
07/28/2014  03:37:00     -119.290        0.169       -2.030       34.448       32.369       18.138     1186.646     1047.725      328.984        0.840        0.128      119.291       10.885        0.008      344.879       22.010      864.907
07/28/2014  03:38:00     -131.735      -36.537       -4.291       46.977       38.346       21.368     2206.856     1470.410      456.581        1.142        0.207      136.708       19.677        0.021      344.776       21.835      864.917
07/28/2014  03:39:00     -104.162      -27.614       -5.434       37.637       29.164       19.344     1416.550      850.526      374.203        0.714        0.132      107.760       11.177        0.011      344.748       21.788      864.911
07/28/2014  03:40:00     -103.378      -13.195       -4.975       46.472       33.530       19.448     2159.643     1124.244      378.243        0.727        0.183      104.217       19.984        0.037      344.595       21.526      864.901
07/28/2014  03:41:00      -49.264      -31.832        8.673       51.813       27.115       19.508     2684.626      735.204      380.561        0.366        0.190       58.653       22.612        0.149      344.555       21.456      864.894
07/28/2014  03:42:00      -81.480      -40.349       -0.747       42.612       23.860       18.361     1815.789      569.313      337.132        0.549        0.136       90.923       14.122        0.024      344.629       21.583      864.894
07/28/2014  03:43:00      -89.529      -24.640       -1.490       34.134       32.947       14.171     1165.115     1085.489      200.819        0.554        0.123       92.858       10.055        0.012      344.548       21.445      864.904
07/28/2014  03:44:00     -100.421       -2.754       -1.175       37.008       32.718       21.157     1369.604     1070.494      447.639        0.649        0.144      100.459       22.647        0.051      344.543       21.435      864.919
07/28/2014  03:45:00      -98.815       21.031       -4.448       46.000       30.810       19.635     2115.970      949.262      385.527        0.684        0.173      101.029       18.311        0.033      344.465       21.303      864.933
07/28/2014  03:46:00      -87.825       83.982      -11.569       30.482       28.209       17.461      929.165      795.774      304.896        0.846        0.101      121.516       18.548        0.023      344.584       21.506      864.936
07/28/2014  03:47:00      -84.422       36.691      -12.425       17.696       23.941       16.089      313.155      573.165      258.848        0.489        0.057       92.050       12.063        0.017      344.762       21.810      864.939
07/28/2014  03:48:00      -67.197       -8.604        5.860       39.753       20.853       18.400     1580.337      434.859      338.549        0.349        0.118       67.745       20.946        0.096      344.803       21.881      864.936
07/28/2014  03:49:00      -96.228      -24.621        5.615       42.620       26.287       16.661     1816.480      690.994      277.580        0.634        0.139       99.328       17.184        0.030      344.785       21.850      864.941
07/28/2014  03:50:00      -65.299      -22.959        4.201       32.846       27.086       17.507     1078.829      733.644      306.501        0.346        0.106       69.217       18.296        0.070      344.783       21.848      864.972
07/28/2014  03:51:00     -110.389      -11.481       -1.197       22.522       26.973       15.373      507.243      727.550      236.323        0.689        0.074      110.984       12.859        0.013      344.814       21.899      864.995
07/28/2014  03:52:00     -133.745       -7.270      -13.150       27.310       29.096       16.857      745.846      846.554      284.149        0.999        0.094      133.942       15.305        0.013      344.620       21.568      864.996
07/28/2014  03:53:00      -59.382      -40.421      -23.340       41.262       23.664       16.316     1702.543      559.975      266.201        0.412        0.126       71.833       14.787        0.042      344.453       21.283      864.985
07/28/2014  03:54:00        5.008      -48.625        1.020       23.823       23.069       17.090      567.555      532.162      292.068        0.189        0.070       48.882       14.489        0.088      344.403       21.196      864.972
07/28/2014  03:55:00      -74.009      -77.156      -10.581       38.788       27.067       17.240     1504.506      732.616      297.203        0.704        0.127      106.913       14.029        0.017      344.716       21.732      864.955
07/28/2014  03:56:00      -55.525     -124.504        0.019       24.760       45.730       15.041      613.042     2091.239      226.228        1.076        0.147      136.324       12.039        0.008      344.970       22.167      864.923
07/28/2014  03:57:00      -69.768     -112.266       -6.749       32.451       50.467       19.664     1053.045     2546.963      386.691        1.075        0.199      132.179       24.140        0.033      345.031       22.272      864.911
07/28/2014  03:58:00      -82.386      -34.684       -0.316       34.926       39.502       16.033     1219.797     1560.440      257.060        0.551        0.152       89.389        9.853        0.012      345.077       22.349      864.926
07/28/2014  03:59:00      -93.510       12.545       -4.063       27.562       23.800       17.700      759.685      566.419      313.277        0.528        0.082       94.348       15.866        0.028      344.728       21.754      864.948
07/28/2014  04:00:00      -78.327      -16.059       -7.244       33.652       23.512       14.863     1132.426      552.803      220.896        0.418        0.095       79.956       13.315        0.028      344.449       21.275      864.946
07/28/2014  04:01:00      -48.262      -29.167       -5.979       24.326       19.525       11.967      591.743      381.217      143.212        0.217        0.056       56.391        9.752        0.030      344.549       21.446      864.924
07/28/2014  04:02:00      -13.676      -35.452       -2.715       23.821       15.199        8.897      567.442      231.015       79.150        0.116        0.044       37.998        7.542        0.039      344.627       21.582      864.914
07/28/2014  04:03:00      -34.299      -23.777        2.242       23.421       20.339       12.156      548.526      413.665      147.779        0.143        0.055       41.734        8.261        0.039      344.630       21.586      864.921
07/28/2014  04:04:00      -13.319      -40.360       -4.344       20.544       10.545        9.823      422.059      111.197       96.483        0.123        0.031       42.501        3.514        0.007      344.745       21.780      864.929
07/28/2014  04:05:00       13.672      -37.884       -0.943       20.325       20.055       13.717      413.123      402.222      188.151        0.131        0.050       40.275       15.982        0.157      344.919       22.080      864.928
07/28/2014  04:06:00       23.972       -0.260       17.655       15.454       27.557       11.646      238.826      759.372      135.621        0.101        0.057       23.973       11.926        0.247      344.788       21.855      864.930
07/28/2014  04:07:00      -27.547       77.371       -7.442       31.943       21.996       12.477     1020.378      483.825      155.665        0.423        0.083       82.128       11.639        0.020      344.552       21.453      864.962
07/28/2014  04:08:00      -76.000       64.779      -13.829       19.869       25.668       15.420      394.786      658.856      237.790        0.573        0.065       99.861       14.259        0.020      344.461       21.297      864.981
07/28/2014  04:09:00      -79.160       35.462       -8.345       27.235       22.662       15.176      741.734      513.575      230.323        0.454        0.074       86.741       10.531        0.015      344.441       21.262      864.990
07/28/2014  04:10:00      -78.321      -29.154       -4.684       23.210       35.484       18.752      538.723     1259.110      351.631        0.458        0.107       83.571       14.312        0.029      344.293       21.010      864.985
07/28/2014  04:11:00      -49.090      -23.091       -5.056       22.479       19.052       15.088      505.294      362.987      227.637        0.203        0.055       54.249       12.230        0.051      344.352       21.110      864.969
07/28/2014  04:12:00       12.365       -7.689        2.002       10.783       13.236       11.974      116.268      175.193      143.383        0.033        0.022       14.560        7.714        0.281      344.373       21.147      864.967
07/28/2014  04:13:00      -43.456      -18.283       -4.832       21.413       13.772        7.130      458.499      189.663       50.839        0.147        0.035       47.145        6.401        0.018      344.353       21.114      864.970
07/28/2014  04:14:00      -80.605      -26.629       -6.404       15.573       24.057       13.921      242.518      578.718      193.794        0.413        0.051       84.890       12.121        0.020      344.249       20.931      864.981
07/28/2014  04:15:00     -101.670      -34.229       -1.875       26.223       30.167       17.421      687.635      910.040      303.478        0.671        0.095      107.277       13.927        0.017      344.139       20.747      864.978
07/28/2014  04:16:00      -78.954      -40.321       -5.722       24.548       31.068       16.618      602.605      965.238      276.159        0.487        0.092       88.654        8.875        0.010      344.006       20.517      864.970
07/28/2014  04:17:00     -105.928      -12.159      -14.089       34.722       21.258       18.341     1205.638      451.919      336.404        0.678        0.100      106.624       16.430        0.024      343.922       20.375      864.976
07/28/2014  04:18:00     -113.047        0.181      -11.400       43.068       39.538       25.963     1854.838     1563.274      674.092        0.850        0.205      113.047       22.681        0.040      343.931       20.390      864.987
07/28/2014  04:19:00     -115.477       21.962      -13.412       45.259       24.397       17.826     2048.368      595.222      317.750        0.848        0.148      117.547       16.892        0.021      344.076       20.638      864.992
07/28/2014  04:20:00      -87.313      -29.220      -17.238       20.207       24.867       16.438      408.328      618.391      270.201        0.504        0.065       92.072        7.492        0.007      344.081       20.649      864.996
07/28/2014  04:21:00      -60.041      -37.562      -10.203       31.634       21.428       15.679     1000.690      459.166      245.826        0.341        0.085       70.822       11.950        0.028      344.004       20.516      864.997
07/28/2014  04:22:00     -100.594      -42.328       -6.055       49.605       32.319       16.114     2460.607     1044.527      259.666        0.786        0.188      109.137       20.231        0.034      343.954       20.428      865.006
07/28/2014  04:23:00      -97.961       -4.473      -12.292       28.745       31.568       20.809      826.300      996.565      433.025        0.601        0.113       98.063       18.591        0.036      343.846       20.246      865.011
07/28/2014  04:24:00      -87.003      -28.528       -7.543       22.004       19.591       10.410      484.176      383.796      108.364        0.471        0.049       91.561        7.323        0.006      343.878       20.301      865.008
07/28/2014  04:25:00      -99.923      -22.348       -6.827       16.065       14.323       11.204      258.096      205.150      125.541        0.556        0.029      102.392        6.942        0.005      343.902       20.341      865.003
07/28/2014  04:26:00      -84.817      -18.430      -10.887        8.821       10.734        6.779       77.809      115.214       45.951        0.395        0.012       86.796        5.302        0.004      343.932       20.391      865.006
07/28/2014  04:27:00      -98.038      -15.755      -10.776       29.293       14.492       16.595      858.073      210.015      275.387        0.566        0.067       99.296       15.652        0.025      343.906       20.348      865.005
07/28/2014  04:28:00      -95.036      -24.982       -5.859       31.159       18.091       14.176      970.888      327.286      200.951        0.559        0.075       98.264       15.190        0.024      343.772       20.119      864.999
07/28/2014  04:29:00      -72.107      -23.067       -0.107       26.214       20.627       14.511      687.158      425.458      210.569        0.353        0.066       75.707       13.155        0.030      343.789       20.148      864.992
07/28/2014  04:30:00      -52.736      -42.073        4.203       30.541       27.121       17.086      932.772      735.522      291.946        0.326        0.098       67.462       15.713        0.054      343.747       20.076      865.013
07/28/2014  04:31:00     -107.704      -53.272       -3.300       22.031       22.985       13.945      485.373      528.308      194.471        0.783        0.060      120.158       10.753        0.008      343.816       20.193      865.024
07/28/2014  04:32:00      -89.919      -51.469       -1.646       23.488       23.886       12.136      551.699      570.519      147.272        0.600        0.063      103.607       10.901        0.011      343.884       20.310      865.029
07/28/2014  04:33:00      -99.933      -19.243       -9.747       22.145       21.133       10.871      490.402      446.623      118.173        0.575        0.053      101.769       10.911        0.011      343.825       20.209      865.047
07/28/2014  04:34:00      -46.671      -23.163        3.041       39.901       22.668       16.675     1592.091      513.845      278.051        0.255        0.119       52.102       19.821        0.145      343.672       19.949      865.075
07/28/2014  04:35:00       -5.241       -3.670        6.047       16.011       19.349       11.776      256.340      374.399      138.663        0.042        0.038        6.398       11.971        3.501      343.745       20.074      865.091
07/28/2014  04:36:00      -17.658        5.452       -5.514       34.496       19.466       15.582     1189.982      378.926      242.811        0.109        0.091       18.481       16.192        0.768      343.901       20.340      865.105
07/28/2014  04:37:00      -62.072      -26.739       -8.826       25.835       22.964       14.332      667.435      527.338      205.412        0.302        0.070       67.586        9.248        0.019      343.894       20.326      865.114
07/28/2014  04:38:00      -49.408      -20.532        4.861       31.980       20.038       17.970     1022.707      401.517      322.914        0.232        0.087       53.505       14.087        0.069      343.746       20.074      865.135
07/28/2014  04:39:00      -50.903      -12.726       -0.053       20.330       14.588       13.528      413.327      212.803      183.007        0.178        0.040       52.470       11.261        0.046      343.801       20.168      865.143
07/28/2014  04:40:00      -56.805      -14.239       -5.607       13.323       11.704        9.424      177.504      136.972       88.809        0.193        0.020       58.563        5.640        0.009      343.852       20.256      865.138
07/28/2014  04:41:00      -45.585      -20.231       -8.084       10.156       11.560        7.203      103.140      133.643       51.882        0.142        0.014       49.873        6.013        0.015      343.919       20.371      865.149
07/28/2014  04:42:00      -45.241      -16.268       -8.630        9.737       10.695       11.434       94.805      114.385      130.745        0.136        0.017       48.077        7.557        0.025      343.986       20.481      865.155
07/28/2014  04:43:00      -57.116      -23.846       -3.873       18.242       24.012       14.201      332.766      576.590      201.679        0.248        0.056       61.894       13.962        0.051      343.985       20.483      865.159
07/28/2014  04:44:00      -82.791      -19.862      -13.946       16.178       16.103        9.733      261.715      259.310       94.739        0.403        0.031       85.140        5.505        0.004      343.957       20.434      865.165
07/28/2014  04:45:00      -90.304      -36.798      -10.482       12.200       12.643       11.263      148.830      159.837      126.862        0.503        0.022       97.514        5.006        0.003      344.004       20.515      865.178
07/28/2014  04:46:00      -89.642      -38.499       -7.956       15.536       14.175       11.821      241.381      200.944      139.735        0.508        0.029       97.559        9.065        0.009      344.023       20.547      865.181
07/28/2014  04:47:00      -88.363      -25.438       -7.870       16.152       11.830       10.551      260.876      139.942      111.326        0.451        0.026       91.951        6.716        0.005      344.068       20.625      865.184
07/28/2014  04:48:00      -92.188      -36.853       -7.037       10.164       13.416        8.535      103.316      179.993       72.853        0.513        0.018       99.281        2.571        0.001      344.009       20.524      865.185
07/28/2014  04:49:00      -76.782      -29.302       -1.074       22.974       16.588        8.477      527.823      275.178       71.865        0.381        0.044       82.183        8.853        0.012      343.922       20.376      865.196
07/28/2014  04:50:00     -101.394      -38.124       -2.460       20.087       16.577       10.210      403.500      274.794      104.248        0.626        0.039      108.325        6.536        0.004      343.941       20.407      865.201
07/28/2014  04:51:00      -62.486      -28.143        0.560       32.325       22.007       12.836     1044.888      484.309      164.753        0.320        0.085       68.532       13.983        0.042      343.868       20.284      865.204
07/28/2014  04:52:00       -6.861      -32.955        8.655       10.645       11.033        9.551      113.313      121.725       91.225        0.077        0.016       33.661        5.464        0.026      343.983       20.480      865.202
07/28/2014  04:53:00       -0.592      -28.978       -2.430       10.515        8.431        4.736      110.562       71.089       22.430        0.052        0.010       28.984        3.211        0.012      344.031       20.565      865.207
07/28/2014  04:54:00      -20.563       -5.417       -1.083       13.750        6.210        6.676      189.065       38.565       44.574        0.036        0.014       21.264        3.426        0.026      344.053       20.602      865.224
07/28/2014  04:55:00      -32.564      -14.813       -1.163        7.581       10.095        5.532       57.477      101.908       30.600        0.074        0.009       35.775        3.467        0.009      344.034       20.564      865.243
07/28/2014  04:56:00      -44.548      -25.216        0.343       14.642       15.377        9.978      214.386      236.467       99.552        0.159        0.028       51.190        4.619        0.008      343.955       20.432      865.256
07/28/2014  04:57:00      -64.608      -66.222       -2.275       24.879       20.793       16.158      618.942      432.343      261.072        0.494        0.066       92.518       14.563        0.025      343.918       20.368      865.271
07/28/2014  04:58:00      -76.873      -64.825       -6.362       26.941       27.630       15.788      725.805      763.400      249.252        0.595        0.087      100.558       14.225        0.020      343.862       20.271      865.271
07/28/2014  04:59:00      -90.623      -84.392        1.777       33.437       33.646       23.339     1118.045     1132.032      544.731        0.907        0.140      123.832       17.942        0.021      343.836       20.229      865.278
07/28/2014  05:00:00     -105.568      -74.948       -0.285       56.037       39.159       27.815     3140.161     1533.448      773.666        1.110        0.272      129.467       21.589        0.028      343.776       20.125      865.274
07/28/2014  05:01:00      -83.212      -70.422       -1.127       45.494       33.700       24.689     2069.747     1135.701      609.554        0.785        0.191      109.011       24.842        0.052      343.853       20.258      865.275
07/28/2014  05:02:00      -97.742      -47.876       -5.604       31.496       32.691       18.504      992.005     1068.723      342.409        0.714        0.120      108.838       12.657        0.014      343.818       20.197      865.266
07/28/2014  05:03:00     -127.240      -19.113       -1.239       58.892       41.746       26.942     3468.261     1742.719      725.878        1.125        0.297      128.668       27.900        0.047      343.661       19.928      865.265
07/28/2014  05:04:00     -124.355      -23.539       -4.279       39.670       28.150       22.010     1573.720      792.413      484.440        0.944        0.143      126.563       20.729        0.027      343.580       19.791      865.262
07/28/2014  05:05:00     -140.862      -10.787       -8.367       30.213       23.696       16.131      912.798      561.491      260.211        1.088        0.087      141.274       13.502        0.009      343.562       19.761      865.258
07/28/2014  05:06:00     -109.261      -22.377       -7.023       27.274       28.783       18.231      743.879      828.482      332.382        0.720        0.095      111.529       15.603        0.020      343.588       19.806      865.252
07/28/2014  05:07:00     -113.556      -49.564       -1.202       36.454       24.344       16.481     1328.896      592.626      271.611        0.877        0.110      123.902       19.330        0.024      343.613       19.848      865.250
07/28/2014  05:08:00     -139.949      -37.014       -7.015       17.613       21.783       17.474      310.218      474.493      305.328        1.105        0.055      144.761       10.588        0.005      343.617       19.855      865.257
07/28/2014  05:09:00     -109.789       -1.904       -6.818       38.568       26.110       21.844     1487.507      681.756      477.182        0.737        0.132      109.806       22.101        0.041      343.499       19.653      865.269
07/28/2014  05:10:00      -83.484      -13.197       -2.879       23.445       27.881       15.660      549.684      777.325      245.221        0.436        0.079       84.520       12.294        0.021      343.528       19.702      865.283
07/28/2014  05:11:00      -72.660       -8.197       -3.234       27.276       21.740       13.122      743.961      472.615      172.182        0.337        0.069       73.121       12.763        0.030      343.546       19.733      865.289
07/28/2014  05:12:00      -61.575      -25.904       -1.503       18.992       12.833        8.839      360.693      164.694       78.125        0.253        0.030       66.802        6.697        0.010      343.620       19.860      865.286
07/28/2014  05:13:00      -29.685      -20.576        0.106       16.419       14.350        8.371      269.583      205.934       70.075        0.092        0.027       36.119        8.028        0.049      343.663       19.933      865.298
07/28/2014  05:14:00      -25.160      -22.105       -1.920       15.975       12.933        6.707      255.213      167.261       44.989        0.080        0.023       33.492        7.882        0.055      343.652       19.914      865.304
07/28/2014  05:15:00      -58.830      -30.018       -8.903       14.600        8.014        8.900      213.155       64.225       79.216        0.240        0.018       66.046        6.183        0.009      343.766       20.108      865.314
07/28/2014  05:16:00      -85.243      -15.941      -14.314       12.813       11.848        7.814      164.171      140.383       61.063        0.405        0.018       86.721        4.064        0.002      343.736       20.060      865.325
07/28/2014  05:17:00      -79.342      -29.669       -8.671       10.669       13.967        7.495      113.825      195.085       56.179        0.381        0.018       84.708        4.945        0.003      343.760       20.099      865.338
07/28/2014  05:18:00      -99.592      -37.767      -14.605        6.297        8.603        6.653       39.656       74.015       44.260        0.586        0.008      106.512        2.886        0.001      343.790       20.148      865.343
07/28/2014  05:19:00      -86.657      -40.264      -14.390       12.592        9.904       10.418      158.556       98.081      108.536        0.485        0.018       95.554        8.302        0.008      343.802       20.171      865.351
07/28/2014  05:20:00      -77.127      -27.463       -7.835       14.298       13.770        9.004      204.426      189.616       81.078        0.362        0.024       81.870        7.846        0.009      343.814       20.192      865.351
07/28/2014  05:21:00      -72.387      -23.250       -6.448        7.813        7.339        5.577       61.036       53.859       31.108        0.298        0.007       76.029        2.984        0.002      343.800       20.166      865.345
07/28/2014  05:22:00      -61.666      -33.420      -10.146       12.271        9.952        9.926      150.573       99.042       98.530        0.269        0.017       70.140        6.063        0.007      343.835       20.224      865.353
07/28/2014  05:23:00     -114.373      -45.961      -14.235       14.723       12.670        6.702      216.773      160.524       44.911        0.791        0.021      123.262        3.359        0.001      343.806       20.178      865.368
07/28/2014  05:24:00     -132.710      -36.571      -15.134       20.647       27.695       13.657      426.296      767.034      186.514        1.028        0.069      137.657       11.526        0.007      343.665       19.938      865.380
07/28/2014  05:25:00      -89.398      -47.064       -1.469       42.326       23.630       15.332     1791.500      558.371      235.081        0.640        0.129      101.030       17.648        0.031      343.593       19.813      865.390
07/28/2014  05:26:00      -30.306      -46.048        5.202       28.168       36.688       20.129      793.421     1345.985      405.196        0.280        0.127       55.126       18.570        0.113      343.542       19.726      865.404
07/28/2014  05:27:00      -93.919      -68.686        0.914       32.980       33.932       24.134     1087.707     1151.358      582.445        0.818        0.141      116.355       17.198        0.022      343.473       19.609      865.420
07/28/2014  05:28:00     -117.613      -85.003       -6.542       41.505       37.292       24.379     1722.669     1390.713      594.330        1.240        0.185      145.115       18.946        0.017      343.526       19.700      865.446
07/28/2014  05:29:00      -98.155      -59.316        6.987       58.799       36.465       25.391     3457.379     1329.683      644.717        0.932        0.272      114.686       24.634        0.046      343.474       19.610      865.459
07/28/2014  05:30:00     -107.482      -47.210       -0.601       40.063       40.928       22.256     1605.061     1675.094      495.327        0.878        0.189      117.393       21.388        0.033      343.571       19.776      865.468
07/28/2014  05:31:00     -104.534      -37.808        0.821       30.247       27.540       18.887      914.897      758.437      356.717        0.719        0.102      111.161       16.550        0.022      343.579       19.789      865.473
07/28/2014  05:32:00      -75.778      -34.186       -1.108       23.793       21.755       12.138      566.127      473.299      147.327        0.405        0.059       83.133        9.645        0.013      343.548       19.737      865.478
07/28/2014  05:33:00     -100.154      -35.243        0.212       24.045       22.037       12.779      578.165      485.651      163.304        0.625        0.061      106.174       11.324        0.011      343.580       19.792      865.486
07/28/2014  05:34:00      -79.835      -33.812        0.937       30.834       14.617       15.206      950.727      213.649      231.218        0.446        0.070       86.700       16.950        0.038      343.597       19.820      865.489
07/28/2014  05:35:00      -85.408      -26.089        0.379       21.422       21.332       10.678      458.911      455.034      114.019        0.450        0.051       89.304        5.913        0.004      343.642       19.899      865.498
07/28/2014  05:36:00      -91.224       -4.465       -3.521       19.673       10.837       11.471      387.021      117.446      131.585        0.449        0.032       91.333       10.835        0.014      343.617       19.853      865.504
07/28/2014  05:37:00      -80.528       -7.593       -2.024       18.101       14.412       10.225      327.656      207.716      104.553        0.359        0.032       80.885       10.492        0.017      343.624       19.867      865.517
07/28/2014  05:38:00      -51.081       -9.796       -0.087       28.484       14.655       10.521      811.349      214.776      110.701        0.192        0.057       52.012       10.124        0.038      343.695       19.988      865.522
07/28/2014  05:39:00      -53.745       -9.804       -4.560       22.712       13.232       11.813      515.827      175.083      139.551        0.192        0.042       54.632        9.600        0.031      343.686       19.972      865.508
07/28/2014  05:40:00      -52.783       -2.200       -3.295       20.426       11.378       11.196      417.236      129.461      125.353        0.174        0.034       52.829       11.804        0.050      343.640       19.894      865.507
07/28/2014  05:41:00      -59.295      -19.357       -7.174       11.763        9.024        9.140      138.372       81.428       83.537        0.212        0.015       62.375        4.902        0.006      343.807       20.179      865.499
07/28/2014  05:42:00      -79.699      -33.127      -10.725       17.980       11.492        7.228      323.263      132.070       52.249        0.404        0.025       86.310        4.102        0.002      343.807       20.179      865.508
07/28/2014  05:43:00     -125.751      -61.429       -8.436       21.687       15.946       10.800      470.345      254.262      116.645        1.025        0.042      139.954        7.464        0.003      343.706       20.004      865.519
07/28/2014  05:44:00     -146.146      -55.462       -8.547       18.754       29.864       19.584      351.714      891.838      383.550        1.307        0.081      156.316       14.246        0.008      343.420       19.519      865.523
07/28/2014  05:45:00     -131.294      -38.805       -4.090       33.776       23.951       16.527     1140.787      573.637      273.131        1.037        0.099      136.909       13.142        0.009      343.326       19.359      865.521
07/28/2014  05:46:00     -112.457      -17.638       -0.192       41.600       26.440       19.568     1730.552      699.085      382.887        0.788        0.141      113.832       20.799        0.033      343.454       19.577      865.514
07/28/2014  05:47:00      -83.438      -27.454       -1.462       31.001       27.942       12.419      961.071      780.736      154.229        0.481        0.095       87.838        7.852        0.008      343.547       19.736      865.501
07/28/2014  05:48:00      -99.621      -61.283       -0.535       25.136       26.331       15.622      631.828      693.306      244.049        0.762        0.078      116.961       11.441        0.010      343.575       19.784      865.494
07/28/2014  05:49:00      -97.116      -12.725       -2.167       33.920       30.076       20.053     1150.538      904.585      402.127        0.603        0.123       97.946       17.840        0.033      343.479       19.620      865.493
07/28/2014  05:50:00     -107.819       -9.282       -4.502       34.439       27.021       18.200     1186.054      730.157      331.241        0.699        0.112      108.217       19.092        0.031      343.349       19.398      865.492
07/28/2014  05:51:00     -103.252       -7.088       -1.601       52.908       29.400       21.781     2799.237      864.353      474.418        0.743        0.207      103.495       27.556        0.071      343.303       19.319      865.488
07/28/2014  05:52:00     -112.125      -42.608      -10.632       27.442       40.552       20.014      753.085     1644.464      400.577        0.865        0.140      119.948       11.516        0.009      343.291       19.299      865.492
07/28/2014  05:53:00      -98.567      -42.361      -10.034       32.715       27.259       17.646     1070.279      743.030      311.385        0.687        0.106      107.284       15.052        0.020      343.302       19.317      865.485
07/28/2014  05:54:00      -66.515      -30.886        0.151       30.559       31.483       28.398      933.874      991.153      806.469        0.405        0.137       73.336       25.896        0.125      343.299       19.312      865.491
07/28/2014  05:55:00      -11.517      -19.573        6.931       33.047       18.648       21.542     1092.137      347.754      464.046        0.123        0.095       22.710       15.501        0.466      343.288       19.293      865.492
07/28/2014  05:56:00     -160.689      -71.857      -17.421       77.247       52.056       20.409     5967.030     2709.840      416.509        2.019        0.455      176.023       26.412        0.023      343.349       19.396      865.504
07/28/2014  05:57:00     -114.856      -12.057       -4.515       49.553       36.489       22.746     2455.468     1331.434      517.377        0.883        0.215      115.487       25.284        0.048      343.355       19.408      865.495
07/28/2014  05:58:00     -105.692      -32.765      -11.150       28.251       26.996       18.305      798.113      728.773      335.075        0.711        0.093      110.654       17.798        0.026      343.334       19.374      865.480
07/28/2014  05:59:00     -113.593      -50.786       -2.661       25.011       29.239       20.387      625.549      854.892      415.626        0.869        0.095      124.429       11.974        0.009      343.276       19.271      865.479
07/28/2014  06:00:00     -111.735      -32.894        0.182       26.257       25.040       13.670      689.427      626.981      186.859        0.753        0.075      116.476        8.008        0.005      343.334       19.372      865.487
07/28/2014  06:01:00     -109.992       -7.699       -2.434       31.550       21.598       14.669      995.424      466.455      215.185        0.692        0.084      110.261       15.688        0.020      343.219       19.176      865.484
07/28/2014  06:02:00      -70.926      -28.965        6.411       48.816       31.375       19.233     2382.986      984.376      369.891        0.482        0.187       76.613       23.961        0.098      343.195       19.136      865.484
07/28/2014  06:03:00      -75.680      -43.899        3.503       35.743       24.784       16.357     1277.563      614.247      267.535        0.491        0.108       87.490       14.436        0.027      343.322       19.352      865.474
07/28/2014  06:04:00      -80.325      -50.026        3.599       36.879       24.024       19.559     1360.097      577.170      382.570        0.564        0.116       94.630       20.793        0.048      343.453       19.576      865.466
07/28/2014  06:05:00      -99.132      -43.209        6.019       38.909       25.518       22.449     1513.929      651.150      503.962        0.720        0.133      108.139       22.583        0.044      343.563       19.763      865.459
07/28/2014  06:06:00      -90.358      -37.707        9.233       42.846       33.699       24.040     1835.783     1135.602      577.944        0.661        0.177       97.911       18.078        0.034      343.519       19.688      865.459
07/28/2014  06:07:00      -99.472      -47.716        2.956       50.765       40.180       23.033     2577.093     1614.469      530.501        0.845        0.236      110.325       22.106        0.040      343.574       19.782      865.465
07/28/2014  06:08:00      -98.244      -36.016       -0.095       30.434       30.330       18.288      926.253      919.929      334.442        0.656        0.109      104.638       16.739        0.026      343.473       19.607      865.471
07/28/2014  06:09:00      -67.213       12.738       -1.151       33.225       30.988       17.025     1103.894      960.232      289.862        0.352        0.118       68.409       11.887        0.030      343.171       19.096      865.489
07/28/2014  06:10:00      -53.677       47.489       -2.794       33.737       34.397       19.643     1138.215     1183.137      385.861        0.393        0.135       71.669       18.482        0.067      343.145       19.051      865.509
07/28/2014  06:11:00      -94.396       77.800      -19.037       22.072       34.149       19.707      487.177     1166.186      388.367        0.868        0.102      122.325       18.486        0.023      343.492       19.641      865.526
07/28/2014  06:12:00      -93.359       13.633      -12.796       28.897       24.607       17.298      835.018      605.482      299.223        0.540        0.087       94.349        8.300        0.008      343.424       19.524      865.545
07/28/2014  06:13:00      -67.563      -15.953       -5.444       37.122       24.585       17.181     1378.075      604.413      295.177        0.356        0.114       69.421       19.865        0.082      343.386       19.460      865.568
07/28/2014  06:14:00     -116.307       42.903      -10.641       50.202       25.481       15.335     2520.272      649.276      235.165        0.944        0.170      123.967       14.928        0.015      343.357       19.411      865.592
07/28/2014  06:15:00     -104.998       25.684      -13.194       29.139       23.277       20.113      849.088      541.829      404.515        0.683        0.090      108.094        4.669        0.002      343.266       19.258      865.598
07/28/2014  06:16:00      -61.697      -19.401       -1.415       22.305       27.008       13.849      497.498      729.410      191.800        0.280        0.071       64.675       12.543        0.038      343.193       19.133      865.609
07/28/2014  06:17:00      -58.236      -13.966       -2.039       25.937       24.352       11.828      672.750      592.997      139.904        0.250        0.070       59.888       10.835        0.033      343.135       19.034      865.617
07/28/2014  06:18:00      -95.393      -25.156       -8.958       18.006       12.663        8.115      324.207      160.342       65.851        0.518        0.028       98.654        7.479        0.006      343.164       19.082      865.629
07/28/2014  06:19:00     -104.418      -54.597       -7.748       30.072       29.556       11.753      904.329      873.560      138.123        0.793        0.096      117.830       12.033        0.010      343.168       19.088      865.650
07/28/2014  06:20:00      -95.329      -39.002        2.023       34.959       29.284       16.217     1222.134      857.543      262.981        0.648        0.117      102.999       17.266        0.028      343.145       19.051      865.673
07/28/2014  06:21:00      -97.662      -40.527        0.934       48.018       24.197       15.519     2305.770      585.501      240.846        0.716        0.157      105.737       21.364        0.041      343.160       19.077      865.680
07/28/2014  06:22:00      -63.008      -10.460       -3.444       19.496       16.331        9.968      380.112      266.699       99.362        0.242        0.037       63.870        8.083        0.016      343.188       19.124      865.689
07/28/2014  06:23:00      -66.421       -6.597       -2.544       22.689       12.884        9.512      514.796      165.995       90.479        0.262        0.039       66.747        9.826        0.022      343.243       19.217      865.694
07/28/2014  06:24:00      -36.019      -32.335        3.686       26.660       21.211       14.450      710.745      449.892      208.793        0.186        0.068       48.404       14.307        0.087      343.270       19.263      865.699
07/28/2014  06:25:00      -64.089      -29.677        2.505       34.645       20.693       15.228     1200.299      428.187      231.884        0.343        0.093       70.627       14.351        0.041      343.336       19.374      865.709
07/28/2014  06:26:00     -109.885      -41.135       -2.120       19.876       20.674       14.737      395.052      427.410      217.173        0.741        0.052      117.332        8.537        0.005      343.372       19.438      865.724
07/28/2014  06:27:00      -90.590      -20.876       -5.668       20.843       15.635       14.113      434.415      244.456      199.163        0.478        0.044       92.964       11.915        0.016      343.321       19.350      865.739
07/28/2014  06:28:00     -126.888      -30.297       -5.179       29.036       26.302       16.053      843.066      691.769      257.698        0.942        0.090      130.455       16.387        0.016      343.329       19.364      865.747
07/28/2014  06:29:00      -59.084      -42.690        6.364       51.799       28.336       17.905     2683.160      802.938      320.605        0.458        0.190       72.893       23.608        0.105      343.374       19.441      865.747
07/28/2014  06:30:00      -95.587      -45.844        2.445       47.720       24.492       18.183     2277.172      599.867      330.625        0.723        0.160      106.012       23.896        0.051      343.541       19.724      865.762
07/28/2014  06:31:00     -101.983      -41.703       -1.528       16.838       16.677        9.613      283.518      278.137       92.419        0.640        0.033      110.180        8.261        0.006      343.514       19.679      865.770
07/28/2014  06:32:00      -73.769      -24.435       -1.291       19.658       18.790       12.475      386.437      353.073      155.627        0.347        0.045       77.710        9.865        0.016      343.401       19.486      865.786
07/28/2014  06:33:00      -99.244      -47.350       -4.268       20.565       13.974       12.867      422.903      195.280      165.561        0.645        0.039      109.961       12.387        0.013      343.436       19.544      865.799
07/28/2014  06:34:00      -66.656      -47.356        5.181       43.530       25.300       18.145     1894.867      640.081      329.257        0.479        0.143       81.765       21.926        0.072      343.553       19.746      865.811
07/28/2014  06:35:00      -82.901      -31.588       -2.745       21.581       21.076       15.333      465.738      444.183      235.093        0.451        0.057       88.715       13.750        0.024      343.573       19.778      865.813
07/28/2014  06:36:00      -84.835      -32.220       -0.177       25.122       22.010       12.028      631.132      484.450      144.673        0.475        0.063       90.748        9.928        0.012      343.637       19.890      865.810
07/28/2014  06:37:00      -54.154      -32.206        3.380       32.604       20.354       13.783     1063.002      414.283      189.961        0.282        0.083       63.007       12.658        0.040      343.674       19.951      865.818
07/28/2014  06:38:00      -22.699      -25.991        9.548       29.683       18.269       15.810      881.051      333.755      249.942        0.137        0.073       34.508       15.916        0.213      343.683       19.966      865.816
07/28/2014  06:39:00        1.135      -46.371        2.881       17.430       15.433       14.779      303.804      238.173      218.406        0.146        0.038       46.385       11.642        0.063      343.719       20.029      865.813
07/28/2014  06:40:00      -18.550      -64.820       -1.913       11.117       11.721       11.629      123.596      137.386      135.232        0.247        0.020       67.423        4.540        0.005      343.842       20.238      865.811
07/28/2014  06:41:00      -44.826      -46.278        0.090       25.724       17.953        9.634      661.734      322.300       92.819        0.261        0.054       64.428       10.030        0.024      343.859       20.267      865.820
07/28/2014  06:42:00      -36.480      -17.232        1.964       18.204       10.627       10.419      331.378      112.928      108.556        0.109        0.028       40.345        9.971        0.061      343.904       20.344      865.833
07/28/2014  06:43:00        4.121       11.524        5.483        6.647       11.208        7.286       44.182      125.628       53.093        0.020        0.011       12.239        5.257        0.184      343.849       20.250      865.842
07/28/2014  06:44:00      -35.898        7.740        2.346       15.454        7.845        9.782      238.821       61.550       95.680        0.087        0.020       36.723       11.005        0.090      343.962       20.440      865.848
07/28/2014  06:45:00      -68.615        3.410       -3.861       11.851       10.443        6.655      140.449      109.064       44.285        0.251        0.015       68.700        3.561        0.003      343.876       20.294      865.850
07/28/2014  06:46:00      -77.408      -32.233       -2.764       25.679       15.286       11.892      659.397      233.674      141.426        0.404        0.052       83.850       15.156        0.033      343.788       20.146      865.853
07/28/2014  06:47:00      -20.856      -46.312        5.094       20.715       36.938       12.595      429.094     1364.390      158.627        0.228        0.098       50.791       14.030        0.076      343.788       20.148      865.865
07/28/2014  06:48:00      -44.074      -99.305       -3.110       19.781       22.470        9.565      391.290      504.884       91.484        0.640        0.049      108.646        6.184        0.003      343.892       20.324      865.870
07/28/2014  06:49:00      -43.492     -106.675       -2.763       17.672       29.948       11.567      312.291      896.899      133.801        0.731        0.067      115.201       12.025        0.011      344.055       20.602      865.875
07/28/2014  06:50:00      -55.683      -49.664       -9.745       27.640       20.276       18.300      763.944      411.136      334.899        0.359        0.075       74.613        5.044        0.005      344.005       20.517      865.891
07/28/2014  06:51:00      -56.902       -5.206      -11.425       19.535       13.944       14.344      381.607      194.429      205.756        0.209        0.039       57.139        9.823        0.030      344.009       20.523      865.925
07/28/2014  06:52:00      -63.719      -15.503       -3.514       19.097       16.039       15.296      364.708      257.252      233.973        0.258        0.043       65.577       11.165        0.029      343.940       20.405      865.941
07/28/2014  06:53:00      -28.066        8.978        1.631       10.604       14.555        8.768      112.443      211.839       76.878        0.064        0.020       29.467        7.152        0.059      343.857       20.266      865.965
07/28/2014  06:54:00      -12.554      -15.985        2.257        9.383       20.899        7.595       88.050      436.771       57.690        0.050        0.029       20.326        8.997        0.196      343.914       20.360      865.984
07/28/2014  06:55:00       -1.748      -55.046       -1.192       15.576       21.818       14.270      242.609      476.028      203.624        0.198        0.046       55.073        8.014        0.021      343.926       20.382      865.984
07/28/2014  06:56:00        5.668       17.042       37.327       20.136       28.983       25.229      405.471      840.028      636.494        0.180        0.094       17.960       14.561        0.657      344.232       20.905      865.999
07/28/2014  06:57:00       10.164       27.823       50.411       23.876       32.991       18.417      570.062     1088.374      339.191        0.271        0.100       29.621       13.224        0.199      344.283       20.991      865.993
07/28/2014  06:58:00      -11.380       32.470       56.445       11.464       25.466       16.927      131.413      648.518      286.516        0.272        0.053       34.407       16.354        0.226      344.399       21.191      866.002
07/28/2014  06:59:00        8.203       27.478       11.726       18.822       24.985       18.617      354.268      624.228      346.579        0.114        0.066       28.676       12.364        0.186      344.230       20.901      866.010
07/28/2014  07:00:00      -16.358        3.886        0.897       13.118       16.904       16.644      172.086      285.754      277.031        0.051        0.037       16.813       12.985        0.596      344.263       20.957      866.011
07/28/2014  07:01:00      -40.519       14.495        2.189        7.071       12.355        9.448       49.996      152.639       89.267        0.107        0.015       43.034        8.134        0.036      343.952       20.427      866.017
07/28/2014  07:02:00      -24.567        3.428       -1.839        7.049        6.902        4.416       49.688       47.632       19.502        0.037        0.006       24.805        1.898        0.006      343.957       20.435      866.011
07/28/2014  07:03:00        6.198      -10.592        9.786       24.354       18.705       13.973      593.126      349.893      195.258        0.069        0.057       12.272        9.568        0.608      344.369       21.138      866.019
07/28/2014  07:04:00        5.511      -20.198       12.367       24.770       24.583       19.063      613.571      604.327      363.387        0.109        0.079       20.937       16.305        0.606      344.525       21.406      866.023
07/28/2014  07:05:00      -10.310        6.059       20.579       11.176       10.233       11.210      124.905      104.716      125.656        0.046        0.018       11.959        8.505        0.506      344.624       21.576      866.031
07/28/2014  07:06:00       23.417       22.072       13.840       14.103       14.420       14.350      198.904      207.941      205.915        0.092        0.031       32.180       11.801        0.134      344.363       21.129      866.037
07/28/2014  07:07:00       -8.722       15.766        4.579       14.895       17.662       11.758      221.875      311.944      138.241        0.051        0.034       18.018        4.103        0.052      344.449       21.275      866.030
07/28/2014  07:08:00      -32.982       18.515       -4.033       10.813       11.869       10.684      116.925      140.874      114.147        0.091        0.019       37.824        9.551        0.064      344.276       20.981      866.039
07/28/2014  07:09:00      -36.282       12.799       -1.312        9.808       14.501        5.981       96.203      210.287       35.775        0.091        0.017       38.473        5.257        0.019      344.185       20.825      866.043
07/28/2014  07:10:00      -44.376      -24.957       -0.866        8.275       12.007        7.981       68.468      144.174       63.698        0.143        0.014       50.913        4.384        0.007      344.217       20.879      866.054
07/28/2014  07:11:00      -20.496      -11.866        5.698       18.264        9.403        9.043      333.571       88.408       81.775        0.055        0.025       23.683        9.684        0.167      344.384       21.165      866.046
07/28/2014  07:12:00      -57.405      -97.554        1.978       27.833       37.872       14.712      774.682     1434.268      216.440        0.762        0.121      113.191       20.106        0.032      344.319       21.054      866.043
07/28/2014  07:13:00      -33.185     -106.258        3.714       30.035       37.886       21.500      902.085     1435.384      462.235        0.760        0.140      111.319       21.283        0.037      344.307       21.032      866.044
07/28/2014  07:14:00      -59.064      -62.984        4.839       46.949       54.250       19.894     2204.200     2943.072      395.784        0.651        0.277       86.345       20.862        0.058      344.289       21.004      866.040
07/28/2014  07:15:00      -97.955      -41.120        5.996       32.904       31.132       20.663     1082.659      969.180      426.979        0.690        0.124      106.236       17.043        0.026      344.261       20.956      866.039
07/28/2014  07:16:00      -82.411      -45.517        1.952       34.972       27.249       19.020     1223.011      742.489      361.775        0.560        0.116       94.145       16.208        0.030      344.304       21.029      866.037
07/28/2014  07:17:00      -78.057      -49.178        4.499       27.434       20.399       13.651      752.609      416.103      186.343        0.494        0.068       92.257       12.843        0.019      344.248       20.931      866.053
07/28/2014  07:18:00      -64.036      -22.524        3.654       21.820       15.446       11.416      476.096      238.593      130.318        0.273        0.042       67.882        7.242        0.011      344.259       20.953      866.060
07/28/2014  07:19:00      -42.173      -20.261        1.545       19.633       20.204       12.125      385.463      408.215      147.014        0.157        0.047       46.787       10.778        0.053      344.327       21.068      866.078
07/28/2014  07:20:00      -60.833      -40.018       -3.131       29.269       22.142       13.910      856.673      490.267      193.484        0.343        0.077       72.815       13.368        0.034      344.332       21.077      866.097
07/28/2014  07:21:00      -48.826      -18.087        4.534       19.089       24.531       13.357      364.402      601.790      178.421        0.194        0.057       52.068       12.786        0.060      344.355       21.115      866.115
07/28/2014  07:22:00      -23.496      -40.836        0.953       28.469       30.626       20.818      810.504      937.977      433.380        0.220        0.109       47.113       14.603        0.096      344.307       21.033      866.135
07/28/2014  07:23:00      -26.062      -20.966       -7.990       20.714       24.156       17.375      429.050      583.497      301.907        0.125        0.066       33.449       15.758        0.222      344.311       21.041      866.138
07/28/2014  07:24:00      -43.353       19.842       -4.016       13.878       11.778       10.215      192.593      138.717      104.345        0.136        0.022       47.678        7.501        0.025      344.229       20.900      866.148
07/28/2014  07:25:00      -55.135       16.729       -6.710       25.339       18.463       15.444      642.081      340.894      238.521        0.229        0.061       57.617        7.056        0.015      344.110       20.697      866.150
07/28/2014  07:26:00      -62.064      -17.163       -0.978       32.861       30.959       16.793     1079.829      958.457      282.003        0.323        0.116       64.394       12.060        0.035      344.147       20.758      866.149
07/28/2014  07:27:00      -35.780       -8.179       -0.977       17.882       20.310       10.916      319.779      412.482      119.163        0.110        0.043       36.703       12.244        0.111      344.148       20.760      866.140
07/28/2014  07:28:00      -30.599      -15.831        4.787       18.973       19.079       13.531      359.976      363.997      183.080        0.106        0.045       34.451       11.746        0.116      344.203       20.855      866.134
07/28/2014  07:29:00      -67.337      -34.646        2.742       31.019       17.709       10.233      962.165      313.615      104.710        0.356        0.069       75.727        5.976        0.006      344.166       20.790      866.128
07/28/2014  07:30:00      -50.706      -37.611        6.447       48.646       25.140       19.033     2366.392      632.041      362.244        0.369        0.168       63.132       22.442        0.126      344.290       21.002      866.141
07/28/2014  07:31:00      -60.676      -33.065        1.214       26.380       27.160       14.794      695.912      737.680      218.871        0.321        0.083       69.100       14.630        0.045      344.279       20.986      866.134
07/28/2014  07:32:00      -47.814        1.318        3.280       27.587       19.241       17.698      761.038      370.217      313.204        0.187        0.072       47.832       17.415        0.133      344.242       20.923      866.135
07/28/2014  07:33:00      -50.157       -6.006        4.909       27.321       22.446       13.411      746.452      503.819      179.844        0.200        0.072       50.516       11.822        0.055      344.206       20.859      866.134
07/28/2014  07:34:00      -61.392      -13.721       -3.277       18.601       15.329       10.709      345.993      234.976      114.679        0.233        0.035       62.906       11.844        0.035      344.186       20.824      866.143
07/28/2014  07:35:00      -46.751      -20.456       -2.008       18.992       15.422       11.277      360.698      237.840      127.161        0.167        0.036       51.031       10.252        0.040      344.216       20.877      866.138
07/28/2014  07:36:00      -66.851      -18.612        0.342       23.835       16.129       10.456      568.092      260.158      109.333        0.288        0.047       69.393        6.592        0.009      344.231       20.902      866.145
07/28/2014  07:37:00      -45.023      -31.194        2.843       20.947       18.857       11.948      438.767      355.602      142.759        0.197        0.047       54.773        7.074        0.017      344.292       21.006      866.154
07/28/2014  07:38:00      -19.703      -30.423        4.373       25.438       20.550       12.131      647.115      422.321      147.168        0.127        0.061       36.246       15.031        0.172      344.498       21.361      866.169
07/28/2014  07:39:00      -36.111      -47.130       -5.308       10.555        8.014        7.278      111.417       64.220       52.967        0.189        0.011       59.374        2.490        0.002      344.340       21.088      866.193
07/28/2014  07:40:00      -38.932      -28.437       -5.925        8.210       10.929        5.115       67.404      119.434       26.162        0.129        0.011       48.211        2.217        0.002      344.427       21.236      866.202
07/28/2014  07:41:00      -33.659       -1.060        1.158        9.430        5.503        8.209       88.926       30.283       67.386        0.066        0.009       33.676        4.960        0.022      344.403       21.197      866.210
07/28/2014  07:42:00      -20.579      -16.482       -3.176        8.574        8.243        4.774       73.507       67.950       22.788        0.043        0.008       26.366        2.847        0.012      344.468       21.307      866.230
07/28/2014  07:43:00      -23.120       -6.677       -2.032        9.600        9.128        6.318       92.153       83.324       39.920        0.040        0.011       24.065        4.288        0.032      344.512       21.383      866.233
07/28/2014  07:44:00      -29.754       -9.393       -5.280       13.373        7.758        7.578      178.834       60.188       57.431        0.065        0.015       31.201        6.682        0.046      344.541       21.433      866.255
07/28/2014  07:45:00       -6.194       -5.612        5.035       11.684        8.430       10.214      136.507       71.071      104.325        0.020        0.016        8.358        5.884        0.496      344.779       21.839      866.262
07/28/2014  07:46:00       11.261      -10.288        8.781        8.119        8.894       12.968       65.924       79.097      168.164        0.031        0.016       15.253        8.373        0.301      344.891       22.033      866.269
07/28/2014  07:47:00       -5.704      -19.370       -2.690        9.939       11.829        8.154       98.790      139.934       66.484        0.036        0.015       20.192        5.093        0.064      344.726       21.749      866.275
07/28/2014  07:48:00      -22.922       -7.288        9.387       16.631       16.364       18.653      276.575      267.766      347.918        0.078        0.045       24.053       14.491        0.363      344.931       22.100      866.272
07/28/2014  07:49:00      -12.190        1.948       15.906       10.527        9.080        7.799      110.813       82.445       60.825        0.033        0.013       12.345        5.908        0.229      345.246       22.640      866.267
07/28/2014  07:50:00       -8.260      -11.208       24.581       20.706       21.311       12.516      428.748      454.166      156.647        0.092        0.052       13.923       10.482        0.567      345.313       22.755      866.255
07/28/2014  07:51:00       -5.389       18.303       32.697       13.523       18.248       14.464      182.867      332.987      209.213        0.108        0.036       19.080        9.159        0.230      345.512       23.096      866.253
07/28/2014  07:52:00        2.640        5.350       15.005       19.089       14.901       17.782      364.398      222.042      316.203        0.058        0.045        5.966       13.838        5.380      345.333       22.789      866.237
07/28/2014  07:53:00        9.153       26.060       10.110       16.786       15.184       15.163      281.772      230.543      229.922        0.080        0.037       27.621       13.449        0.237      345.160       22.492      866.240
07/28/2014  07:54:00        4.849       22.742        6.065       13.459       15.018       14.268      181.151      225.533      203.571        0.059        0.031       23.253        8.608        0.137      345.261       22.666      866.241
07/28/2014  07:55:00      -14.047        3.967       28.803       13.015        7.889        7.828      169.386       62.244       61.282        0.067        0.015       14.597        4.350        0.089      345.652       23.336      866.251
07/28/2014  07:56:00      -23.226       14.707       43.681       14.907       17.147       15.789      222.204      294.035      249.307        0.171        0.038       27.491       15.933        0.336      345.571       23.196      866.254
07/28/2014  07:57:00      -19.321       15.236       48.902       16.516       16.166       12.100      272.782      261.346      146.421        0.184        0.034       24.606       11.540        0.220      345.634       23.304      866.259
07/28/2014  07:58:00      -43.539       -2.510        7.427       11.861       12.444       13.377      140.683      154.842      178.941        0.122        0.024       43.612        2.256        0.003      345.039       22.285      866.257
07/28/2014  07:59:00      -14.300      -10.424       -1.669       13.927        9.466        8.206      193.969       89.598       67.345        0.033        0.018       17.696        5.318        0.090      345.167       22.503      866.269
07/28/2014  08:00:00      -18.986       -3.995        3.959        9.986       10.224        7.193       99.722      104.529       51.735        0.032        0.013       19.402        6.838        0.124      345.284       22.704      866.266
07/28/2014  08:01:00      -13.819       -0.924        3.824        6.383       11.483       11.835       40.737      131.867      140.061        0.026        0.016       13.850        5.022        0.131      345.424       22.945      866.273
07/28/2014  08:02:00       -9.217        7.662       24.129        9.450       11.448       13.186       89.296      131.064      173.864        0.056        0.020       11.986        7.910        0.435      346.209       24.291      866.279
07/28/2014  08:03:00       -2.130       18.382       33.748       11.265       16.326       15.938      126.900      266.551      254.023        0.106        0.032       18.505        9.992        0.292      345.808       23.602      866.287
07/28/2014  08:04:00        1.303        0.030       30.557       12.570       20.122       11.623      158.007      404.879      135.103        0.082        0.035        1.303        8.392       41.476      346.155       24.199      866.300
07/28/2014  08:05:00        4.955       -0.941       37.478       17.961       23.603       12.513      322.588      557.078      156.575        0.123        0.052        5.044       11.632        5.319      346.308       24.462      866.308
07/28/2014  08:06:00       -2.229        4.941       37.742       13.212       18.501        9.058      174.546      342.289       82.048        0.103        0.030        5.420        5.301        0.957      346.664       25.076      866.319
07/28/2014  08:07:00      -14.325      -15.104       38.186       13.482       35.137       14.840      181.752     1234.626      220.218        0.176        0.082       20.816       18.054        0.752      346.320       24.482      866.326
07/28/2014  08:08:00       -0.866        6.802       40.583       18.396       15.417       16.737      338.416      237.695      280.119        0.127        0.043        6.857       13.170        3.689      346.691       25.121      866.340
07/28/2014  08:09:00        2.392       16.066       47.413       21.733       26.081       15.061      472.307      680.202      226.833        0.195        0.069       16.243       14.248        0.769      346.483       24.764      866.350
07/28/2014  08:10:00       -3.449        6.210       46.817       17.099       21.221       12.492      292.391      450.352      156.038        0.157        0.045        7.104        4.858        0.468      346.594       24.954      866.354
07/28/2014  08:11:00       -7.320        4.051       40.996        9.051       10.216        8.994       81.921      104.361       80.894        0.101        0.013        8.366        5.973        0.510      346.527       24.839      866.354
07/28/2014  08:12:00      -13.752       17.180       29.950       14.748       19.449       16.704      217.494      378.258      279.016        0.113        0.044       22.006       12.899        0.344      346.288       24.429      866.358
07/28/2014  08:13:00      -22.371       11.200       20.885       18.336       15.087       20.127      336.222      227.608      405.110        0.102        0.048       25.019       15.160        0.367      346.142       24.176      866.350
07/28/2014  08:14:00      -32.384       -4.632       -0.110        8.971       10.058        7.200       80.482      101.164       51.838        0.065        0.012       32.714        6.062        0.034      345.738       23.483      866.347
07/28/2014  08:15:00      -34.816       -9.158        2.912       13.175       10.563        7.820      173.577      111.572       61.154        0.083        0.017       36.000        3.901        0.012      345.719       23.451      866.344
07/28/2014  08:16:00      -38.655      -39.042       -2.473       11.232       19.118        9.975      126.167      365.495       99.509        0.181        0.030       54.940        6.804        0.015      345.752       23.509      866.341
07/28/2014  08:17:00      -25.701      -65.211       -1.918       22.025       19.440       14.624      485.087      377.930      213.873        0.300        0.054       70.093        9.285        0.018      345.727       23.463      866.326
07/28/2014  08:18:00      -16.160      -23.388        3.885       13.999       14.913       13.985      195.972      222.408      195.593        0.072        0.031       28.428       10.209        0.129      345.967       23.878      866.319
07/28/2014  08:19:00      -36.484       -1.223       -8.092       10.341        9.827       11.190      106.929       96.577      125.207        0.086        0.016       36.504        7.406        0.041      345.801       23.591      866.316
07/28/2014  08:20:00       -8.848       -1.309        5.163        8.579       11.366       13.595       73.591      129.177      184.820        0.025        0.019        8.944        3.863        0.187      346.343       24.523      866.313
07/28/2014  08:21:00      -10.581       -0.440       12.825       11.124       11.930       18.014      123.737      142.316      324.519        0.043        0.030       10.590        9.322        0.775      346.621       25.002      866.313
07/28/2014  08:22:00      -24.487        1.127       -2.009        7.221        8.487        9.693       52.136       72.034       93.945        0.041        0.011       24.513        4.833        0.039      345.904       23.769      866.314
07/28/2014  08:23:00      -19.070        4.699       14.617       10.900        7.689        8.262      118.805       59.124       68.259        0.042        0.012       19.640        5.267        0.072      346.352       24.539      866.318
07/28/2014  08:24:00       -2.279       -9.239       15.305       10.192        9.451        8.811      103.880       89.316       77.630        0.030        0.014        9.516        4.528        0.226      346.850       25.394      866.316
07/28/2014  08:25:00       -0.909       16.000       12.608       22.074       22.210       15.161      487.283      493.281      229.841        0.081        0.061       16.025        9.555        0.356      346.675       25.095      866.320
07/28/2014  08:26:00       -6.671       20.806       26.501       10.654       23.645       17.155      113.517      559.081      294.283        0.107        0.048       21.849       13.017        0.355      347.163       25.934      866.325
07/28/2014  08:27:00       -9.934       23.510       21.585       15.769       19.075       18.248      248.656      363.867      332.974        0.103        0.047       25.523       11.289        0.196      346.726       25.181      866.316
07/28/2014  08:28:00      -24.246       21.805       22.987       15.650       24.993       20.168      244.912      624.661      406.752        0.143        0.064       32.608       11.129        0.116      346.875       25.439      866.313
07/28/2014  08:29:00      -40.136        4.345       10.734        8.604        8.402       14.379       74.035       70.599      206.767        0.105        0.018       40.371        8.671        0.046      346.159       24.205      866.308
07/28/2014  08:30:00      -13.643       -0.700       12.758       12.043        8.207       14.473      145.036       67.352      209.463        0.039        0.021       13.661        8.630        0.399      346.832       25.364      866.311
07/28/2014  08:31:00        1.845       18.188       22.503       28.105       21.861       14.240      789.890      477.917      202.767        0.116        0.074       18.282        6.471        0.125      346.746       25.217      866.302
07/28/2014  08:32:00        4.785       10.743       26.512       16.672       20.612       17.025      277.967      424.859      289.857        0.092        0.050       11.760        9.484        0.650      347.502       26.520      866.305
07/28/2014  08:33:00       18.889       22.509       23.663       29.848       20.918       23.162      890.893      437.557      536.489        0.164        0.093       29.384       17.103        0.339      346.928       25.532      866.299
07/28/2014  08:34:00       38.685       28.974       18.775       30.474       19.393       19.126      928.642      376.106      365.817        0.218        0.084       48.333       17.673        0.134      346.889       25.463      866.295
07/28/2014  08:35:00       39.181       59.104       -1.414       26.302       31.841       23.069      691.809     1013.861      532.184        0.363        0.112       70.912       19.315        0.074      346.551       24.880      866.294
07/28/2014  08:36:00        1.713       34.609       23.743       34.336       35.184       20.626     1178.984     1237.907      425.422        0.230        0.142       34.651       21.830        0.397      347.138       25.892      866.286
07/28/2014  08:37:00       -9.983       28.476        4.125       25.176       28.287       25.536      633.842      800.179      652.063        0.151        0.104       30.176       20.827        0.476      346.857       25.406      866.293
07/28/2014  08:38:00      -20.547       68.053       -1.478       26.961       44.528       27.102      726.918     1982.754      734.515        0.425        0.172       71.087       23.674        0.111      346.802       25.313      866.308
07/28/2014  08:39:00       -6.159       27.048       19.719       19.867       29.683       26.982      394.688      881.068      728.053        0.158        0.100       27.740       16.772        0.366      347.258       26.097      866.314
07/28/2014  08:40:00      -12.271       73.789        4.849       27.916       52.242       27.627      779.288     2729.278      763.230        0.494        0.214       74.802       26.860        0.129      346.950       25.568      866.309
07/28/2014  08:41:00      -10.808       72.250       12.068       21.804       48.171       24.494      475.404     2320.451      599.969        0.444        0.170       73.053       29.367        0.162      347.096       25.818      866.307
07/28/2014  08:42:00       -0.154       62.573       -3.643       25.567       38.645       27.758      653.675     1493.410      770.513        0.342        0.146       62.573       22.671        0.131      347.001       25.654      866.312
07/28/2014  08:43:00       -0.756       53.509       -1.055       26.019       30.647       21.398      676.964      939.258      457.871        0.247        0.104       53.515       19.334        0.131      346.990       25.635      866.318
07/28/2014  08:44:00      -14.478       46.406       -0.590       17.932       35.101       20.731      321.560     1232.092      429.768        0.217        0.099       48.612       17.993        0.137      347.123       25.864      866.314
07/28/2014  08:45:00      -20.210       14.417       24.977       14.874       20.302       18.531      221.227      412.157      343.402        0.111        0.049       24.825       11.012        0.197      347.269       26.116      866.307
07/28/2014  08:46:00      -21.575        5.021        7.706       12.262        9.373       18.632      150.360       87.845      347.153        0.057        0.029       22.152       10.826        0.239      346.996       25.645      866.304
07/28/2014  08:47:00      -20.588      -25.630        6.745       23.278       28.855       13.140      541.885      832.618      172.664        0.134        0.077       32.875       11.299        0.118      346.805       25.317      866.308
07/28/2014  08:48:00       -8.950      -57.903       -1.566       10.733       14.415        9.534      115.206      207.796       90.900        0.192        0.021       58.591        4.596        0.006      346.426       24.665      866.296
07/28/2014  08:49:00       -4.106      -22.555       -9.561       14.103       20.999       14.772      198.883      440.966      218.202        0.074        0.043       22.926       11.934        0.271      346.710       25.154      866.296
07/28/2014  08:50:00      -24.090      -24.946        3.795       13.477       15.143       12.333      181.639      229.297      152.108        0.089        0.028       34.680        8.350        0.058      346.726       25.180      866.297
07/28/2014  08:51:00       -8.953       -5.290       19.053       17.699       11.155       18.031      313.245      124.426      325.103        0.062        0.038       10.399       14.779        2.020      347.881       27.174      866.295
07/28/2014  08:52:00      -61.540      -22.899       -6.904       39.051       26.561       15.496     1524.989      705.475      240.126        0.341        0.124       65.663        9.993        0.023      346.689       25.117      866.302
07/28/2014  08:53:00      -58.587      -11.415        7.192       38.451       27.438       19.361     1478.443      752.860      374.863        0.311        0.130       59.689       21.532        0.130      346.908       25.495      866.299
07/28/2014  08:54:00      -86.149      -11.643        1.372       32.295       33.609       25.027     1042.956     1129.576      626.359        0.518        0.140       86.932       20.936        0.058      346.751       25.224      866.296
07/28/2014  08:55:00      -41.803      -37.147        8.528       38.553       36.111       25.814     1486.341     1303.997      666.349        0.333        0.173       55.923       27.671        0.245      347.177       25.960      866.299
07/28/2014  08:56:00      -62.495      -14.361        4.774       42.504       34.160       22.630     1806.608     1166.901      512.117        0.381        0.174       64.124       18.218        0.081      346.786       25.285      866.298
07/28/2014  08:57:00     -105.163       24.262      -11.537       23.029       19.227       15.664      530.328      369.691      245.351        0.646        0.057      107.926        9.707        0.008      346.610       24.980      866.302
07/28/2014  08:58:00      -96.400       18.100       -6.169       34.338       25.296       18.364     1179.085      639.903      337.232        0.591        0.108       98.085       14.475        0.022      346.707       25.147      866.297
07/28/2014  08:59:00      -62.822       17.225       -6.934       34.912       23.108       27.597     1218.874      533.963      761.597        0.340        0.126       65.141       24.646        0.143      347.049       25.737      866.294
07/28/2014  09:00:00      -64.370       10.168       -1.854       23.805       20.821       19.244      566.670      433.526      370.344        0.281        0.069       65.168       15.495        0.057      346.945       25.559      866.289
07/28/2014  09:01:00       10.025      -13.357       30.215       24.979       19.352       17.772      623.974      374.518      315.833        0.125        0.066       16.700       12.871        0.594      347.525       26.558      866.271
07/28/2014  09:02:00       -9.984      -44.361        3.060       20.280       25.996       15.858      411.274      675.773      251.462        0.171        0.067       45.471        7.995        0.031      346.909       25.496      866.259
07/28/2014  09:03:00      -23.564       -2.753       -5.367       16.229       13.815       14.603      263.393      190.849      213.238        0.063        0.033       23.725        9.068        0.146      347.094       25.814      866.239
07/28/2014  09:04:00      -15.884       -6.911        3.067       17.836       17.728       12.549      318.123      314.284      157.477        0.055        0.039       17.322        3.975        0.053      347.119       25.858      866.232
07/28/2014  09:05:00      -26.005      -14.654       -7.569       16.228       14.880       10.989      263.335      221.415      120.759        0.078        0.030       29.850        5.192        0.030      347.123       25.864      866.214
07/28/2014  09:06:00      -22.934       -1.025      -10.043       12.558        6.957        8.628      157.708       48.400       74.447        0.045        0.014       22.957        7.542        0.108      347.141       25.896      866.202
07/28/2014  09:07:00       -6.689        4.087       40.078       10.337       11.108       11.186      106.864      123.377      125.134        0.101        0.018        7.839        5.863        0.559      348.669       28.535      866.191
07/28/2014  09:08:00       -5.709        8.189       40.409       14.199       28.930       18.251      201.612      836.951      333.094        0.155        0.069        9.983       13.222        1.754      348.054       27.470      866.177
07/28/2014  09:09:00      -11.818        9.928       37.922       10.834       24.313       20.751      117.382      591.125      430.613        0.141        0.057       15.434       12.462        0.652      348.233       27.781      866.158
07/28/2014  09:10:00       14.213       17.495       17.880       27.720       26.527       35.321      768.375      703.668     1247.570        0.177        0.136       22.540       21.979        0.951      347.925       27.249      866.160
07/28/2014  09:11:00       17.681       38.732       59.843       39.431       31.757       20.897     1554.825     1008.489      436.674        0.420        0.150       42.577       13.359        0.098      347.895       27.197      866.154
07/28/2014  09:12:00       21.730       29.404       25.535       35.774       35.213       22.310     1279.788     1239.970      497.746        0.250        0.151       36.562       16.388        0.201      347.602       26.692      866.154
07/28/2014  09:13:00       -7.914       18.333       58.390       18.335       33.680       15.519      336.175     1134.368      240.828        0.276        0.086       19.969       15.986        0.641      348.257       27.822      866.155
07/28/2014  09:14:00        0.638        6.192       41.120       17.319       18.671       16.227      299.941      348.621      263.322        0.132        0.046        6.225       10.678        2.943      348.227       27.770      866.143
07/28/2014  09:15:00       -5.952       34.034       60.990       18.542       30.601       23.897      343.818      936.434      571.065        0.338        0.093       34.551       20.313        0.346      348.244       27.799      866.145
07/28/2014  09:16:00       81.940       45.647       22.080       39.877       40.458       45.005     1590.151     1636.888     2025.421        0.727        0.263       93.796       40.973        0.191      347.152       25.914      866.143
07/28/2014  09:17:00      102.377       64.821       23.028       33.263       36.738       26.998     1106.400     1349.680      728.879        0.920        0.159      121.173       16.817        0.019      347.138       25.890      866.146
07/28/2014  09:18:00      125.166       70.095       -0.684       52.418       41.074       37.069     2747.631     1687.051     1374.126        1.319        0.290      143.457       17.908        0.016      347.247       26.079      866.139
07/28/2014  09:19:00      133.698       71.299       -4.066       33.737       36.794       31.018     1138.218     1353.762      962.107        1.321        0.173      151.521       17.622        0.014      347.249       26.082      866.132
07/28/2014  09:20:00       63.774       82.511       -2.457       40.571       39.572       29.647     1646.015     1565.979      878.941        0.749        0.205      104.284       27.502        0.070      347.288       26.150      866.131
07/28/2014  09:21:00       45.326       86.468        6.275       38.151       49.305       38.982     1455.462     2431.012     1519.601        0.749        0.270       97.628       32.116        0.108      347.394       26.330      866.128
07/28/2014  09:22:00       96.100       56.254        7.948       31.768       31.584       30.166     1009.193      997.537      910.010        0.769        0.146      111.354       18.938        0.029      347.393       26.331      866.137
07/28/2014  09:23:00       88.043       58.113        2.856       37.049       36.367       33.104     1372.604     1322.525     1095.882        0.746        0.190      105.492       25.478        0.058      347.443       26.414      866.146
07/28/2014  09:24:00       71.379       40.818       -3.417       22.708       16.364       17.365      515.651      267.771      301.548        0.393        0.054       82.226       10.910        0.018      347.206       26.006      866.148
07/28/2014  09:25:00       88.848       72.009       12.706       31.593       17.228       23.190      998.129      296.818      537.794        0.754        0.092      114.364       17.360        0.023      347.198       25.995      866.154
07/28/2014  09:26:00       60.939       76.226        9.025       31.491       34.246       29.839      991.655     1172.765      890.378        0.633        0.153       97.591       28.237        0.084      347.340       26.237      866.144
07/28/2014  09:27:00       39.215       20.383       11.777       38.839       36.944       27.976     1508.469     1364.847      782.675        0.287        0.183       44.196       21.248        0.231      347.733       26.915      866.138
07/28/2014  09:28:00       26.663       23.308       13.443       24.332       24.411       27.209      592.024      595.891      740.333        0.168        0.096       35.414       15.728        0.197      347.982       27.346      866.144
07/28/2014  09:29:00        1.526       33.059       64.239       27.201       32.402       25.200      739.880     1049.909      635.040        0.382        0.121       33.094       18.690        0.319      348.276       27.853      866.145
07/28/2014  09:30:00       31.856       20.228       47.302       35.394       53.642       23.353     1252.743     2877.413      545.355        0.417        0.234       37.735       18.232        0.233      347.971       27.328      866.144
07/28/2014  09:31:00       48.275       36.204       56.007       48.551       40.692       37.380     2357.197     1655.875     1397.268        0.609        0.271       60.343       26.559        0.194      347.924       27.247      866.149
07/28/2014  09:32:00       69.696       88.190       91.235       60.772       61.649       52.198     3693.252     3800.623     2724.661        1.559        0.511      112.405       46.630        0.172      347.629       26.737      866.140
07/28/2014  09:33:00       41.985       79.983       72.523       40.140       34.606       38.844     1611.212     1197.562     1508.865        0.887        0.216       90.332       32.144        0.127      347.535       26.574      866.154
07/28/2014  09:34:00       49.910       23.944       18.183       33.753       49.847       25.700     1139.235     2484.730      660.480        0.384        0.214       55.356       26.252        0.225      347.447       26.423      866.144
07/28/2014  09:35:00       31.568       38.435       23.187       34.437       35.986       25.150     1185.902     1295.000      632.530        0.306        0.156       49.737       12.314        0.061      347.824       27.074      866.143
07/28/2014  09:36:00       57.090       80.382       -3.046       32.037       45.859       33.239     1026.386     2103.010     1104.802        0.698        0.212       98.593       32.929        0.112      347.663       26.794      866.127
07/28/2014  09:37:00       81.510       56.513       18.730       32.945       34.504       31.802     1085.385     1190.544     1011.390        0.674        0.164       99.184       15.514        0.024      347.804       27.039      866.122
07/28/2014  09:38:00       78.542       54.283       31.826       43.727       39.193       41.050     1912.064     1536.117     1685.062        0.763        0.257       95.475       28.004        0.086      347.989       27.358      866.114
07/28/2014  09:39:00      113.877       72.366       31.594       48.397       33.439       44.881     2342.303     1118.154     2014.320        1.234        0.274      134.925       21.642        0.026      347.724       26.900      866.117
07/28/2014  09:40:00       86.399       58.561        7.012       37.642       32.371       25.174     1416.948     1047.851      633.732        0.702        0.155      104.375        2.134        0.000      347.568       26.631      866.111
07/28/2014  09:41:00       51.122       34.949       16.394       37.408       36.776       32.750     1399.354     1352.458     1072.549        0.396        0.191       61.927       16.298        0.069      347.949       27.289      866.106
07/28/2014  09:42:00       67.541       43.344       15.813       43.207       42.070       39.397     1866.880     1769.851     1552.155        0.594        0.259       80.252       14.023        0.031      347.868       27.149      866.095
07/28/2014  09:43:00       35.453       17.879       37.548       34.867       25.924       30.529     1215.727      672.036      931.992        0.290        0.141       39.706       17.482        0.194      348.000       27.378      866.096
07/28/2014  09:44:00       -8.719       19.750       50.306       12.227       30.932       27.802      149.494      956.793      772.934        0.244        0.094       21.589       24.487        1.286      348.586       28.391      866.088
07/28/2014  09:45:00      -17.840       24.522       73.739       18.560       28.663       21.748      344.483      821.589      472.959        0.400        0.082       30.325       17.839        0.346      348.443       28.142      866.074
07/28/2014  09:46:00       -7.483       14.504       51.383        9.343       27.259       23.566       87.300      743.070      555.351        0.215        0.069       16.320       23.039        1.993      348.351       27.982      866.068
07/28/2014  09:47:00      -27.488      -10.059       11.580       30.582       22.132       18.059      935.263      489.847      326.124        0.137        0.088       29.271       18.924        0.418      348.283       27.865      866.053
07/28/2014  09:48:00      -24.585      -26.154        3.744       18.406       23.682       15.988      338.787      560.818      255.631        0.123        0.058       35.895       10.337        0.083      348.080       27.516      866.050
07/28/2014  09:49:00      -17.498        4.323       26.829       19.781       27.147       22.667      391.296      736.975      513.803        0.134        0.082       18.024       16.986        0.888      348.643       28.489      866.035
07/28/2014  09:50:00       -0.420      -38.449        1.480       27.409       48.181       22.608      751.275     2321.380      511.134        0.253        0.179       38.451        7.405        0.037      348.089       27.530      866.033
07/28/2014  09:51:00       -9.319       -7.304       28.514       40.586       34.238       27.818     1647.263     1172.215      773.859        0.227        0.180       11.840       22.587        3.639      348.697       28.582      866.025
07/28/2014  09:52:00       34.947       49.882       71.207       42.038       52.945       38.954     1767.160     2803.194     1517.413        0.743        0.304       60.905       36.397        0.357      348.374       28.023      866.004
07/28/2014  09:53:00      -12.346      -63.095       17.455       42.376       58.817       33.777     1795.709     3459.394     1140.852        0.542        0.320       64.292       27.460        0.182      348.368       28.012      865.999
07/28/2014  09:54:00       -3.490      -74.409        9.229       45.319       47.830       39.574     2053.788     2287.742     1566.072        0.577        0.295       74.491       31.370        0.177      348.363       28.003      865.981
07/28/2014  09:55:00      -28.178      -19.429       25.039       47.754       28.728       28.055     2280.469      825.297      787.103        0.284        0.195       34.227       23.909        0.488      348.614       28.438      865.988
07/28/2014  09:56:00      -30.728      -27.647       15.044       35.637       42.754       31.572     1270.001     1827.944      996.767        0.301        0.205       41.334       22.494        0.296      348.381       28.037      865.984
07/28/2014  09:57:00      -28.187      -21.382        6.398       40.470       40.431       24.442     1637.797     1634.637      597.406        0.258        0.193       35.380       25.371        0.514      348.606       28.425      865.977
07/28/2014  09:58:00       -5.543      -88.958       -3.881       60.921       48.529       36.246     3711.333     2355.096     1313.776        0.767        0.369       89.131       11.027        0.015      348.221       27.759      865.960
07/28/2014  09:59:00        1.609      -47.324        5.211       48.880       49.191       35.157     2389.237     2419.738     1236.004        0.416        0.302       47.352       28.997        0.375      348.357       27.993      865.952
07/28/2014  10:00:00      -67.346      -32.729       13.471       76.843       46.721       31.037     5904.847     2182.881      963.270        0.742        0.453       74.877       38.181        0.260      348.351       27.984      865.933
07/28/2014  10:01:00      -79.811      -39.775       -6.019       33.392       24.738       17.358     1115.019      611.946      301.304        0.501        0.101       89.173       13.944        0.024      347.789       27.011      865.932
07/28/2014  10:02:00      -40.625      -37.567       14.330       69.199       39.542       27.217     4788.475     1563.558      740.761        0.518        0.355       55.332       32.434        0.344      348.517       28.271      865.923
07/28/2014  10:03:00       -7.727      -39.989        2.501       79.755       45.497       43.777     6360.820     2070.013     1916.414        0.600        0.517       40.728       26.328        0.418      348.241       27.793      865.924
07/28/2014  10:04:00       -4.075      -20.234        7.767       33.720       48.428       21.993     1137.025     2345.233      483.705        0.223        0.198       20.640       19.182        0.864      348.152       27.640      865.919
07/28/2014  10:05:00      -66.967      -77.165       -0.102       41.688       53.654       22.482     1737.849     2878.737      505.439        0.778        0.256      102.172       14.263        0.019      348.036       27.439      865.921
07/28/2014  10:06:00       21.816     -142.203       11.319       60.321       58.016       38.760     3638.595     3365.805     1502.340        1.466        0.425      143.867       35.013        0.059      348.340       27.964      865.904
07/28/2014  10:07:00       74.056       72.056       94.053       76.978       78.218       51.708     5925.544     6118.012     2673.753        1.712        0.736      103.327       51.682        0.250      348.516       28.269      865.909
07/28/2014  10:08:00       25.547       68.931       76.841       53.757       56.181       44.990     2889.856     3156.301     2024.090        0.969        0.404       73.513       30.945        0.177      348.574       28.369      865.904
07/28/2014  10:09:00       37.932       -6.062       22.467       71.393       53.750       33.917     5096.946     2889.112     1150.386        0.556        0.457       38.414       19.058        0.246      348.438       28.135      865.918
07/28/2014  10:10:00       92.755     -135.010       -6.111       49.026       52.643       41.985     2403.574     2771.262     1762.707        1.690        0.347      163.802       30.651        0.035      348.516       28.268      865.926
07/28/2014  10:11:00       52.507      -47.616       36.627       51.862      105.287       50.602     2689.669    11085.446     2560.528        1.135        0.817       70.882       67.579        0.909      348.447       28.149      865.936
07/28/2014  10:12:00       13.417       41.083       30.472       24.092       17.550       26.502      580.428      308.018      702.344        0.219        0.080       43.218       10.561        0.060      348.442       28.141      865.935
07/28/2014  10:13:00      -11.722        2.795       34.449       22.881       20.372       24.614      523.540      415.032      605.826        0.144        0.077       12.050       11.483        0.908      349.192       29.442      865.932
07/28/2014  10:14:00      -10.845       16.797       40.884       31.951       37.358       33.254     1020.868     1395.620     1105.839        0.280        0.176       19.993       29.584        2.189      348.926       28.978      865.935
07/28/2014  10:15:00       14.059       55.156       81.495       34.380       56.216       38.498     1181.999     3160.239     1482.102        0.785        0.291       56.920       41.239        0.525      348.767       28.703      865.926
07/28/2014  10:16:00       37.013       17.993       40.258       40.649       57.715       50.266     1652.340     3331.022     2526.706        0.541        0.376       41.154       39.472        0.920      348.737       28.653      865.926
07/28/2014  10:17:00       23.055       62.723       64.557       47.430       40.977       48.276     2249.610     1679.083     2330.607        0.745        0.313       66.826       31.793        0.226      348.697       28.583      865.913
07/28/2014  10:18:00       37.440       63.631       79.979       52.538       55.192       31.584     2760.249     3046.126      997.547        0.932        0.340       73.828       27.588        0.140      348.841       28.832      865.911
07/28/2014  10:19:00       17.307      -81.548       28.053       47.439      101.532       51.688     2250.441    10308.646     2671.654        1.148        0.762       83.364       52.162        0.392      348.828       28.809      865.901
07/28/2014  10:20:00       45.012      -91.246       37.189       66.467      113.127       77.226     4417.891    12797.783     5963.850        1.745        1.159      101.745       80.583        0.627      348.738       28.651      865.909
07/28/2014  10:21:00       53.271      -68.124       15.781       62.896       83.657       51.500     3955.954     6998.568     2652.218        1.066        0.680       86.479       60.604        0.491      348.827       28.807      865.916
07/28/2014  10:22:00       41.832       14.548       48.365       61.774       53.509       46.270     3815.993     2863.215     2140.933        0.656        0.441       44.289       37.842        0.730      348.996       29.100      865.910
07/28/2014  10:23:00      126.422     -120.849        4.949       73.043       86.472       49.651     5335.247     7477.367     2465.181        2.294        0.764      174.891       58.887        0.113      348.578       28.373      865.903
07/28/2014  10:24:00       81.610      -82.458      -22.152       56.697       86.627       35.474     3214.576     7504.196     1258.439        1.296        0.599      116.015       23.293        0.040      348.378       28.029      865.893
07/28/2014  10:25:00       22.115        4.203       41.631       42.515       33.402       29.921     1807.484     1115.712      895.258        0.303        0.191       22.511       18.953        0.709      349.183       29.424      865.891
07/28/2014  10:26:00        2.823       38.340       58.380       43.936       49.532       42.658     1930.373     2453.437     1819.722        0.554        0.310       38.444       34.285        0.795      349.048       29.189      865.884
07/28/2014  10:27:00       50.678        1.797       52.701       59.109       76.531       59.776     3493.839     5856.962     3573.137        0.913        0.646       50.710       54.293        1.146      348.975       29.064      865.882
07/28/2014  10:28:00      -12.966       16.447       45.611       25.559       39.679       27.239      653.245     1574.432      741.988        0.274        0.148       20.943       24.508        1.369      349.213       29.476      865.883
07/28/2014  10:29:00      -26.044       -2.921        3.934       23.017       10.416       14.873      529.797      108.503      221.203        0.078        0.043       26.207        9.369        0.128      348.891       28.919      865.868
07/28/2014  10:30:00       49.465      -32.664       28.596       52.658       92.363       45.304     2772.916     8530.842     2052.410        0.884        0.668       59.277       56.547        0.910      349.070       29.230      865.858
07/28/2014  10:31:00       23.338       18.595       48.883       44.143       71.461       41.461     1948.628     5106.612     1719.005        0.603        0.439       29.840       44.405        2.214      349.224       29.494      865.855
07/28/2014  10:32:00       96.706      -37.753       28.165       61.536       67.154       53.263     3786.633     4509.624     2836.976        1.135        0.557      103.814       52.230        0.253      348.927       28.980      865.849
07/28/2014  10:33:00      124.069      -75.356       14.145       87.354       74.965       53.066     7630.642     5619.792     2815.964        1.867        0.803      145.161       54.402        0.140      348.820       28.794      865.834
07/28/2014  10:34:00       55.177      -71.946       29.641       65.097       64.716       44.591     4237.681     4188.107     1988.351        0.975        0.521       90.668       45.114        0.248      348.841       28.831      865.837
07/28/2014  10:35:00       47.021       52.488       74.187       48.394       79.595       45.727     2341.958     6335.307     2090.926        1.062        0.538       70.470       43.039        0.373      348.903       28.940      865.839
07/28/2014  10:36:00       74.414       71.865       67.155       52.407       38.640       39.957     2746.490     1493.021     1596.543        1.052        0.292      103.450       33.594        0.105      348.616       28.442      865.837
07/28/2014  10:37:00       29.207       55.509       77.326       49.237       42.716       30.810     2424.330     1824.692      949.263        0.755        0.260       62.724       26.939        0.184      348.802       28.764      865.836
07/28/2014  10:38:00      100.447       67.546       22.393       24.322       27.325       34.025      591.571      746.642     1157.711        0.882        0.125      121.046        9.460        0.006      348.501       28.243      865.837
07/28/2014  10:39:00       69.276        4.059        0.620       47.870       53.474       31.625     2291.491     2859.486     1000.112        0.548        0.308       69.395       26.373        0.144      348.787       28.738      865.830
07/28/2014  10:40:00        8.654       -0.102       27.861       23.501       28.664       24.080      552.320      821.640      579.841        0.140        0.098        8.655       19.205        4.924      349.246       29.533      865.833
07/28/2014  10:41:00      -19.204      -35.261       -4.895       33.680       21.389       25.153     1134.343      457.503      632.685        0.193        0.111       40.151       23.449        0.341      348.613       28.438      865.830
07/28/2014  10:42:00      -63.712      -49.215        0.198       25.214       51.757       21.111      635.725     2678.757      445.671        0.512        0.188       80.507       16.268        0.041      348.412       28.087      865.821
07/28/2014  10:43:00      -29.690       -4.777        7.187       23.336       20.122       16.413      544.573      404.906      269.382        0.109        0.061       30.072       14.153        0.221      348.898       28.930      865.811
07/28/2014  10:44:00       -4.957      -74.075        0.991       41.375       45.416       24.081     1711.877     2062.584      579.889        0.493        0.218       74.241       14.590        0.039      348.864       28.872      865.809
07/28/2014  10:45:00      -12.492      -10.718       22.325       30.220       30.484       28.105      913.219      929.271      789.904        0.170        0.132       16.459       23.219        1.990      349.531       30.029      865.807
07/28/2014  10:46:00        4.638       26.463       52.281       23.248       38.123       25.988      540.449     1453.361      675.395        0.306        0.133       26.866       13.747        0.262      349.609       30.163      865.799
07/28/2014  10:47:00        8.956      -15.511       28.635       47.491       60.193       46.067     2255.382     3623.219     2122.158        0.457        0.400       17.911       40.765        5.180      349.473       29.927      865.797
07/28/2014  10:48:00       41.425      -66.201       15.371       93.499       59.258       50.151     8742.074     3511.474     2515.098        1.055        0.738       78.093       49.232        0.397      349.198       29.450      865.797
07/28/2014  10:49:00      -25.518      -20.188       26.251       28.330       34.391       24.140      802.569     1182.714      582.735        0.216        0.128       32.538       23.770        0.534      349.345       29.705      865.806
07/28/2014  10:50:00       -9.049       16.029       15.607       34.313       29.667       29.394     1177.381      880.128      864.005        0.175        0.146       18.407       22.995        1.561      349.242       29.527      865.808
07/28/2014  10:51:00      -22.660       -2.134        6.162       31.619       36.385       30.773      999.747     1323.847      946.981        0.191        0.164       22.760       23.921        1.105      349.376       29.758      865.811
07/28/2014  10:52:00        5.908        5.517       22.967       27.884       23.812       24.054      777.509      567.017      578.571        0.126        0.096        8.083       13.856        2.938      349.925       30.711      865.809
07/28/2014  10:53:00       49.185      -86.589       11.887       63.584      119.568       51.070     4042.935    14296.576     2608.194        1.550        1.047       99.583       61.020        0.375      349.555       30.069      865.809
07/28/2014  10:54:00       80.644      -21.110       27.345       79.335      111.420       59.698     6294.002    12414.406     3563.839        1.498        1.114       83.361       70.101        0.707      349.268       29.570      865.800
07/28/2014  10:55:00       96.727     -162.386      -25.038       85.473       91.032       48.329     7305.699     8286.776     2335.711        2.714        0.896      189.012       61.947        0.107      349.091       29.262      865.788
07/28/2014  10:56:00      115.328     -123.921      -28.523       67.811       85.493       47.081     4598.364     7309.138     2216.630        2.179        0.706      169.284       60.636        0.128      348.994       29.095      865.793
07/28/2014  10:57:00       22.406      -24.629       -3.686       28.249       61.880       38.595      797.994     3829.153     1489.541        0.362        0.306       33.296       35.005        1.105      349.116       29.308      865.791
07/28/2014  10:58:00       -3.982      -68.034       13.093       51.042       54.801       33.930     2605.316     3003.153     1151.254        0.579        0.338       68.151       32.784        0.231      349.056       29.204      865.791
07/28/2014  10:59:00      -16.111      -25.301       29.531       27.251       67.763       33.659      742.639     4591.806     1132.961        0.412        0.323       29.995       37.445        1.558      349.139       29.349      865.791
07/28/2014  11:00:00      131.438       80.196       27.098       86.206       50.900       49.872     7431.419     2590.763     2487.209        1.847        0.625      153.972       39.292        0.065      349.154       29.372      865.794
07/28/2014  11:01:00       60.738       73.665        5.831       61.009       49.306       35.312     3722.134     2431.123     1246.935        0.827        0.370       95.476       25.460        0.071      349.241       29.525      865.777
07/28/2014  11:02:00       23.685       40.681       10.507       37.057       39.892       28.354     1373.247     1591.364      803.949        0.305        0.188       47.074       17.418        0.137      349.754       30.415      865.771
07/28/2014  11:03:00      106.285       63.784       51.521       77.081       63.045       54.500     5941.550     3974.669     2970.278        1.545        0.644      123.955       33.803        0.074      349.643       30.222      865.762
07/28/2014  11:04:00       36.953       64.897       55.004       46.737       67.870       61.583     2184.309     4606.387     3792.440        0.959        0.529       74.680       49.856        0.446      349.441       29.872      865.777
07/28/2014  11:05:00       33.233       36.345       31.793       32.364       29.407       37.146     1047.452      864.799     1379.847        0.336        0.165       49.248       12.942        0.069      349.621       30.183      865.777
07/28/2014  11:06:00       76.542       39.373       30.896       42.021       40.804       31.727     1765.757     1664.992     1006.587        0.640        0.222       86.075       22.228        0.067      349.433       29.857      865.779
07/28/2014  11:07:00      -17.960       -4.750       20.201       32.743       34.994       35.097     1072.129     1224.559     1231.766        0.214        0.176       18.577       32.266        3.017      349.419       29.833      865.761
07/28/2014  11:08:00       13.346      -14.030       21.426       25.553       40.714       29.445      652.933     1657.655      867.014        0.201        0.159       19.364       25.452        1.728      349.579       30.111      865.756
07/28/2014  11:09:00       33.032        6.553       53.620       41.221       53.355       36.511     1699.198     2846.755     1333.020        0.494        0.294       33.675       38.879        1.333      349.962       30.775      865.756
07/28/2014  11:10:00       32.662      -32.746       41.570       55.574       62.755       46.105     3088.483     3938.223     2125.663        0.651        0.458       46.251       42.018        0.825      349.845       30.574      865.737
07/28/2014  11:11:00       87.207      -51.623       35.232       60.995       79.891       55.579     3720.426     6382.572     3089.063        1.235        0.660      101.341       57.864        0.326      349.732       30.376      865.727
07/28/2014  11:12:00       64.302      -87.371       -2.136       40.665       55.131       35.227     1653.668     3039.412     1240.951        0.885        0.297      108.482       34.887        0.103      349.457       29.901      865.729
07/28/2014  11:13:00       21.376      -62.957       37.589       42.451       72.122       48.018     1802.066     5201.608     2305.758        0.757        0.465       66.487       43.907        0.436      349.829       30.543      865.721
07/28/2014  11:14:00       29.078      -79.537       24.122       48.952       74.766       46.643     2396.338     5590.004     2175.592        0.896        0.508       84.686       50.123        0.350      349.684       30.294      865.723
07/28/2014  11:15:00       31.164       62.114       79.513       54.055       40.685       35.330     2921.904     1655.278     1248.241        0.849        0.291       69.494       37.137        0.286      349.465       29.913      865.722
07/28/2014  11:16:00       66.632       67.366       34.411       28.301       30.244       43.650      800.954      914.709     1905.293        0.689        0.181       94.752       21.832        0.053      349.214       29.477      865.726
07/28/2014  11:17:00       22.258      -13.147       19.978       40.118       46.763       30.962     1609.444     2186.785      958.650        0.291        0.238       25.851       33.415        1.671      349.568       30.093      865.717
07/28/2014  11:18:00       79.740        6.809       49.175       53.426       29.260       39.399     2854.301      856.163     1552.274        0.704        0.263       80.030       22.169        0.077      349.461       29.906      865.732
07/28/2014  11:19:00       30.154       16.316       43.818       38.061       33.245       30.863     1448.659     1105.251      952.495        0.330        0.175       34.285       27.017        0.621      349.695       30.313      865.726
07/28/2014  11:20:00       36.041       -7.060       30.449       35.814       28.559       18.249     1282.640      815.626      333.014        0.235        0.122       36.726        9.375        0.065      349.473       29.927      865.720
07/28/2014  11:21:00       -9.647       -9.610       17.717       19.111       21.946       24.673      365.215      481.609      608.775        0.098        0.073       13.617       21.073        2.395      349.949       30.755      865.694
07/28/2014  11:22:00        4.666       52.393       26.118       38.526       51.665       35.627     1484.289     2669.260     1269.288        0.443        0.271       52.601       25.472        0.235      350.294       31.354      865.687
07/28/2014  11:23:00       42.326       58.850       19.308       45.320       49.144       37.880     2053.934     2415.102     1434.860        0.576        0.295       72.490       39.765        0.301      349.924       30.710      865.687
07/28/2014  11:24:00      -26.396        7.910      -14.112       18.931       24.911       20.858      358.400      620.553      435.062        0.119        0.071       27.556       16.971        0.379      349.367       29.744      865.691
07/28/2014  11:25:00      -92.455       24.882       -7.401       36.725       21.352       17.547     1348.718      455.908      307.911        0.567        0.106       95.744       11.325        0.014      349.141       29.352      865.680
07/28/2014  11:26:00      -78.364       63.095       -6.996       49.277       50.889       26.115     2428.203     2589.661      682.010        0.793        0.285      100.608       24.457        0.059      349.536       30.038      865.675
07/28/2014  11:27:00      -83.498       38.805      -14.243       34.696       46.640       25.696     1203.840     2175.327      660.274        0.636        0.202       92.074       18.138        0.039      349.302       29.630      865.667
07/28/2014  11:28:00       13.592       28.408       28.617       43.865       32.632       27.906     1924.114     1064.856      778.724        0.279        0.188       31.492       27.910        0.785      350.167       31.131      865.649
07/28/2014  11:29:00       33.635       30.992       21.021       41.040       31.658       33.153     1684.277     1002.206     1099.101        0.316        0.189       45.737       28.783        0.396      350.179       31.152      865.639
07/28/2014  11:30:00       28.742       81.928       -6.833       35.768       33.749       31.817     1279.327     1138.982     1012.337        0.551        0.172       86.824       25.021        0.083      349.641       30.220      865.632
07/28/2014  11:31:00      -27.966       46.705        4.265       19.098       26.295       24.654      364.747      691.453      607.819        0.232        0.083       54.437       16.058        0.087      350.117       31.044      865.620
07/28/2014  11:32:00      -46.835       23.924       -3.180       32.142       24.493       29.677     1033.139      599.924      880.735        0.264        0.126       52.592       24.646        0.220      349.946       30.747      865.613
07/28/2014  11:33:00       26.684       -1.345       -9.898       25.288       22.289       29.715      639.495      496.794      882.992        0.142        0.101       26.718       11.517        0.186      349.798       30.491      865.609
07/28/2014  11:34:00      -20.100        9.058       11.989       18.193       15.153       20.110      330.989      229.620      404.396        0.080        0.048       22.047        7.561        0.118      349.919       30.702      865.586
07/28/2014  11:35:00       27.524       34.280        8.165       34.279       25.931       24.421     1175.037      672.434      596.370        0.222        0.122       43.962       13.642        0.096      350.236       31.252      865.577
07/28/2014  11:36:00       21.638       98.088        8.749       31.875       71.896       38.367     1016.012     5168.998     1471.994        0.891        0.383      100.446       43.084        0.184      349.921       30.704      865.563
07/28/2014  11:37:00      -32.181       62.215        8.097       39.117       45.520       33.579     1530.161     2072.054     1127.576        0.485        0.236       70.045       24.294        0.120      350.038       30.907      865.554
07/28/2014  11:38:00      -17.068       15.112        8.954       28.022       23.102       15.871      785.208      533.721      251.880        0.109        0.079       22.796        9.950        0.190      350.245       31.268      865.536
07/28/2014  11:39:00      -24.269      -16.448       17.522       45.670       27.441       25.743     2085.708      753.033      662.718        0.233        0.175       29.317       29.301        0.999      350.194       31.180      865.529
07/28/2014  11:40:00        2.794       27.905       62.509       23.893       28.686       18.612      570.857      822.863      346.413        0.322        0.087       28.044       17.957        0.410      350.573       31.837      865.526
07/28/2014  11:41:00       52.290       42.524       19.034       40.311       30.667       38.731     1624.943      940.472     1500.077        0.448        0.203       67.398       31.585        0.220      349.809       30.511      865.529
07/28/2014  11:42:00       92.191      -65.584       14.216       46.668       43.478       35.359     2177.859     1890.378     1250.267        0.916        0.266      113.139       25.602        0.051      349.827       30.541      865.521
07/28/2014  11:43:00       12.343        6.602       51.112       30.622       63.807       34.228      937.724     4071.380     1171.576        0.449        0.309       13.997       39.927        8.136      350.247       31.272      865.497
07/28/2014  11:44:00       21.864      -96.210      -14.746       79.695       75.863       33.701     6351.262     5755.198     1135.742        1.159        0.662       98.663       41.106        0.174      349.934       30.725      865.491
07/28/2014  11:45:00       27.048      -67.697       17.512       44.391       85.945       38.348     1970.603     7386.528     1470.548        0.822        0.541       72.900       45.709        0.393      350.359       31.466      865.477
07/28/2014  11:46:00       34.697      -70.781      -14.157       32.421       58.589       32.260     1051.118     3432.653     1040.700        0.597        0.276       78.828       30.873        0.153      349.825       30.539      865.476
07/28/2014  11:47:00       39.644       29.007       39.826       34.136       33.710       24.803     1165.255     1136.395      615.208        0.346        0.146       49.122       22.231        0.205      350.447       31.621      865.463
07/28/2014  11:48:00       66.418       59.473        4.322       57.546       30.740       37.084     3311.501      944.963     1375.218        0.680        0.282       89.154       25.145        0.080      350.019       30.875      865.463
07/28/2014  11:49:00      101.132       37.619       -3.333       53.896       63.127       38.890     2904.780     3985.069     1512.423        1.003        0.420      107.902       11.992        0.012      350.227       31.237      865.449
07/28/2014  11:50:00        5.750       34.663        8.472       39.411       91.509       37.641     1553.241     8373.819     1416.861        0.632        0.567       35.137       40.102        1.303      350.493       31.699      865.446
07/28/2014  11:51:00        3.930       94.932        4.684       28.772       71.424       39.448      827.834     5101.397     1556.145        0.827        0.374       95.013       44.912        0.223      350.476       31.669      865.432
07/28/2014  11:52:00       46.755       37.670       16.364       44.998       39.089       31.493     2024.801     1527.943      991.794        0.421        0.227       60.042       18.476        0.095      350.343       31.438      865.437
07/28/2014  11:53:00        0.552       17.744       31.618       25.586       42.233       25.766      654.647     1783.618      663.877        0.221        0.155       17.753        8.535        0.231      350.745       32.138      865.425
07/28/2014  11:54:00        3.918       -9.092       12.675       37.528       42.589       36.345     1408.368     1813.837     1320.978        0.240        0.227        9.901       31.640       10.213      350.145       31.095      865.421
07/28/2014  11:55:00       72.920        9.394       23.071       33.118       34.794       35.693     1096.831     1210.636     1273.957        0.476        0.179       73.523       27.949        0.145      349.846       30.574      865.413
07/28/2014  11:56:00      -20.034      -20.546       14.795       36.080       37.083       28.921     1301.755     1375.141      836.434        0.228        0.176       28.697       25.160        0.769      350.460       31.641      865.409
07/28/2014  11:57:00      -19.126      -22.280       30.156       51.471       49.344       23.067     2649.261     2434.821      532.097        0.369        0.281       29.363       24.300        0.685      350.332       31.417      865.406
07/28/2014  11:58:00       35.954       26.614        7.598       25.634       22.567       26.253      657.107      509.287      689.199        0.196        0.093       44.733        9.975        0.050      349.761       30.427      865.416
07/28/2014  11:59:00        2.041       52.795        2.687       29.251       35.833       22.236      855.634     1284.028      494.422        0.272        0.132       52.834       11.179        0.045      350.293       31.351      865.404
07/28/2014  12:00:00      -17.955       60.281        7.913       21.823       29.700       25.396      476.255      882.103      644.932        0.301        0.100       62.898       17.766        0.080      350.257       31.288      865.409
07/28/2014  12:01:00      -32.938       34.875      -21.189       26.596       56.582       22.803      707.368     3201.508      519.984        0.359        0.221       47.971        6.838        0.020      350.080       30.979      865.399
07/28/2014  12:02:00        1.798       50.056        5.020       23.370       38.975       30.188      546.151     1519.040      911.302        0.275        0.149       50.088       21.001        0.176      350.562       31.818      865.389
07/28/2014  12:03:00       23.219       25.733       24.696       31.877       27.896       29.597     1016.126      778.163      875.977        0.224        0.134       34.660       25.563        0.544      350.916       32.437      865.374
07/28/2014  12:04:00       31.386       39.516       37.501       40.747       43.016       40.598     1660.279     1850.401     1648.225        0.455        0.258       50.464       24.213        0.230      350.424       31.578      865.364
07/28/2014  12:05:00      -14.681      -18.538       15.709       24.405       28.007       25.042      595.583      784.386      627.079        0.141        0.100       23.647       14.975        0.401      350.530       31.763      865.359
07/28/2014  12:06:00      -34.431      -27.626       13.618       58.611       49.018       39.470     3435.259     2402.794     1557.854        0.476        0.370       44.144       35.800        0.658      350.367       31.479      865.339
07/28/2014  12:07:00      -33.284      -57.180       44.083       41.192       66.858       35.716     1696.799     4470.031     1275.659        0.688        0.372       66.162       40.856        0.381      350.230       31.241      865.331
07/28/2014  12:08:00        9.958       16.686       72.185       43.697       56.566       52.117     1909.398     3199.676     2716.213        0.671        0.391       19.431       49.164        6.402      350.439       31.605      865.315
07/28/2014  12:09:00       35.769       28.436       40.862       40.397       29.736       26.541     1631.952      884.203      704.410        0.349        0.161       45.694       12.457        0.074      350.536       31.773      865.313
07/28/2014  12:10:00       31.956       62.722       15.180       47.078       29.370       33.239     2216.334      862.573     1104.805        0.468        0.209       70.394       23.945        0.116      350.698       32.054      865.300
07/28/2014  12:11:00       65.668       38.942       13.793       35.321       21.082       29.056     1247.588      444.434      844.276        0.428        0.127       76.346       17.335        0.052      350.509       31.728      865.301
07/28/2014  12:12:00       22.694       46.222       39.313       41.353       35.907       34.641     1710.055     1289.338     1200.025        0.420        0.210       51.493       22.047        0.183      350.767       32.175      865.290
07/28/2014  12:13:00       -5.573        0.492       29.373       17.962       29.576       19.643      322.625      874.763      385.836        0.124        0.079        5.595        5.897        1.111      351.130       32.808      865.277
07/28/2014  12:14:00       10.925      -72.103       -2.336       24.156       47.488       19.400      583.515     2255.121      376.364        0.427        0.161       72.926       13.947        0.037      350.298       31.360      865.274
07/28/2014  12:15:00      -37.150      -20.081       28.424       39.177       52.662       27.391     1534.861     2773.254      750.272        0.382        0.253       42.230       23.704        0.315      350.930       32.459      865.237
07/28/2014  12:16:00      -94.959     -130.960        2.866       56.191       75.630       30.706     3157.443     5719.871      942.834        1.800        0.491      161.765       30.269        0.035      350.349       31.447      865.229
07/28/2014  12:17:00      -29.067      -43.174       14.889       86.865       41.447       39.177     7545.509     1717.862     1534.873        0.686        0.540       52.047       26.031        0.250      350.578       31.847      865.209
07/28/2014  12:18:00      -42.982      -85.741       -9.981       37.780       50.046       25.482     1427.342     2504.633      649.310        0.694        0.229       95.912       26.045        0.074      350.137       31.081      865.211
07/28/2014  12:19:00        6.845      -59.067        4.922       79.031       91.588       36.436     6245.942     8388.309     1327.616        0.976        0.798       59.463       44.149        0.551      350.525       31.752      865.204
07/28/2014  12:20:00       90.264      -90.620       -0.013       77.368      101.883       70.510     5985.772    10380.242     4971.595        1.884        1.067      127.905       72.276        0.319      350.804       32.239      865.190
07/28/2014  12:21:00       47.271      -88.859       27.260       74.994      124.246       72.861     5624.127    15437.009     5308.756        1.862        1.318      100.651       85.076        0.714      350.806       32.243      865.187
07/28/2014  12:22:00       98.118     -214.179      -23.774       59.412       62.633       35.151     3529.736     3922.954     1235.607        3.237        0.434      235.584       25.043        0.011      350.172       31.136      865.182
07/28/2014  12:23:00       93.272     -128.187      -19.895       45.471       48.011       34.438     2067.637     2305.024     1185.981        1.554        0.278      158.529       28.646        0.033      350.336       31.425      865.191
07/28/2014  12:24:00       56.807      -77.259       22.793       52.425       66.976       40.757     2748.405     4485.751     1661.110        0.930        0.445       95.896       36.733        0.147      350.794       32.223      865.172
07/28/2014  12:25:00       14.761     -106.359       13.165       50.207       77.201       34.522     2520.771     5959.990     1191.755        1.069        0.484      107.379       29.449        0.075      350.742       32.133      865.171
07/28/2014  12:26:00       49.913      -79.709       22.385       61.029       95.582       53.659     3724.560     9135.989     2879.243        1.254        0.787       94.047       50.564        0.289      350.646       31.966      865.157
07/28/2014  12:27:00       51.460        3.149       45.101       64.155       92.097       58.477     4115.894     8481.849     3419.579        1.035        0.801       51.556       65.286        1.604      350.681       32.025      865.152
07/28/2014  12:28:00       41.538      -96.476       13.413       90.030       62.236       40.244     8105.356     3873.313     1619.591        1.240        0.680      105.038       16.585        0.025      350.585       31.858      865.147
07/28/2014  12:29:00      -31.158     -119.001       -9.388       53.760       49.288       39.215     2890.153     2429.326     1537.827        1.104        0.343      123.013       12.002        0.010      350.676       32.015      865.131
07/28/2014  12:30:00      -43.551      -37.405       20.718       59.039       89.052       46.986     3485.551     7930.199     2207.642        0.867        0.681       57.410       47.551        0.686      350.644       31.962      865.134
07/28/2014  12:31:00      -27.213       67.163       -8.056       60.649       71.909       39.879     3678.319     5170.910     1590.363        0.788        0.522       72.467       37.491        0.268      350.541       31.782      865.128
07/28/2014  12:32:00       42.141       41.618       30.310       38.312       43.652       45.596     1467.776     1905.463     2078.970        0.494        0.273       59.228       17.329        0.086      350.756       32.158      865.104
07/28/2014  12:33:00        8.268      -21.389       -5.255       47.826       36.696       36.247     2287.280     1346.573     1313.861        0.275        0.247       22.932       23.895        1.086      350.718       32.091      865.099
07/28/2014  12:34:00       14.652       40.954       64.335       37.105       46.398       43.585     1376.751     2152.766     1899.627        0.573        0.271       43.496       30.947        0.506      351.122       32.793      865.069
07/28/2014  12:35:00       32.598     -126.520        3.384       72.119       94.563       48.175     5201.079     8942.105     2320.853        1.677        0.823      130.652       50.863        0.152      350.825       32.275      865.046
07/28/2014  12:36:00       54.828     -111.595      -22.371       64.191       73.179       55.735     4120.483     5355.152     3106.339        1.427        0.629      124.336       52.584        0.179      350.906       32.417      865.039
07/28/2014  12:37:00       73.882     -100.396       -9.126       58.177       62.605       42.097     3384.621     3919.325     1772.125        1.235        0.454      124.651       41.033        0.108      350.677       32.021      865.015
07/28/2014  12:38:00       14.768      -45.900       24.473       40.358       49.118       42.668     1628.768     2412.586     1820.544        0.439        0.293       48.217       38.392        0.634      350.867       32.350      865.003
07/28/2014  12:39:00       16.876       -9.112       28.181       37.165       53.388       27.349     1381.236     2850.259      747.951        0.307        0.249       19.179       29.605        2.383      350.848       32.316      864.992
07/28/2014  12:40:00       73.895       60.264       21.291      108.025       60.104       60.681    11669.399     3612.432     3682.125        1.425        0.948       95.353       39.533        0.172      350.801       32.233      864.980
07/28/2014  12:41:00      174.970      107.871       30.475      104.520       67.905       53.381    10924.462     4611.116     2849.506        3.078        0.919      205.549       29.378        0.020      350.826       32.275      864.960
07/28/2014  12:42:00      240.922       56.035       48.692       92.478      136.612       71.121     8552.105    18662.934     5058.226        4.791        1.614      247.353       59.935        0.059      350.528       31.757      864.930
07/28/2014  12:43:00      116.530       54.365       77.617       88.779       99.958       60.541     7881.694     9991.610     3665.173        2.204        1.077      128.588       48.603        0.143      350.930       32.458      864.919
07/28/2014  12:44:00       51.079      -24.143       45.219       72.751       68.744       45.103     5292.701     4725.782     2034.256        0.864        0.603       56.498       40.414        0.512      350.860       32.338      864.914
07/28/2014  12:45:00       47.133       66.747       63.105       55.342       48.436       39.685     3062.728     2346.091     1574.913        0.882        0.349       81.711       15.526        0.036      351.103       32.759      864.893
07/28/2014  12:46:00       72.809      103.222        8.346       83.134       60.717       49.817     6911.216     3686.587     2481.765        1.455        0.654      126.316       42.436        0.113      350.967       32.524      864.899
07/28/2014  12:47:00       30.327      122.161       -0.588       42.103       70.710       46.475     1772.647     4999.959     2159.954        1.239        0.447      125.869       44.028        0.122      351.179       32.892      864.901
07/28/2014  12:48:00       76.202       56.513        0.844       67.142       45.469       37.224     4508.036     2067.418     1385.646        0.848        0.398       94.870       26.104        0.076      351.071       32.705      864.903
07/28/2014  12:49:00       86.752       80.834       15.299       74.259       47.179       36.632     5514.388     2225.856     1341.909        1.169        0.454      118.575       18.915        0.025      351.123       32.795      864.899
07/28/2014  12:50:00       63.490      123.828       12.933       58.774      100.586       46.244     3454.345    10117.521     2138.476        1.762        0.786      139.156       53.506        0.148      351.007       32.593      864.888
07/28/2014  12:51:00      -16.386      290.591      -33.491       32.552       66.126       25.890     1059.639     4372.627      670.315        4.597        0.305      291.052       27.210        0.009      350.332       31.415      864.890
07/28/2014  12:52:00       40.947      178.537      -16.213       51.842       69.067       44.162     2687.555     4770.254     1950.239        2.161        0.470      183.172       41.329        0.051      350.800       32.231      864.897
07/28/2014  12:53:00      195.314      131.681       43.898       41.905       36.270       48.111     1756.013     1315.481     2314.713        3.140        0.269      235.558       15.649        0.004      350.454       31.626      864.892
07/28/2014  12:54:00       85.179       65.839       24.183       56.068       38.772       31.883     3143.620     1503.243     1016.501        0.892        0.283      107.658       35.360        0.108      350.505       31.718      864.902
07/28/2014  12:55:00       14.418      -29.068       20.819       40.809       48.732       28.518     1665.398     2374.844      813.260        0.317        0.243       32.448       24.762        0.582      350.807       32.244      864.873
07/28/2014  12:56:00       36.661       41.200       30.180       27.262       28.888       34.947      743.209      834.538     1221.270        0.338        0.140       55.150       17.734        0.103      350.764       32.170      864.853
07/28/2014  12:57:00       56.086       47.484       39.523       56.787       51.196       34.578     3224.815     2621.011     1195.651        0.700        0.352       73.487       31.439        0.183      350.973       32.534      864.838
07/28/2014  12:58:00       60.252      126.727      135.127       70.382       77.908       61.137     4953.681     6069.647     3737.727        2.635        0.738      140.321       56.540        0.162      350.727       32.105      864.811
07/28/2014  12:59:00       84.239      -24.597       69.409      102.658      167.677       75.029    10538.652    28115.629     5629.379        2.839        2.214       87.756      103.307        1.386      350.585       31.858      864.785
07/28/2014  13:00:00       89.209      -35.239       21.488      110.986       92.626       56.065    12317.792     8579.563     3143.331        1.685        1.202       95.916       46.177        0.232      350.730       32.111      864.799
07/28/2014  13:01:00       47.606      -13.726       34.763       48.526       50.959       38.035     2354.802     2596.844     1446.641        0.503        0.320       49.545       33.919        0.469      350.917       32.438      864.733
07/28/2014  13:02:00       19.575      -17.528       26.864       40.201       74.035       44.818     1616.091     5481.159     2008.616        0.526        0.455       26.276       42.816        2.655      351.113       32.779      864.706
07/28/2014  13:03:00       37.037       83.899       10.731       56.101       40.119       34.461     3147.307     1609.531     1187.589        0.723        0.297       91.710       26.250        0.082      350.996       32.573      864.729
07/28/2014  13:04:00       12.385      268.704      -26.916       64.388       86.141       54.550     4145.871     7420.197     2975.746        4.381        0.727      268.989       41.827        0.024      350.831       32.283      864.742
07/28/2014  13:05:00      -17.737      283.524      -27.711      105.172      127.870       78.580    11061.115    16350.668     6174.770        5.752        1.679      284.078       82.814        0.085      351.202       32.931      864.710
07/28/2014  13:06:00     -182.793      214.279      -46.030       97.174       93.020       54.685     9442.773     8652.644     2990.442        5.126        1.054      281.653       62.538        0.049      350.889       32.385      864.752
07/28/2014  13:07:00        9.231       38.097       17.969       66.303       78.562       43.027     4396.126     6171.946     1851.340        0.714        0.621       39.199       38.247        0.952      351.456       33.376      864.737
07/28/2014  13:08:00        0.219      -12.616       13.134       32.845       35.533       30.141     1078.778     1262.565      908.464        0.179        0.162       12.618       27.546        4.766      351.602       33.632      864.699
07/28/2014  13:09:00      -14.990       39.425       57.266       22.398       34.873       26.757      501.673     1216.107      715.933        0.375        0.122       42.178       18.711        0.197      351.625       33.670      864.667
07/28/2014  13:10:00       44.716       71.769       46.894       43.445       36.449       38.169     1887.463     1328.523     1456.852        0.701        0.234       84.559        6.602        0.006      351.272       33.055      864.651
07/28/2014  13:11:00      -72.661        8.351        4.244       51.709       36.588       30.867     2673.846     1338.661      952.741        0.517        0.248       73.139       31.717        0.188      351.456       33.376      864.644
07/28/2014  13:12:00     -182.133      -51.444       -3.101       91.776       58.682       34.450     8422.882     3443.526     1186.792        2.444        0.653      189.259       11.634        0.004      350.925       32.447      864.627
07/28/2014  13:13:00     -226.215      -44.846       -5.269       62.259       42.739       26.667     3876.139     1826.595      711.148        2.981        0.321      230.618       25.489        0.012      350.709       32.071      864.618
07/28/2014  13:14:00     -124.292      -41.329       -4.629       87.108       43.923       28.757     7587.717     1929.255      826.979        1.376        0.517      130.983       32.944        0.063      350.936       32.469      864.610
07/28/2014  13:15:00     -107.061       10.657        1.530      100.539       37.279       35.872    10108.185     1389.688     1286.834        1.218        0.639      107.590       52.258        0.236      351.225       32.974      864.596
07/28/2014  13:16:00      -89.757        6.249       -4.165       44.303       18.721       24.392     1962.747      350.477      594.976        0.551        0.145       89.974       23.826        0.070      350.903       32.412      864.588
07/28/2014  13:17:00      -21.974      -11.559        2.069       54.451       29.586       22.392     2964.917      875.305      501.422        0.248        0.217       24.829       22.935        0.853      351.050       32.668      864.580
07/28/2014  13:18:00       17.759       70.657       -9.645       53.412       39.977       31.287     2852.857     1598.192      978.897        0.541        0.271       72.855       13.531        0.034      351.006       32.592      864.571
07/28/2014  13:19:00       -2.897      145.326       -9.047       56.351       75.405       43.328     3175.482     5685.855     1877.345        1.597        0.537      145.355       41.797        0.083      351.122       32.793      864.563
07/28/2014  13:20:00      -13.280       87.311       10.538       33.473       54.084       36.127     1120.452     2925.074     1305.141        0.663        0.268       88.315       33.323        0.142      351.626       33.673      864.542
07/28/2014  13:21:00      -89.851      165.671      -12.469       62.373       93.713       40.566     3890.381     8782.114     1645.622        2.499        0.716      188.468       36.452        0.037      351.171       32.878      864.540
07/28/2014  13:22:00     -188.279       37.477      -20.121       40.661       35.845       32.371     1653.289     1284.896     1047.912        2.062        0.199      191.972       20.946        0.012      350.759       32.159      864.516
07/28/2014  13:23:00      -52.290      -11.294      -15.680       72.732       47.684       18.322     5289.938     2273.746      335.703        0.550        0.395       53.496        9.524        0.032      350.625       31.928      864.502
07/28/2014  13:24:00       31.144      -41.136       10.825       19.808       25.030       21.098      392.363      626.501      445.145        0.212        0.073       51.596       13.267        0.066      350.862       32.341      864.462
07/28/2014  13:25:00       10.867      -36.655       17.044       40.245       38.460       23.474     1619.624     1479.188      551.028        0.270        0.182       38.232       25.375        0.441      351.101       32.757      864.433
07/28/2014  13:26:00       14.297       -9.036       19.298       29.677       40.504       27.889      880.728     1640.561      777.814        0.198        0.165       16.913       14.421        0.727      351.259       33.034      864.410
07/28/2014  13:27:00       21.143       18.026       46.085       32.412       25.900       21.718     1050.521      670.818      471.651        0.254        0.110       27.784       17.128        0.380      351.651       33.717      864.402
07/28/2014  13:28:00       35.884       30.683       25.994       31.977       31.157       27.481     1022.525      970.730      755.185        0.283        0.137       47.213       18.926        0.161      351.236       32.993      864.392
07/28/2014  13:29:00       83.664       36.137       38.147       55.334       58.132       39.630     3061.808     3379.290     1570.561        0.888        0.401       91.135       14.867        0.027      351.160       32.860      864.381
07/28/2014  13:30:00      183.254      119.638       39.793       75.702       69.843       51.064     5730.798     4878.094     2607.502        3.135        0.661      218.850       33.740        0.024      350.996       32.571      864.349
07/28/2014  13:31:00       61.835       19.629       25.314       88.843       59.490       35.420     7893.098     3539.039     1254.575        0.877        0.634       64.876       38.726        0.356      351.623       33.668      864.336
07/28/2014  13:32:00       42.780      -10.685       33.481       73.263       62.098       42.051     5367.432     3856.193     1768.288        0.703        0.550       44.095       33.247        0.568      351.232       32.985      864.316
07/28/2014  13:33:00      104.777      -41.999       37.768       66.382       58.115       47.503     4406.562     3377.397     2256.557        1.210        0.502      112.881       38.804        0.118      350.908       32.420      864.280
07/28/2014  13:34:00      130.784      118.538       70.598       84.450       67.452       63.353     7131.878     4549.769     4013.651        2.591        0.785      176.510       51.671        0.086      351.156       32.850      864.247
07/28/2014  13:35:00       93.352      136.445       97.501       97.855       74.485       89.847     9575.697     5547.950     8072.422        3.001        1.160      165.323       66.412        0.161      351.330       33.155      864.229
07/28/2014  13:36:00       39.022       47.015       91.169       57.920       68.522       62.525     3354.715     4695.270     3909.328        1.200        0.598       61.100       44.601        0.533      351.417       33.308      864.253
07/28/2014  13:37:00       45.528       36.189       25.415       51.170       55.578       62.103     2618.406     3088.961     3856.735        0.679        0.478       58.158       45.979        0.625      350.705       32.067      864.264
07/28/2014  13:38:00       44.478      -32.339       -1.090       52.774       68.934       34.400     2785.048     4751.948     1183.332        0.587        0.436       54.992       33.229        0.365      350.776       32.192      864.229
07/28/2014  13:39:00      127.364      121.857       47.158       86.227       67.850       65.971     7435.075     4603.609     4352.186        2.484        0.820      176.268       44.707        0.064      351.321       33.138      864.228
07/28/2014  13:40:00       25.759       79.128      -10.325       48.716       61.527       28.858     2373.238     3785.597      832.762        0.701        0.350       83.216       31.481        0.143      351.561       33.559      864.264
07/28/2014  13:41:00       -4.597       42.832       36.773       49.328       51.582       36.970     2433.231     2660.652     1366.750        0.483        0.323       43.078       35.084        0.663      352.099       34.498      864.264
07/28/2014  13:42:00       58.410      115.672       23.920       57.506      113.540       54.402     3306.919    12891.325     2959.580        1.826        0.958      129.582       70.617        0.297      351.617       33.657      864.263
07/28/2014  13:43:00       -8.502      214.644      -36.226      110.954       97.471       53.634    12310.900     9500.559     2876.635        3.607        1.234      214.812       48.508        0.051      351.541       33.521      864.276
07/28/2014  13:44:00      -55.486       93.799       -9.853       75.859       72.909       42.366     5754.535     5315.660     1794.866        1.242        0.643      108.981       39.680        0.133      351.762       33.909      864.278
07/28/2014  13:45:00       17.109      159.835      -13.848       61.771      139.519       50.259     3815.697    19465.496     2526.014        2.591        1.290      160.748       60.462        0.141      351.617       33.655      864.270
07/28/2014  13:46:00     -212.636      259.690      -58.006      180.399      135.361       72.467    32543.644    18322.550     5251.413        8.606        2.806      335.638       92.136        0.075      351.522       33.489      864.219
07/28/2014  13:47:00       81.816      206.899        3.462      110.893      151.272       85.224    12297.363    22883.324     7263.058        4.597        2.122      222.488       91.184        0.168      351.436       33.338      864.236
07/28/2014  13:48:00      -11.796      220.933      -31.815       65.715       86.334       52.540     4318.448     7453.495     2760.435        3.224        0.727      221.248       44.666        0.041      351.384       33.248      864.235
07/28/2014  13:49:00      -84.057      173.663      -23.554       58.645       84.266       37.891     3439.212     7100.741     1435.747        2.488        0.599      192.936       36.563        0.036      351.289       33.084      864.230
07/28/2014  13:50:00      -20.240       92.026        3.949       96.164       56.321       44.899     9247.587     3172.106     2015.903        1.166        0.722       94.226       37.053        0.155      351.542       33.528      864.215
07/28/2014  13:51:00       62.713      111.385       21.273      121.125       78.379       56.492    14671.349     6143.215     3191.397        2.039        1.200      127.827       49.335        0.149      351.469       33.397      864.199
07/28/2014  13:52:00      162.508      160.347       20.642      190.914      101.489       93.453    36448.188    10299.964     8733.390        5.400        2.774      228.298       69.204        0.092      351.594       33.612      864.150
07/28/2014  13:53:00     -123.756      304.627      -57.392      125.505      140.345       61.552    15751.380    19696.773     3788.621        7.531        1.962      328.806       69.561        0.045      351.246       33.008      864.205
07/28/2014  13:54:00       71.639      242.037      -17.286       88.880      108.048       72.007     7899.663    11674.400     5185.034        4.438        1.238      252.416       69.021        0.075      351.115       32.777      864.212
07/28/2014  13:55:00      123.583       86.971       12.790       83.078       82.573       56.962     6902.035     6818.361     3244.662        1.998        0.848      151.119       17.078        0.013      350.940       32.474      864.180
07/28/2014  13:56:00       11.255       90.489        2.622       61.364       60.705       40.724     3765.487     3685.047     1658.479        0.871        0.455       91.187       37.968        0.173      351.289       33.083      864.171
07/28/2014  13:57:00      -45.495       69.493       -6.522       77.986       50.521       36.684     6081.856     2552.335     1345.687        0.846        0.499       83.061       37.457        0.203      351.367       33.221      864.169
07/28/2014  13:58:00      -58.140       38.868       13.050       67.316       50.070       35.794     4531.505     2507.024     1281.208        0.669        0.416       69.935       36.252        0.269      351.655       33.724      864.167
07/28/2014  13:59:00        3.916      234.139      -21.194       77.988      145.057       63.232     6082.201    21041.533     3998.288        4.320        1.556      234.172       71.501        0.093      351.292       33.088      864.178
07/28/2014  14:00:00      -71.252      174.139      -10.788      105.813      109.946       48.449    11196.427    12088.097     2347.345        3.057        1.282      188.152       46.179        0.060      351.289       33.083      864.169
07/28/2014  14:01:00       -0.704      151.680      -17.006       65.295       73.459       38.552     4263.496     5396.221     1486.237        1.722        0.557      151.682       25.392        0.028      351.278       33.065      864.155
07/28/2014  14:02:00      -47.996      129.861       -6.484       52.481       78.938       51.379     2754.264     6231.257     2639.766        1.542        0.581      138.446       51.498        0.138      351.597       33.621      864.147
07/28/2014  14:03:00      -63.890      180.700      -24.898       80.738      122.701       44.941     6518.548    15055.629     2019.667        3.047        1.180      191.662       47.144        0.061      351.640       33.697      864.132
07/28/2014  14:04:00     -196.409      252.438      -51.443      114.906       94.790       67.655    13203.372     8985.218     4577.232        6.585        1.338      319.846       64.593        0.041      351.316       33.128      864.125
07/28/2014  14:05:00     -254.651      130.226      -46.273       95.806      121.550       63.832     9178.802    14774.347     4074.540        5.598        1.401      286.017       50.133        0.031      351.131       32.805      864.129
07/28/2014  14:06:00     -345.146      -92.508      -24.106       97.070       69.534       64.247     9422.552     4834.973     4127.672        7.332        0.919      357.328       47.816        0.018      351.217       32.956      864.133
07/28/2014  14:07:00     -127.824       33.410       -0.838      124.759       88.307       55.266    15564.919     7798.072     3054.354        2.193        1.321      132.118       47.928        0.132      351.711       33.819      864.148
07/28/2014  14:08:00     -127.602       85.383      -10.297      201.604       95.175       70.797    40644.020     9058.245     5012.279        3.919        2.736      153.533       89.569        0.340      351.400       33.278      864.138
07/28/2014  14:09:00     -131.719      129.733      -23.800       68.136      124.529       54.386     4642.517    15507.479     2957.842        2.892        1.155      184.879       49.748        0.072      351.223       32.968      864.134
07/28/2014  14:10:00     -135.373      202.114      -13.984       84.827      146.242       62.120     7195.700    21386.635     3858.932        4.590        1.622      243.262       47.856        0.039      351.489       33.431      864.124
07/28/2014  14:11:00      -19.071       38.125       12.646       67.405       81.936       43.685     4543.472     6713.583     1908.341        0.757        0.658       42.629       44.302        1.080      351.940       34.220      864.122
07/28/2014  14:12:00       24.672      233.416       -8.034       88.661      151.479       77.154     7860.726    22945.874     5952.812        4.595        1.838      234.717       90.401        0.148      351.708       33.813      864.121
07/28/2014  14:13:00     -137.365      276.884      -30.248      133.924      177.455       58.591    17935.517    31490.188     3432.865        7.464        2.643      309.085       56.624        0.034      351.512       33.471      864.122
07/28/2014  14:14:00     -176.003      244.867      -34.842      125.907      120.183       56.325    15852.696    14444.017     3172.556        6.280        1.673      301.557       53.175        0.031      351.348       33.184      864.126
07/28/2014  14:15:00     -180.496      266.671      -51.534      102.247      118.914       68.417    10454.468    14140.582     4680.897        6.781        1.464      322.012       65.268        0.041      351.170       32.874      864.137
07/28/2014  14:16:00      -53.005      239.738      -22.220       68.169      149.594       52.146     4646.996    22378.232     2719.234        4.526        1.487      245.528       72.591        0.087      351.232       32.983      864.119
07/28/2014  14:17:00      -91.081      208.289      -17.488       63.888       98.403       46.928     4081.684     9683.193     2202.237        3.397        0.798      227.333       50.623        0.050      351.195       32.919      864.101
07/28/2014  14:18:00      -73.422      106.112       -9.888      108.648       86.487       50.192    11804.317     7480.024     2519.240        1.927        1.090      129.037       50.105        0.151      351.291       33.087      864.139
07/28/2014  14:19:00        3.880       81.693       25.752       73.822       67.101       45.772     5449.724     4502.522     2095.121        0.970        0.602       81.785       40.550        0.246      351.467       33.395      864.151
07/28/2014  14:20:00      -27.625      -66.430       24.496      159.223      108.623       65.792    25352.054    11798.866     4328.651        2.362        2.074       71.945       37.852        0.277      351.294       33.091      864.080
07/28/2014  14:21:00     -356.296       -1.950      -33.255      143.004      120.832       57.939    20450.263    14600.438     3356.950        8.322        1.920      356.301       59.705        0.028      351.399       33.272      864.100
07/28/2014  14:22:00     -112.291      -34.142       -2.763       95.455       89.065       46.608     9111.711     7932.658     2172.342        1.650        0.961      117.367       45.571        0.151      351.462       33.385      864.113
07/28/2014  14:23:00     -299.522     -120.129      -12.338      164.939      126.213       66.807    27204.898    15929.695     4463.239        7.594        2.380      322.714       84.956        0.069      351.399       33.274      864.105
07/28/2014  14:24:00     -275.556      -70.542        6.636      118.924      116.259       59.835    14142.929    13516.041     3580.229        5.609        1.562      284.442       56.108        0.039      351.150       32.838      864.101
07/28/2014  14:25:00     -455.120     -125.917      -22.926      112.671      104.064       66.464    12694.659    10829.242     4417.458       12.572        1.397      472.218       54.778        0.013      351.077       32.711      864.083
07/28/2014  14:26:00     -381.029      -49.091      -24.071      194.060      134.322       69.346    37659.356    18042.272     4808.894       10.433        3.026      384.179       81.561        0.045      351.116       32.779      864.088
07/28/2014  14:27:00     -311.588      -15.551      -25.326      138.335       97.699       55.884    19136.591     9545.028     3123.024        6.488        1.590      311.975       62.582        0.040      351.089       32.732      864.099
07/28/2014  14:28:00     -320.185      -76.419        0.051      120.973       98.165       51.786    14634.347     9636.409     2681.815        6.765        1.348      329.178       46.793        0.020      351.014       32.602      864.079
07/28/2014  14:29:00     -109.080       97.518       -7.337       74.037       83.681       51.299     5481.476     7002.540     2631.594        1.829        0.756      146.315       36.203        0.061      351.212       32.949      864.077
07/28/2014  14:30:00     -154.381       34.421      -14.082      123.875      123.292       69.476    15344.998    15200.842     4826.854        3.029        1.769      158.171       73.160        0.214      351.146       32.832      864.063
07/28/2014  14:31:00     -254.815     -142.279      -14.422       88.551       85.711       56.831     7841.291     7346.383     3229.772        5.190        0.921      291.846       43.168        0.022      351.110       32.768      864.060
07/28/2014  14:32:00     -303.891      -25.097      -16.265      102.393       98.023       50.778    10484.285     9608.489     2578.356        5.795        1.134      304.925       49.014        0.026      351.138       32.819      864.056
07/28/2014  14:33:00     -314.998      -40.454      -13.015      180.744      118.152       44.816    32668.251    13959.804     2008.430        7.482        2.432      317.585       51.751        0.027      351.151       32.842      864.059
07/28/2014  14:34:00      -43.141      -77.681       27.545      114.402       74.706       70.447    13087.899     5580.959     4962.741        1.614        1.182       88.856       59.508        0.449      351.367       33.219      864.053
07/28/2014  14:35:00     -156.240      -81.516       11.170      132.743      105.922       62.584    17620.593    11219.425     3916.752        3.196        1.638      176.227       72.073        0.167      351.230       32.981      864.046
07/28/2014  14:36:00     -218.598     -130.323        8.292      178.229      102.448       68.787    31765.618    10495.610     4731.631        5.591        2.350      254.498       91.043        0.128      351.208       32.941      864.016
07/28/2014  14:37:00     -322.863     -101.435      -20.952      153.152      122.290       74.030    23455.588    14954.728     5480.431        7.942        2.195      338.422       74.799        0.049      351.105       32.760      864.024
07/28/2014  14:38:00     -244.483      -77.617       -5.619      151.581       88.977       48.297    22976.678     7916.875     2332.602        4.952        1.661      256.508       65.405        0.065      351.205       32.934      864.027
07/28/2014  14:39:00     -222.535     -106.168        2.050      129.766      109.887       58.550    16839.130    12075.089     3428.157        4.656        1.617      246.563       55.805        0.051      351.184       32.898      864.041
07/28/2014  14:40:00     -338.030     -105.800       -6.666      126.213      101.037       61.682    15929.645    10208.409     3804.701        7.772        1.497      354.200       63.432        0.032      351.100       32.752      864.064
07/28/2014  14:41:00     -218.588     -153.100       29.566      185.898      149.227       68.774    34557.948    22268.746     4729.823        6.681        3.078      266.872       81.904        0.094      351.150       32.839      864.049
07/28/2014  14:42:00     -365.925     -172.820       -6.524      130.879      106.430       68.767    17129.224    11327.262     4728.888        9.849        1.659      404.682       67.366        0.028      350.916       32.432      864.054
07/28/2014  14:43:00     -342.637     -105.203      -19.611      132.820       90.066       65.627    17641.125     8111.871     4306.905        7.945        1.503      358.424       55.749        0.024      350.918       32.434      864.056
07/28/2014  14:44:00     -250.756     -128.631       11.440      161.556      119.365       68.516    26100.360    14248.025     4694.477        6.229        2.252      281.824       68.013        0.058      350.989       32.558      864.045
07/28/2014  14:45:00     -416.590     -237.792      -16.780      154.384      125.499       77.323    23834.346    15749.909     5978.785       13.796        2.278      479.679       84.440        0.031      350.824       32.270      864.054
07/28/2014  14:46:00     -303.766     -114.183      -12.563      109.508       77.278       50.854    11992.077     5971.902     2586.087        6.301        1.028      324.517       55.847        0.030      350.807       32.243      864.039
07/28/2014  14:47:00     -192.033     -266.711       -0.352      109.554      210.258       54.050    12002.095    44208.335     2921.414        8.356        2.957      328.651       63.351        0.037      350.803       32.235      864.018
07/28/2014  14:48:00     -133.039     -263.866       -3.839      120.864      169.300       67.954    14608.033    28662.430     4617.708        6.760        2.394      295.508       49.030        0.028      350.763       32.166      863.995
07/28/2014  14:49:00     -200.262     -173.945       -5.790      127.653       96.561       50.999    16295.192     9324.074     2600.942        4.930        1.411      265.258       55.902        0.044      350.920       32.439      863.989
07/28/2014  14:50:00     -230.071     -190.514       16.017      148.304      136.813       78.287    21993.961    18717.792     6128.928        6.815        2.342      298.711       74.387        0.062      350.889       32.384      863.973
07/28/2014  14:51:00     -288.513     -142.425        2.962      134.746       78.992       61.502    18156.550     6239.793     3782.479        6.585        1.409      321.752       71.822        0.050      350.885       32.378      863.969
07/28/2014  14:52:00     -124.287     -104.718        2.260       85.913       76.187       47.848     7381.047     5804.474     2289.415        2.094        0.774      162.521       51.831        0.102      350.882       32.373      863.948
07/28/2014  14:53:00     -178.565      -58.377       -0.519      139.713       92.836       49.063    19519.614     8618.606     2407.130        3.291        1.527      187.865       62.370        0.110      351.000       32.579      863.925
07/28/2014  14:54:00     -157.568      -93.524        8.591      194.524       99.024       53.338    37839.459     9805.677     2844.915        4.206        2.525      183.233       79.849        0.190      351.025       32.622      863.909
07/28/2014  14:55:00     -309.169     -162.119       -4.076      140.743       94.303       57.947    19808.538     8893.034     3357.868        7.697        1.603      349.096       63.622        0.033      350.931       32.458      863.908
07/28/2014  14:56:00     -309.189     -123.743       -5.819      141.773       85.522       52.344    20099.608     7313.941     2739.870        7.054        1.508      333.032       63.403        0.036      350.941       32.475      863.888
07/28/2014  14:57:00     -194.725     -104.925       -2.996      121.115       86.355       60.898    14668.758     7457.152     3708.613        3.738        1.292      221.195       56.240        0.065      350.992       32.564      863.889
07/28/2014  14:58:00     -110.090      -32.216        9.751      105.914       78.537       46.587    11217.776     6168.074     2170.310        1.640        0.978      114.707       60.371        0.277      351.040       32.649      863.892
07/28/2014  14:59:00      -40.260      -31.253       17.690       71.591       49.195       34.018     5125.294     2420.131     1157.233        0.580        0.435       50.967       29.531        0.336      351.227       32.976      863.895
07/28/2014  15:00:00     -286.883      -57.725      -17.978       92.259      106.270       50.504     8511.658    11293.362     2550.606        5.415        1.118      292.633       45.716        0.024      351.004       32.583      863.878
07/28/2014  15:01:00     -235.764       10.160      -10.588      146.054       84.048       53.989    21331.819     7064.109     2914.778        4.355        1.566      235.983       65.235        0.076      350.992       32.564      863.863
07/28/2014  15:02:00     -337.491       10.513      -26.894      136.563      112.836       58.383    18649.442    12731.861     3408.611        7.475        1.739      337.654       58.489        0.030      350.933       32.460      863.815
07/28/2014  15:03:00     -255.668       -5.974      -21.547      101.938       78.371       46.452    10391.443     6142.058     2157.789        4.227        0.935      255.738       50.973        0.040      350.980       32.544      863.829
07/28/2014  15:04:00     -271.518       44.230      -17.355       55.700       44.866       40.722     3102.480     2012.925     1658.287        4.138        0.339      275.097       30.360        0.012      350.957       32.501      863.836
07/28/2014  15:05:00     -232.593      -13.496      -11.108       50.532       61.604       28.776     2553.447     3795.080      828.040        3.079        0.359      232.984       12.692        0.003      351.012       32.599      863.850
07/28/2014  15:06:00     -242.779      -81.226       -7.599       97.116       82.781       51.479     9431.568     6852.691     2650.125        4.226        0.947      256.007       42.581        0.028      351.090       32.732      863.849
07/28/2014  15:07:00     -214.235     -122.535       -6.916       97.421       88.730       43.411     9490.942     7872.941     1884.552        4.010        0.962      246.802       49.018        0.039      351.065       32.692      863.867
07/28/2014  15:08:00     -334.419      -27.448      -20.494      142.478      126.873       60.748    20299.916    16096.851     3690.371        7.654        2.004      335.543       69.377        0.043      351.007       32.590      863.866
07/28/2014  15:09:00     -214.494       93.794      -25.519       87.400       63.229       39.490     7638.781     3997.934     1559.468        3.432        0.660      234.104       35.074        0.022      350.945       32.482      863.876
07/28/2014  15:10:00     -146.597       24.890       -4.507      123.270       84.570       54.455    15195.511     7152.144     2965.324        2.372        1.266      148.695       50.898        0.117      350.995       32.571      863.856
07/28/2014  15:11:00     -130.946      128.851      -15.227      100.102      151.180       58.358    10020.348    22855.429     3405.686        3.512        1.814      183.710       44.293        0.058      351.000       32.579      863.854
07/28/2014  15:12:00     -163.419      161.667      -17.331       93.443      138.315       64.488     8731.591    19131.026     4158.677        4.258        1.601      229.873       69.881        0.092      350.961       32.511      863.847
07/28/2014  15:13:00     -167.342      -76.770      -15.197      114.632       82.058       50.653    13140.475     6733.556     2565.773        2.828        1.122      184.111       51.159        0.077      351.016       32.606      863.794
07/28/2014  15:14:00     -102.382      -55.182        4.664       89.993       71.876       34.519     8098.803     5166.226     1191.587        1.400        0.723      116.307       39.373        0.115      351.064       32.692      863.789
07/28/2014  15:15:00      -86.651      107.476      -26.895       52.504       44.319       33.259     2756.677     1964.145     1106.183        1.280        0.291      138.056       28.554        0.043      351.002       32.584      863.787
07/28/2014  15:16:00        6.337      109.368        7.729       38.700       64.790       46.005     1497.678     4197.763     2116.457        0.993        0.391      109.551       33.493        0.093      351.182       32.898      863.755
07/28/2014  15:17:00      -36.598      165.064       -3.590       88.990       82.267       66.577     7919.151     6767.844     4432.471        2.386        0.956      169.073       56.599        0.112      351.163       32.863      863.725
07/28/2014  15:18:00       14.593      178.296       17.549       91.684      125.425       73.795     8405.957    15731.551     5445.740        3.094        1.479      178.892       75.173        0.177      351.231       32.981      863.713
07/28/2014  15:19:00      -50.776      306.807      -37.116      149.626      156.571       79.134    22388.077    24514.331     6262.255        7.562        2.658      310.981       84.441        0.074      351.305       33.111      863.642
07/28/2014  15:20:00     -212.529      162.649      -23.876       99.600      123.004       54.047     9920.163    15129.950     2921.105        5.008        1.399      267.625       65.248        0.059      351.285       33.073      863.700
07/28/2014  15:21:00     -111.916       59.762      -15.909       74.330       83.935       36.268     5524.957     7045.154     1315.376        1.511        0.694      126.872       36.394        0.082      351.330       33.155      863.701
07/28/2014  15:22:00     -181.644       80.100      -14.076      123.921       53.620       45.974    15356.465     2875.062     2113.577        2.997        1.017      198.520       52.560        0.070      351.302       33.105      863.700
07/28/2014  15:23:00     -127.024      125.329       -7.523       63.251       96.583       48.834     4000.656     9328.312     2384.769        2.380        0.786      178.445       25.090        0.020      351.263       33.036      863.713
07/28/2014  15:24:00     -142.066      -31.846       -2.284      101.580       97.526       69.341    10318.576     9511.336     4808.192        2.292        1.232      145.592       55.514        0.145      351.198       32.925      863.699
07/28/2014  15:25:00     -123.420      -11.193        0.444       86.875       74.504       44.260     7547.180     5550.845     1958.925        1.520        0.753      123.926       40.496        0.107      351.114       32.779      863.680
07/28/2014  15:26:00      -84.761       66.606       -7.301       87.267       70.201       45.408     7615.575     4928.231     2061.930        1.314        0.730      107.800       50.955        0.223      351.254       33.022      863.691
07/28/2014  15:27:00     -177.527      151.809      -29.012       73.801       80.579       50.351     5446.515     6492.940     2535.200        3.494        0.724      233.584       36.043        0.024      351.076       32.708      863.699
07/28/2014  15:28:00     -136.606      291.402      -34.102      140.668      154.420       72.971    19787.530    23845.402     5324.803        7.684        2.448      321.833       71.565        0.049      351.077       32.710      863.683
07/28/2014  15:29:00     -151.260      196.638      -25.636       62.151       98.210       54.187     3862.791     9645.245     2936.206        3.932        0.822      248.085       26.470        0.011      351.153       32.843      863.689
07/28/2014  15:30:00     -197.743      114.680      -30.436      127.378       99.986       58.520    16225.128     9997.276     3424.625        4.141        1.482      228.591       58.185        0.065      351.115       32.778      863.692
07/28/2014  15:31:00     -175.083       81.012      -27.147      116.926       73.237       48.892    13671.627     5363.715     2390.448        2.969        1.071      192.917       49.529        0.066      351.118       32.783      863.690
07/28/2014  15:32:00     -164.119       -9.707      -17.769      117.717      105.583       55.100    13857.305    11147.751     3035.968        2.769        1.402      164.406       50.408        0.094      351.125       32.796      863.707
07/28/2014  15:33:00      -67.147      -32.566       -2.672      150.392       88.775       72.325    22617.885     7880.946     5230.851        2.065        1.786       74.627       56.086        0.565      351.129       32.804      863.697
07/28/2014  15:34:00     -152.496      -42.923       11.711       82.087       86.339       60.332     6738.231     7454.364     3639.937        2.153        0.892      158.422       40.350        0.065      351.132       32.807      863.697
07/28/2014  15:35:00     -307.638      -70.251      -26.418       91.023      115.200       51.617     8285.256    13271.050     2664.348        6.224        1.211      315.557       46.969        0.022      350.981       32.544      863.684
07/28/2014  15:36:00     -176.823      -38.010      -18.995       55.783       53.932       35.365     3111.779     2908.709     1250.677        2.017        0.364      180.863       25.890        0.020      351.039       32.646      863.672
07/28/2014  15:37:00      -92.734       85.985      -13.349       78.847      109.535       48.869     6216.773    11998.022     2388.159        1.838        1.030      126.464       29.868        0.056      351.162       32.862      863.670
07/28/2014  15:38:00     -144.986      129.236      -33.512       73.846       67.680       36.876     5453.246     4580.601     1359.835        2.512        0.570      194.224       37.013        0.036      351.015       32.606      863.664
07/28/2014  15:39:00      -83.358       22.373        0.889       43.079       42.800       34.419     1855.773     1831.833     1184.639        0.616        0.244       86.308       23.363        0.073      351.155       32.852      863.657
07/28/2014  15:40:00      -60.833      164.876      -11.652       56.951       81.385       49.621     3243.391     6623.570     2462.276        2.167        0.616      175.741       46.599        0.070      351.059       32.682      863.661
07/28/2014  15:41:00      -74.866      167.252      -15.118       47.528       44.905       32.268     2258.926     2016.432     1041.200        1.956        0.266      183.243       23.132        0.016      350.982       32.548      863.654
07/28/2014  15:42:00     -131.928      188.674      -39.999       58.709       44.884       32.139     3446.802     2014.584     1032.887        3.055        0.325      230.224       24.264        0.011      350.966       32.517      863.654
07/28/2014  15:43:00     -145.038       48.029      -23.222       39.395       60.792       29.585     1551.964     3695.671      875.286        1.500        0.306      152.783       23.983        0.025      351.036       32.643      863.656
07/28/2014  15:44:00      -93.165       95.331       -1.824       84.047       89.774       46.056     7063.888     8059.459     2121.145        1.750        0.862      133.295       46.331        0.121      351.096       32.747      863.655
07/28/2014  15:45:00     -140.502      259.891      -35.667       67.597       71.644       34.235     4569.316     5132.850     1172.037        4.971        0.544      295.439       22.012        0.006      351.035       32.636      863.670
07/28/2014  15:46:00      -80.230       94.077       -5.050       50.140       59.027       30.503     2514.061     3484.210      930.433        1.112        0.346      123.642       35.216        0.081      351.196       32.923      863.674
07/28/2014  15:47:00     -124.057       68.988      -17.508       52.737       67.524       32.581     2781.161     4559.495     1061.498        1.443        0.420      141.949       28.727        0.041      351.175       32.885      863.682
07/28/2014  15:48:00      -60.328       69.154        8.341       59.827       72.350       47.203     3579.234     5234.465     2228.115        0.976        0.552       91.770       45.608        0.247      351.181       32.895      863.694
07/28/2014  15:49:00     -237.767      -27.533      -29.836      116.937      106.567       57.398    13674.235    11356.557     3294.501        4.325        1.416      239.356       54.934        0.053      351.040       32.648      863.687
07/28/2014  15:50:00     -227.435      -12.722      -19.228       89.332      107.954       46.448     7980.207    11654.150     2157.445        3.702        1.090      227.791       46.755        0.042      351.058       32.678      863.682
07/28/2014  15:51:00     -222.965      -95.189      -21.857       88.165       95.637       47.053     7773.108     9146.344     2214.029        3.919        0.957      242.434       34.191        0.020      351.022       32.615      863.693
07/28/2014  15:52:00     -179.335       -6.408      -16.643      101.421       83.321       42.885    10286.188     6942.439     1839.156        2.577        0.953      179.449       50.152        0.078      351.020       32.615      863.686
07/28/2014  15:53:00     -160.010      -33.559       -2.744       76.681       58.354       37.988     5880.007     3405.133     1443.113        1.873        0.536      163.491       34.175        0.044      351.021       32.615      863.684
07/28/2014  15:54:00     -197.116     -105.681       -6.358       79.243       59.116       39.053     6279.414     3494.744     1525.126        3.068        0.565      223.659       37.892        0.029      350.988       32.558      863.679
07/28/2014  15:55:00     -136.038      -52.225       -5.033       81.579       49.983       25.546     6655.130     2498.342      652.599        1.553        0.490      145.718       29.522        0.041      350.988       32.558      863.679
07/28/2014  15:56:00      -50.509       -7.823       12.571       74.233       29.159       25.858     5510.488      850.220      668.634        0.490        0.351       51.111       33.195        0.422      351.023       32.622      863.688
07/28/2014  15:57:00      -99.440      -40.209       -1.385       87.575       50.979       33.848     7669.434     2598.888     1145.689        1.146        0.571      107.262       20.005        0.035      351.050       32.669      863.680
07/28/2014  15:58:00     -213.455       69.739      -29.257      151.211      115.002       63.471    22864.650    13225.351     4028.625        4.569        2.006      224.559       76.436        0.116      351.003       32.584      863.677
07/28/2014  15:59:00     -292.249      152.263      -57.606      147.366      105.983       55.440    21716.648    11232.481     3073.584        7.396        1.801      329.535       62.554        0.036      350.998       32.574      863.655
07/28/2014  16:00:00     -145.426      142.618      -22.265       89.750      144.048       58.907     8055.016    20749.811     3470.066        3.712        1.614      203.688       41.544        0.042      350.986       32.553      863.653
07/28/2014  16:01:00     -149.449       92.253      -27.455       49.440       96.769       46.078     2444.347     9364.182     2123.178        2.276        0.697      175.629       35.506        0.041      350.939       32.472      863.663
07/28/2014  16:02:00     -154.207      -23.669      -11.010       84.598       72.490       43.636     7156.830     5254.786     1904.079        1.939        0.716      156.013       32.894        0.044      351.062       32.686      863.669
07/28/2014  16:03:00      -73.596       -4.194       -2.873       61.481       60.064       32.278     3779.941     3607.677     1041.864        0.693        0.421       73.716       37.795        0.263      351.069       32.701      863.658
07/28/2014  16:04:00     -120.846      -13.263       -9.497      101.680      107.248       53.752    10338.897    11502.092     2889.324        1.980        1.237      121.572       42.903        0.125      350.982       32.547      863.653
07/28/2014  16:05:00       61.172       21.008       13.944      177.287      246.722      105.598    31430.635    60871.569    11151.002        5.389        5.173       64.678       87.459        1.828      350.957       32.502      863.551
07/28/2014  16:06:00     -111.634     -118.192      -12.221      119.643       97.932       50.036    14314.350     9590.645     2503.603        2.649        1.320      162.577       47.610        0.086      350.901       32.408      863.658
07/28/2014  16:07:00      -66.711       27.534       -3.087       43.505       42.407       30.316     1892.643     1798.384      919.071        0.491        0.231       72.170       19.322        0.072      350.986       32.556      863.678
07/28/2014  16:08:00       22.175       18.440        9.101       42.297       29.373       18.531     1788.997      862.754      343.390        0.195        0.150       28.840       10.459        0.132      350.995       32.573      863.653
07/28/2014  16:09:00       53.447      132.042       10.338       58.743       83.775       49.822     3450.768     7018.289     2482.260        1.667        0.648      142.449       46.998        0.109      350.742       32.131      863.631
07/28/2014  16:10:00     -123.848      109.109      -15.762       69.390       67.656       41.201     4815.000     4577.379     1697.513        1.929        0.554      165.055       29.798        0.033      350.944       32.480      863.619
07/28/2014  16:11:00     -116.284       51.203      -14.129       48.630       51.436       31.377     2364.916     2645.660      984.529        1.117        0.300      127.058       13.594        0.011      350.973       32.532      863.648
07/28/2014  16:12:00     -181.267        0.082      -22.161       67.611       48.628       30.226     4571.304     2364.658      913.615        2.060        0.392      181.267       20.417        0.013      350.986       32.555      863.665
07/28/2014  16:13:00     -162.705      -21.138      -25.616       40.298       38.009       25.566     1623.965     1444.663      653.611        1.565        0.186      164.073       13.995        0.007      351.033       32.636      863.661
07/28/2014  16:14:00     -240.575      -27.508      -24.261       81.430       75.153       36.793     6630.857     5648.017     1353.706        3.642        0.682      242.142       42.739        0.031      350.973       32.529      863.661
07/28/2014  16:15:00     -159.909       24.559       -2.839       85.671       44.742       33.031     7339.447     2001.843     1091.027        1.831        0.522      161.784       38.573        0.057      350.997       32.572      863.659
07/28/2014  16:16:00      -92.200       13.524        2.789       45.907       66.596       31.961     2107.456     4435.074     1021.501        0.813        0.378       93.187       28.620        0.094      351.016       32.610      863.677
07/28/2014  16:17:00     -108.666      145.753      -29.035       67.784       72.827       43.396     4594.639     5303.823     1883.222        2.284        0.589      181.803       40.383        0.049      351.023       32.619      863.689
07/28/2014  16:18:00     -130.204      167.403      -12.120      105.273      103.709       59.265    11082.435    10755.529     3512.317        3.523        1.268      212.078       65.851        0.096      350.948       32.489      863.681
07/28/2014  16:19:00     -154.482       -4.739      -20.201       75.862       76.629       36.257     5755.063     5871.946     1314.537        1.862        0.647      154.555       21.202        0.019      350.929       32.456      863.672
07/28/2014  16:20:00     -119.851       33.292      -20.604       86.966       47.282       31.500     7563.043     2235.596      992.250        1.334        0.540      124.389       18.881        0.023      350.912       32.425      863.678
07/28/2014  16:21:00     -151.873      -52.938        0.292       62.500       75.262       30.976     3906.302     5664.347      959.506        1.820        0.527      160.835       25.139        0.024      350.886       32.381      863.672
07/28/2014  16:22:00     -109.121      -21.867       -7.632       55.470       42.842       30.776     3076.891     1835.475      947.188        0.915        0.293      111.291       14.745        0.018      350.864       32.341      863.682
07/28/2014  16:23:00     -112.775      -41.128      -10.548       46.217       34.727       22.412     2135.979     1205.939      502.283        0.918        0.192      120.041       13.979        0.014      350.869       32.354      863.686
07/28/2014  16:24:00     -130.233      -50.598        9.331       73.975       39.037       32.629     5472.359     1523.861     1064.648        1.383        0.403      139.717       39.863        0.081      350.941       32.477      863.682
07/28/2014  16:25:00     -213.471      -91.548       -0.801       71.393       62.160       31.983     5096.955     3863.890     1022.894        3.197        0.499      232.273       26.016        0.013      350.935       32.463      863.683
07/28/2014  16:26:00     -231.168      -51.956        2.654      118.629      125.014       61.199    14072.875    15628.384     3745.372        4.479        1.672      236.934       71.064        0.090      350.837       32.297      863.701
07/28/2014  16:27:00     -175.387     -146.872       18.070      142.000      137.958       69.441    20164.122    19032.407     4822.075        4.833        2.201      228.761       79.667        0.121      350.565       31.821      863.705
07/28/2014  16:28:00     -234.328     -135.430        1.865      102.775      111.748       70.338    10562.776    12487.510     4947.419        5.062        1.400      270.649       67.950        0.063      350.435       31.594      863.697
07/28/2014  16:29:00     -200.541     -131.360       -2.492       99.570       77.818       45.312     9914.178     6055.623     2053.134        3.775        0.901      239.734       42.402        0.031      350.540       31.777      863.684
07/28/2014  16:30:00     -214.438     -107.093       -8.244       96.314       90.048       47.629     9276.321     8108.724     2268.509        3.858        0.983      239.692       48.544        0.041      350.563       31.816      863.670
07/28/2014  16:31:00     -284.690     -134.869      -16.731      159.693      189.137       56.506    25501.759    35772.888     3192.963        8.198        3.223      315.021       64.003        0.041      350.426       31.579      863.675
07/28/2014  16:32:00     -372.764     -234.005      -18.870      203.671      147.761       84.846    41481.860    21833.230     7198.783       13.228        3.526      440.126       84.359        0.037      350.189       31.166      863.691
07/28/2014  16:33:00     -382.893     -121.158       -1.351      206.150      145.397       80.670    42497.949    21140.337     6507.621       11.570        3.507      401.605       94.262        0.055      349.812       30.511      863.703
07/28/2014  16:34:00     -216.026     -137.384       12.608      139.218      122.037       66.023    19381.560    14893.017     4358.995        5.216        1.932      256.011       72.535        0.080      349.672       30.269      863.724
07/28/2014  16:35:00     -302.772     -178.235       -9.580      142.167      128.953       73.827    20211.440    16628.920     5450.497        8.290        2.115      351.338       78.202        0.050      349.699       30.314      863.720
07/28/2014  16:36:00     -374.715     -186.755       -9.425      191.336      135.385       71.988    36609.596    18329.145     5182.253       11.774        3.006      418.675       82.168        0.039      349.578       30.104      863.686
07/28/2014  16:37:00     -409.844     -264.112        6.988      209.917      159.321       96.425    44064.953    25383.113     9297.738       15.825        3.937      487.573      100.367        0.042      349.544       30.047      863.649
07/28/2014  16:38:00     -416.033     -224.980      -23.289      225.874      172.015       84.623    51019.092    29588.995     7161.082       15.599        4.388      472.969       69.105        0.021      349.832       30.544      863.732
07/28/2014  16:39:00     -338.409     -183.191       -8.307      153.469      134.043       71.994    23552.836    17967.434     5183.083        9.742        2.335      384.811       77.350        0.040      349.880       30.628      863.742
07/28/2014  16:40:00     -447.503     -274.626        2.539      219.241      161.787      102.720    48066.725    26174.933    10551.349       18.022        4.240      525.051      119.319        0.052      349.902       30.668      863.766
07/28/2014  16:41:00     -333.668      -95.129      -16.843      227.638      114.773       69.991    51818.901    13172.848     4898.793        9.526        3.495      346.964       93.553        0.073      349.940       30.735      863.804
07/28/2014  16:42:00     -147.463      -99.066       12.816      100.317       74.008       49.948    10063.420     5477.110     2494.848        2.488        0.902      177.650       58.657        0.109      349.911       30.684      863.791
07/28/2014  16:43:00     -237.472     -147.581       -3.054       95.077       82.102       48.437     9039.725     6740.700     2346.120        4.815        0.906      279.595       54.710        0.038      350.013       30.861      863.736
07/28/2014  16:44:00     -198.438     -133.758       -8.731      125.459       70.266       51.150    15739.932     4937.271     2616.274        4.031        1.165      239.309       60.794        0.065      349.921       30.701      863.722
07/28/2014  16:45:00     -142.738     -101.058       -7.917      123.693       86.023       48.785    15299.934     7399.949     2379.976        2.786        1.254      174.891       66.112        0.143      349.884       30.639      863.701
07/28/2014  16:46:00     -162.877      -75.284       -0.687       76.710       76.161       40.207     5884.427     5800.512     1616.588        2.275        0.665      179.434       33.936        0.036      349.962       30.773      863.687
07/28/2014  16:47:00     -208.493     -153.315      -12.420       82.626       68.046       45.047     6827.021     4630.279     2029.259        4.031        0.674      258.796       46.215        0.032      350.044       30.914      863.671
07/28/2014  16:48:00     -169.353     -135.521       10.848      164.745       77.146       53.919    27141.000     5951.450     2907.229        4.157        1.800      216.901       72.796        0.113      350.154       31.107      863.638
07/28/2014  16:49:00     -255.258     -204.039       -2.512      159.485      109.721       72.497    25435.619    12038.593     5255.860        7.475        2.137      326.785       79.186        0.059      350.005       30.848      863.717
07/28/2014  16:50:00     -292.819      -80.849        3.669      210.986      148.051       88.652    44515.085    21919.233     7859.193        8.328        3.715      303.775      100.857        0.110      349.836       30.555      863.704
07/28/2014  16:51:00     -386.233     -255.284       -5.577      241.336      169.215       89.012    58243.145    28633.867     7923.052       15.457        4.740      462.975       99.735        0.046      349.655       30.238      863.677
07/28/2014  16:52:00     -398.389     -214.223       18.199      257.866      180.237      114.432    66494.858    32485.434    13094.665       15.848        5.604      452.333      139.694        0.095      349.519       30.004      863.676
07/28/2014  16:53:00     -426.081     -291.081       -5.741      231.700      168.230      106.781    53685.011    28301.396    11402.185       17.983        4.669      516.017      107.967        0.044      349.432       29.851      863.727
07/28/2014  16:54:00     -428.864     -300.196       19.302      304.363      259.029      112.467    92636.779    67095.791    12648.794       22.336        8.619      523.490      137.890        0.069      349.392       29.782      863.713
07/28/2014  16:55:00     -476.582     -319.411        3.757      298.883      248.003      130.939    89330.821    61505.582    17145.059       24.854        8.399      573.719      151.268        0.070      349.305       29.632      863.672
07/28/2014  16:56:00     -539.403     -288.025      -14.806      342.141      196.501      118.994   117060.126    38612.680    14159.533       27.195        8.492      611.485      152.683        0.062      349.257       29.549      863.743
07/28/2014  16:57:00     -325.385     -185.618       -7.634      345.916      171.364       96.432   119658.186    29365.773     9299.073       14.932        7.916      374.606      116.673        0.097      349.341       29.696      863.722
07/28/2014  16:58:00     -529.264     -433.002      -19.775      303.546      274.329      141.162    92140.265    75256.507    19926.729       32.763        9.366      683.821      155.790        0.052      349.653       30.234      863.645
07/28/2014  16:59:00     -485.068     -259.287        7.523      315.260      209.927      117.547    99388.748    44069.414    13817.414       22.990        7.864      550.019      143.152        0.068      349.711       30.337      863.693
07/28/2014  17:00:00     -657.693      -84.892      -31.759      321.976      231.966      115.063   103668.512    53808.260    13239.499       30.571        8.536      663.149      144.997        0.048      349.926       30.708      863.756
07/28/2014  17:01:00     -561.371     -169.495      -22.237      266.305      195.038      100.372    70918.447    38039.655    10074.520       23.167        5.952      586.401      121.323        0.043      350.003       30.842      863.866
07/28/2014  17:02:00     -356.569     -137.367       -9.635      252.717      155.388       94.350    63866.061    24145.467     8901.834       12.149        4.846      382.114      114.432        0.090      349.988       30.817      863.936
07/28/2014  17:03:00     -457.419     -138.136       -0.943      198.473      139.404       80.777    39391.479    19433.419     6524.910       14.682        3.267      477.821       85.177        0.032      349.993       30.825      863.937
07/28/2014  17:04:00     -502.753     -111.239      -22.800      212.645      155.629       88.300    45217.718    24220.304     7796.954       17.143        3.862      514.912      104.261        0.041      349.935       30.724      863.991
07/28/2014  17:05:00     -710.865     -182.129      -39.333      251.543      244.479      125.248    63274.120    59770.073    15687.165       33.936        6.937      733.825      121.434        0.027      349.737       30.381      864.021
07/28/2014  17:06:00     -557.354     -137.899      -41.722      282.037      208.670      110.911    79544.618    43542.995    12301.199       23.337        6.769      574.160      119.372        0.043      349.876       30.623      863.930
07/28/2014  17:07:00     -838.942     -210.716      -62.013      332.404      266.403      129.496   110492.316    70970.743    16769.323       47.511        9.912      865.000      136.927        0.025      349.963       30.773      864.175
07/28/2014  17:08:00     -150.122     -103.513        2.701      156.711       77.012       70.519    24558.403     5930.851     4972.939        3.435        1.773      182.350       87.685        0.231      349.881       30.632      864.249
07/28/2014  17:09:00     -200.363     -442.306      -24.471      154.958      116.180       82.997    24012.097    13497.873     6888.568       14.038        2.220      485.572       77.988        0.026      350.066       30.953      864.070
07/28/2014  17:10:00     -120.334     -205.896      -12.282      134.022      108.363       58.180    17961.964    11742.472     3384.929        4.505        1.654      238.481       47.374        0.039      350.020       30.871      863.974
07/28/2014  17:11:00     -194.782     -157.304        7.118      185.910      145.197       87.122    34562.405    21082.247     7590.176        6.297        3.162      250.369       91.162        0.133      349.900       30.664      864.078
07/28/2014  17:12:00     -408.505     -164.574      -16.226      214.690      193.436       92.946    46091.787    37417.640     8639.015       14.317        4.607      440.410       93.920        0.045      349.275       29.579      864.152
07/28/2014  17:13:00     -468.174      -39.495      -24.278      245.153      167.111       92.048    60100.196    27926.041     8472.752       15.890        4.825      469.837       92.516        0.039      349.032       29.159      864.156
07/28/2014  17:14:00     -584.316      -69.408      -42.878      287.290      233.030       99.049    82535.516    54303.085     9810.684       24.734        7.332      588.424      114.951        0.038      349.193       29.438      864.122
07/28/2014  17:15:00     -423.740       25.495      -22.509      203.310      160.961       99.251    41334.801    25908.571     9850.815       12.889        3.855      424.506       87.805        0.043      349.326       29.667      864.106
07/28/2014  17:16:00     -863.482      -97.627      -49.848      321.399      216.485      132.698   103297.529    46865.710    17608.694       46.266        8.389      868.984      145.177        0.028      349.642       30.217      864.175
07/28/2014  17:17:00     -551.770     -152.457      -35.565      299.832      227.581      124.674    89899.479    51792.928    15543.516       24.307        7.862      572.445      150.632        0.069      349.215       29.476      864.207
07/28/2014  17:18:00     -708.180     -255.100      -40.267      288.194      238.488      104.547    83055.861    56876.512    10930.109       35.951        7.543      752.725      128.721        0.029      349.078       29.237      864.212
07/28/2014  17:19:00     -522.303     -265.170      -16.691      321.936      203.938      119.117   103643.056    41590.854    14188.834       25.138        7.971      585.760      134.751        0.053      349.121       29.314      864.217
07/28/2014  17:20:00     -636.757     -339.950      -15.169      273.027      221.739      122.739    74543.587    49168.229    15064.765       32.999        6.939      721.821      140.168        0.038      349.118       29.308      864.201
07/28/2014  17:21:00     -490.314      -43.612      -40.887      220.026      159.250       90.809    48411.418    25360.592     8246.300       16.298        4.101      492.250      102.558        0.043      348.928       28.977      864.304
07/28/2014  17:22:00     -445.857     -114.725      -41.015      264.959      199.579      103.353    70203.011    39831.867    10681.938       16.715        6.036      460.380      127.780        0.077      348.655       28.506      864.255
07/28/2014  17:23:00     -506.630      -31.668      -28.382      235.304      185.439       98.128    55368.167    34387.801     9629.013       17.891        4.969      507.618      113.476        0.050      348.498       28.235      864.329
07/28/2014  17:24:00     -612.302     -141.394      -40.940      232.907      207.889      112.176    54245.718    43217.721    12583.454       25.329        5.502      628.415       93.042        0.022      348.385       28.039      864.329
07/28/2014  17:25:00     -705.608     -158.423      -37.003      205.144      212.071      107.132    42084.091    44973.947    11477.365       31.142        4.927      723.174      111.814        0.024      348.323       27.930      864.395
07/28/2014  17:26:00     -607.146     -162.019      -24.299      249.672      201.319      120.988    62336.115    40529.317    14638.152       25.646        5.875      628.392      132.501        0.044      348.141       27.616      864.371
07/28/2014  17:27:00     -634.535     -138.398      -22.702      264.785      214.518      112.226    70110.871    46018.121    12594.750       27.549        6.436      649.453      118.429        0.033      348.211       27.738      864.376
07/28/2014  17:28:00     -614.385      -57.217      -18.067      273.031      183.235      102.576    74545.970    33575.248    10521.937       24.983        5.932      617.043      127.203        0.042      348.452       28.156      864.323
07/28/2014  17:29:00     -730.916     -107.090      -28.959      261.411      150.001      105.490    68335.521    22500.299    11128.117       32.423        5.098      738.720      122.605        0.028      348.581       28.378      864.337
07/28/2014  17:30:00     -665.203     -150.537      -55.362      289.547      193.228      120.763    83837.304    37336.889    14583.654       30.196        6.788      682.024      138.029        0.041      348.741       28.654      864.348
07/28/2014  17:31:00     -725.683      -45.256      -44.763      243.165      251.111      131.904    59129.390    63056.699    17398.719       33.510        6.979      727.093      135.759        0.035      348.920       28.965      864.353
07/28/2014  17:32:00     -696.076      -99.662      -75.670      304.568      192.854      108.499    92761.950    37192.506    11771.999       32.093        7.086      703.174      132.595        0.036      349.216       29.478      864.400
07/28/2014  17:33:00     -510.604     -134.496      -33.088      185.902      167.412       91.425    34559.508    28026.735     8358.465       17.541        3.547      528.021       82.783        0.025      349.051       29.192      864.455
07/28/2014  17:34:00     -614.579      -73.804      -54.760      198.771      191.083      102.453    39509.901    36512.539    10496.529       23.632        4.326      618.995       93.709        0.023      348.840       28.826      864.511
07/28/2014  17:35:00     -364.912      -62.182      -31.597      157.346      111.192       79.776    24757.856    12363.596     6364.243        9.075        2.174      370.172       79.543        0.046      348.704       28.591      864.573
07/28/2014  17:36:00     -409.283      -36.323      -16.742      193.601      126.782       80.832    37481.289    16073.638     6533.886       11.459        3.004      410.891       81.571        0.039      348.618       28.443      864.524
07/28/2014  17:37:00     -480.229     -108.671      -32.542      164.722      145.672       72.728    27133.294    21220.365     5289.336       14.855        2.682      492.371       79.442        0.026      348.665       28.522      864.517
07/28/2014  17:38:00     -400.817      -88.575      -46.628      115.937      104.106       61.798    13441.315    10838.052     3819.011        9.938        1.405      410.487       54.036        0.017      348.663       28.520      864.580
07/28/2014  17:39:00     -337.040     -114.789      -27.985      192.063      135.422       77.555    36888.246    18339.007     6014.747        9.439        3.062      356.051       94.713        0.071      348.592       28.396      864.639
07/28/2014  17:40:00     -331.637      -21.366      -14.823      158.885      149.633       75.135    25244.588    22390.019     5645.208        8.196        2.664      332.325       70.468        0.045      348.510       28.254      864.671
07/28/2014  17:41:00     -231.420      -36.360        4.352      169.125      121.461       70.203    28603.113    14752.707     4928.423        5.158        2.414      234.259       69.563        0.088      348.157       27.645      864.724
07/28/2014  17:42:00     -425.448     -103.085      -74.594      160.219      122.008       89.201    25670.037    14885.933     7956.817       12.284        2.426      437.758       58.376        0.018      347.829       27.078      864.810
07/28/2014  17:43:00     -212.795       45.057      -19.930      173.558      162.906       90.294    30122.394    26538.212     8153.001        5.625        3.241      217.513       92.191        0.180      347.784       27.002      864.871
07/28/2014  17:44:00     -180.658      126.501      -16.066      126.568      159.163       90.811    16019.437    25332.722     8246.550        4.924        2.480      220.544       90.793        0.169      348.083       27.516      864.919
07/28/2014  17:45:00     -273.130      140.273      -27.259      176.968      122.672       81.010    31317.566    15048.405     6562.635        7.396        2.646      307.045       90.207        0.086      348.342       27.966      864.912
07/28/2014  17:46:00     -304.189      115.558      -62.097      162.850      144.144       77.364    26519.987    20777.424     5985.216        8.150        2.664      325.399       70.907        0.047      348.438       28.131      864.940
07/28/2014  17:47:00     -230.531       -6.230      -11.479      139.065      143.436       66.973    19338.973    20574.000     4485.416        4.885        2.220      230.615       54.791        0.056      348.336       27.955      864.975
07/28/2014  17:48:00     -230.691       44.387      -28.958      140.251      152.131       82.222    19670.261    23143.815     6760.511        5.279        2.479      234.922       70.860        0.091      348.099       27.546      865.010
07/28/2014  17:49:00     -327.896       57.806      -39.951      151.604      124.641       74.207    22983.875    15535.283     5506.724        7.823        2.201      332.952       63.036        0.036      348.198       27.715      865.015
07/28/2014  17:50:00     -256.845      -14.249      -16.587      171.322      151.355       75.396    29351.100    22908.304     5684.595        6.218        2.897      257.240       68.191        0.070      348.121       27.582      865.021
07/28/2014  17:51:00     -411.834      -51.023      -47.015      180.797      162.903       87.192    32687.417    26537.315     7602.489       12.061        3.341      414.982       49.497        0.014      348.187       27.698      865.068
07/28/2014  17:52:00     -366.140       49.431      -74.186      151.966      198.259       80.433    23093.816    39306.648     6469.493       10.542        3.443      369.462       27.713        0.006      348.126       27.592      865.166
07/28/2014  17:53:00     -438.262      149.896      -64.687      212.350      257.834      110.583    45092.410    66478.286    12228.494       17.124        6.190      463.187       73.603        0.025      348.020       27.407      865.235
07/28/2014  17:54:00     -357.895     -110.760      -19.801      217.839      197.673       97.459    47454.031    39074.697     9498.325       11.837        4.801      374.642       81.634        0.047      348.031       27.426      865.289
07/28/2014  17:55:00     -356.338      361.419      -79.103      158.851      240.179       96.572    25233.766    57685.749     9326.178       17.803        4.612      507.543      115.321        0.052      348.105       27.555      865.440
07/28/2014  17:56:00     -215.577      466.298      -57.030      132.155      184.256       79.075    17465.028    33950.403     6252.817       16.240        2.883      513.719       81.654        0.025      348.052       27.463      865.593
07/28/2014  17:57:00     -175.780      389.930      -53.160       97.508      142.103       63.988     9507.892    20193.243     4094.507       10.978        1.690      427.720       66.499        0.024      347.950       27.288      865.502
07/28/2014  17:58:00     -189.288      298.529      -55.050       73.393       75.776       49.520     5386.488     5742.006     2452.245        7.078        0.679      353.482       31.826        0.008      348.016       27.401      865.481
07/28/2014  17:59:00     -334.551      362.421      -86.426      125.176      143.100       69.864    15669.069    20477.690     4880.918       14.588        2.051      493.227       78.603        0.025      347.906       27.209      865.565
07/28/2014  18:00:00     -240.765      201.182      -49.718      122.578      176.368       59.378    15025.465    31105.577     3525.764        7.528        2.483      313.755       59.165        0.036      347.663       26.792      865.638
07/28/2014  18:01:00     -289.735      358.145      -78.183      100.800      121.719       68.223    10160.736    14815.499     4654.357       12.397        1.482      460.667       61.471        0.018      347.510       26.527      865.720
07/28/2014  18:02:00     -298.716      217.948      -51.518      139.491      111.805       71.459    19457.787    12500.354     5106.351        8.822        1.853      369.774       65.911        0.032      347.420       26.372      865.821
07/28/2014  18:03:00     -282.226       34.583        3.118      175.112      177.155       93.324    30664.094    31383.744     8709.340        7.579        3.538      284.337       96.681        0.116      347.363       26.274      865.866
07/28/2014  18:04:00     -479.977      -84.455      -43.492      248.960      161.938       93.490    61981.052    26224.019     8740.384       16.815        4.847      487.351      104.151        0.046      347.588       26.661      865.866
07/28/2014  18:05:00     -658.500      -96.202      -20.620      241.957      158.762      104.521    58543.163    25205.451    10924.694       26.897        4.734      665.490      106.786        0.026      347.881       27.168      865.923
07/28/2014  18:06:00     -590.804      -77.392      -38.373      209.858      155.732       87.166    44040.564    24252.583     7597.929       21.619        3.795      595.851       99.103        0.028      347.820       27.062      865.971
07/28/2014  18:07:00     -514.216      -39.729      -34.398      199.982      153.027       69.794    39992.827    23417.171     4871.145       16.772        3.414      515.749       65.731        0.016      348.041       27.445      866.012
07/28/2014  18:08:00     -187.717      -67.386      -16.622      127.772       69.936       57.670    16325.746     4891.106     3325.842        3.229        1.227      199.446       52.966        0.071      347.893       27.188      866.067
07/28/2014  18:09:00     -337.123      -35.212      -12.027      131.780       91.786       69.498    17366.080     8424.730     4829.923        7.282        1.531      338.957       64.182        0.036      347.965       27.313      866.104
07/28/2014  18:10:00     -187.640      -25.951       -3.314      114.845       57.127       43.380    13189.381     3263.512     1881.808        2.711        0.917      189.426       48.784        0.066      347.909       27.216      866.127
07/28/2014  18:11:00      -98.355        8.585        5.021       75.559       42.615       31.769     5709.230     1816.052     1009.238        0.915        0.427       98.729       33.647        0.116      347.795       27.023      866.123
07/28/2014  18:12:00      -28.767       40.890        0.248       39.615       26.431       26.962     1569.342      698.599      726.953        0.275        0.150       49.996       26.385        0.279      347.750       26.945      866.120
07/28/2014  18:13:00       41.722       70.129       -0.668       24.111       31.298       29.583      581.339      979.566      875.138        0.455        0.122       81.601       17.963        0.048      347.831       27.084      866.112
07/28/2014  18:14:00       19.464      181.276      -29.681       29.598      114.157       29.929      876.055    13031.798      895.748        2.446        0.740      182.318       44.587        0.060      347.694       26.847      866.102
07/28/2014  18:15:00       18.063      176.479      -14.630       41.087       79.157       39.400     1688.104     6265.865     1552.340        2.059        0.475      177.401       42.508        0.057      347.558       26.612      866.116
07/28/2014  18:16:00       15.025      113.744       -8.739       28.692       39.933       24.395      823.223     1594.646      595.117        0.813        0.151      114.732       18.524        0.026      347.461       26.447      866.128
07/28/2014  18:17:00      103.587       98.370        8.600       52.014       63.829       38.784     2705.431     4074.147     1504.168        1.438        0.414      142.853       33.123        0.054      347.367       26.285      866.142
07/28/2014  18:18:00       66.246      244.800      -29.833       53.756       56.063       43.672     2889.690     3143.083     1907.232        3.657        0.397      253.605       34.987        0.019      347.375       26.293      866.173
07/28/2014  18:19:00       61.351      186.944      -21.899       31.236       44.834       38.448      975.681     2010.068     1478.264        2.183        0.223      196.753       24.323        0.015      347.412       26.360      866.207
07/28/2014  18:20:00       27.676      122.511      -15.162       33.030       66.576       32.117     1090.948     4432.311     1031.479        1.128        0.328      125.598       34.574        0.076      347.301       26.170      866.232
07/28/2014  18:21:00      -15.717      204.599      -32.789       24.756       26.249       11.502      612.844      688.990      132.292        2.231        0.072      205.202        8.697        0.002      347.365       26.281      866.278
07/28/2014  18:22:00      -71.272      271.919      -37.750      109.578      105.007       57.061    12007.424    11026.510     3255.933        5.336        1.314      281.104       53.305        0.036      346.945       25.554      866.334
07/28/2014  18:23:00     -113.053      397.025      -49.797       64.782      132.101       45.442     4196.685    17450.640     2065.008        9.830        1.186      412.807       44.501        0.012      346.681       25.099      866.342
07/28/2014  18:24:00      -76.406      219.699      -31.435       85.996       98.643       55.164     7395.238     9730.349     3043.015        3.763        1.008      232.606       57.202        0.060      346.553       24.880      866.344
07/28/2014  18:25:00     -127.976      389.992      -38.949       93.185      153.037       68.369     8683.502    23420.428     4674.344       10.338        1.839      410.453       72.072        0.031      346.655       25.054      866.343
07/28/2014  18:26:00      -87.535      427.030      -54.345       88.008      109.489       61.280     7745.323    11987.799     3755.288       10.822        1.174      435.909       45.407        0.011      346.623       25.002      866.321
07/28/2014  18:27:00        6.975      403.872      -46.918       99.357      151.310       64.616     9871.764    22894.828     4175.283       10.114        1.847      403.932       71.389        0.031      346.601       24.963      866.311
07/28/2014  18:28:00       12.457      474.628      -65.974       87.767      138.528       57.800     7703.132    19190.062     3340.891       13.000        1.512      474.791       58.962        0.015      346.541       24.858      866.275
07/28/2014  18:29:00       48.351      356.395      -15.630      119.361      169.868       99.999    14247.012    28855.174     9999.886        9.134        2.655      359.660       98.936        0.076      346.607       24.972      866.271
07/28/2014  18:30:00       84.782      371.271      -25.357      137.707      216.614      116.520    18963.244    46921.523    13577.007       11.255        3.973      380.829      132.276        0.121      346.632       25.015      866.256
07/28/2014  18:31:00       63.038      291.424      -10.185      121.031      197.810      108.986    14648.488    39128.608    11877.870        7.732        3.283      298.163      109.720        0.135      346.800       25.306      866.247
07/28/2014  18:32:00       74.055      282.848      -20.105      119.492      197.548       92.318    14278.379    39025.395     8522.540        7.385        3.091      292.382      102.113        0.122      346.911       25.497      866.250
07/28/2014  18:33:00       69.572      202.163       -7.359       80.864      140.069       71.605     6538.978    19619.273     5127.210        3.852        1.564      213.799       74.904        0.123      346.477       24.750      866.313
07/28/2014  18:34:00       86.418      241.798      -25.493       85.100      106.926       76.549     7242.058    11433.102     5859.764        4.555        1.227      256.777       71.502        0.078      346.356       24.541      866.383
07/28/2014  18:35:00       -4.634      388.563      -49.425       79.669      108.582       50.526     6347.228    11789.996     2552.908        8.706        1.035      388.590       58.426        0.023      346.601       24.963      866.434
07/28/2014  18:36:00       -5.386      387.698      -57.534       84.661       74.553       40.322     7167.565     5558.094     1625.845        8.400        0.718      387.736       35.968        0.009      346.616       24.988      866.500
07/28/2014  18:37:00      -70.333      290.057      -38.640       72.878       68.592       36.382     5311.133     4704.865     1323.672        5.095        0.567      298.462       28.354        0.009      346.186       24.247      866.575
07/28/2014  18:38:00      -39.367      219.190      -22.113       60.669       74.501       35.722     3680.774     5550.426     1276.040        3.029        0.525      222.697       39.090        0.031      346.133       24.158      866.602
07/28/2014  18:39:00        2.982      276.891      -32.438       61.009       57.921       32.480     3722.085     3354.851     1054.926        4.293        0.407      276.907       30.913        0.012      346.104       24.106      866.632
07/28/2014  18:40:00        8.041      324.027      -41.912       62.973       57.808       39.451     3965.585     3341.793     1556.391        5.784        0.443      324.126       25.225        0.006      346.173       24.224      866.646
07/28/2014  18:41:00      -58.930      257.317      -34.614       48.306       47.836       29.216     2333.448     2288.288      853.588        3.818        0.274      263.979       23.989        0.008      346.130       24.150      866.662
07/28/2014  18:42:00      -35.433      239.797      -31.198       43.067       51.926       26.981     1854.768     2696.330      727.948        3.250        0.264      242.401       26.159        0.012      346.284       24.415      866.689
07/28/2014  18:43:00      -38.610      261.422      -28.419       47.377       52.204       28.214     2244.597     2725.236      796.016        3.820        0.288      264.258       24.415        0.009      346.144       24.176      866.714
07/28/2014  18:44:00      -63.509      219.470      -24.712       49.024       73.204       36.088     2403.374     5358.842     1302.340        3.094        0.453      228.474       38.259        0.028      346.221       24.310      866.748
07/28/2014  18:45:00     -125.850      153.010      -20.010       65.238       71.404       44.056     4256.050     5098.516     1940.890        2.547        0.565      198.117       33.355        0.028      346.307       24.456      866.783
07/28/2014  18:46:00     -166.766      225.057      -38.548       86.900       84.736       51.378     7551.677     7180.207     2639.699        4.866        0.869      280.110       50.094        0.032      346.817       25.334      866.820
07/28/2014  18:47:00     -112.814      272.851      -33.446       68.632       82.120       43.544     4710.337     6743.613     1896.075        5.082        0.668      295.253       46.217        0.025      346.699       25.130      866.847
07/28/2014  18:48:00     -100.906      343.783      -43.353       65.181      101.315       48.967     4248.581    10264.768     2397.779        7.358        0.846      358.286       48.172        0.018      346.579       24.924      866.897
07/28/2014  18:49:00     -121.757      411.970      -49.112       78.292       95.570       50.341     6129.583     9133.531     2534.260       10.237        0.890      429.586       40.062        0.009      346.462       24.724      866.947
07/28/2014  18:50:00      -79.571      335.243      -38.419       58.340       73.725       34.175     3403.510     5435.403     1167.919        6.510        0.500      344.557       33.036        0.009      346.189       24.252      866.968
07/28/2014  18:51:00      -54.681      368.565      -48.417       68.791      110.950       44.086     4732.245    12309.979     1943.571        8.008        0.949      372.599       42.479        0.013      345.891       23.742      866.975
07/28/2014  18:52:00      -55.536      369.340      -45.493       63.380      121.844       35.624     4016.970    14846.017     1269.085        8.085        1.007      373.492       53.641        0.021      345.724       23.456      866.934
07/28/2014  18:53:00      -39.346      278.952      -37.958       47.006       55.589       36.444     2209.561     3090.136     1328.201        4.371        0.331      281.714       31.255        0.012      345.672       23.365      866.859
07/28/2014  18:54:00      -25.861      270.480      -38.047       53.437       58.940       28.725     2855.481     3473.910      825.142        4.121        0.358      271.713       14.099        0.003      345.447       22.978      866.853
07/28/2014  18:55:00      -26.130      248.135      -35.410       46.601       48.380       27.935     2171.623     2340.649      780.372        3.440        0.265      249.507       24.320        0.010      345.261       22.661      866.875
07/28/2014  18:56:00      -56.929      175.948      -21.491       37.049       61.481       29.693     1372.655     3779.929      881.699        2.035        0.302      184.928       34.322        0.034      345.353       22.820      866.843
07/28/2014  18:57:00      -19.730      128.666      -10.551       35.300       37.773       25.117     1246.122     1426.801      630.846        1.018        0.165      130.170       23.585        0.033      345.394       22.891      866.774
07/28/2014  18:58:00      -41.354       22.433       -6.518       23.690       43.798       15.220      561.200     1918.282      231.660        0.248        0.136       47.046       19.007        0.163      345.294       22.721      866.730
07/28/2014  18:59:00      -34.355       -7.133       -1.454       23.781       19.986       12.757      565.556      399.440      162.739        0.118        0.056       35.088       13.237        0.142      345.478       23.036      866.652
07/28/2014  19:00:00      -25.760      -50.225       -4.127       27.068       21.247       20.068      732.652      451.425      402.709        0.239        0.079       56.446       10.608        0.035      345.347       22.812      866.595
07/28/2014  19:01:00      -13.314      -52.377      -15.239       17.803       24.921        6.842      316.944      621.054       46.817        0.207        0.049       54.043        7.439        0.019      345.404       22.912      866.561
07/28/2014  19:02:00      -22.512       12.223        2.229       17.457       19.080        7.938      304.738      364.043       63.013        0.070        0.037       25.616        7.427        0.084      345.368       22.847      866.569
07/28/2014  19:03:00      -31.755       49.915        1.523       16.882       18.697       17.233      285.019      349.568      296.965        0.222        0.047       59.160       12.414        0.044      345.295       22.722      866.594
07/28/2014  19:04:00      -30.669       91.335      -11.158       14.607       23.066       15.153      213.370      532.028      229.624        0.519        0.049       96.346       12.997        0.018      345.319       22.765      866.621
07/28/2014  19:05:00       -7.006       84.268       -1.960       25.642       19.229       16.757      657.508      369.740      280.800        0.423        0.065       84.559       11.534        0.019      345.513       23.097      866.594
07/28/2014  19:06:00       37.494       54.406       -1.855       16.496       24.445       17.729      272.111      597.549      314.324        0.278        0.059       66.074       16.363        0.061      345.352       22.819      866.542
07/28/2014  19:07:00       36.920       53.114       -4.627       18.442       35.155       15.348      340.102     1235.883      235.576        0.301        0.091       64.685       16.230        0.063      345.518       23.107      866.521
07/28/2014  19:08:00       25.772        9.929        2.542       28.205       23.051       14.210      795.510      531.369      201.915        0.115        0.076       27.618       13.339        0.233      345.287       22.709      866.509
07/28/2014  19:09:00       24.711        3.691        3.045       18.685       15.405        8.561      349.136      237.319       73.291        0.065        0.033       24.985        6.468        0.067      345.347       22.812      866.490
07/28/2014  19:10:00       19.812       14.599       10.330       11.657       13.220        8.629      135.895      174.757       74.465        0.055        0.019       24.610        3.729        0.023      345.314       22.756      866.475
07/28/2014  19:11:00       33.524       24.468        0.733       11.959       16.473        7.426      143.007      271.366       55.152        0.110        0.023       41.503        3.059        0.005      345.402       22.905      866.452
07/28/2014  19:12:00       63.980       70.361       25.280       15.971       11.571       21.052      255.082      133.880      443.171        0.526        0.042       95.101       13.169        0.019      345.490       23.056      866.410
07/28/2014  19:13:00      132.521       63.508       23.906       42.098       21.900       27.406     1772.266      479.616      751.087        1.258        0.150      146.952       21.645        0.022      345.217       22.590      866.387
07/28/2014  19:14:00      169.759       74.217       26.856       41.025       35.893       38.619     1683.034     1288.280     1491.426        1.975        0.223      185.273       24.141        0.017      345.170       22.508      866.362
07/28/2014  19:15:00      196.837      103.610       26.043       49.739       44.580       42.093     2473.932     1987.355     1771.809        2.819        0.312      222.441       31.151        0.020      344.943       22.117      866.367
07/28/2014  19:16:00      147.974       71.123        2.523       73.211       59.334       37.165     5359.803     3520.582     1381.252        1.861        0.513      164.179       31.646        0.037      344.733       21.760      866.349
07/28/2014  19:17:00      190.621      107.498       38.910       58.492       50.276       50.327     3421.319     2527.643     2532.763        2.894        0.424      218.843       34.864        0.025      344.825       21.915      866.307
07/28/2014  19:18:00      105.111      127.957      106.750       53.893       51.440       42.760     2904.465     2646.087     1828.388        2.310        0.369      165.594       20.644        0.016      345.026       22.260      866.238
07/28/2014  19:19:00       59.018       33.816       65.017       59.509       72.459       41.980     3541.353     5250.362     1762.308        0.970        0.528       68.020       46.352        0.464      345.145       22.468      866.185
07/28/2014  19:20:00       69.495       32.731       88.220       88.537       83.103       62.858     7838.748     6906.139     3951.111        1.619        0.935       76.818       65.153        0.719      345.200       22.558      866.136
07/28/2014  19:21:00       22.883      113.129      115.890       54.543       62.630       60.915     2974.973     3922.465     3710.677        1.868        0.530      115.420       51.915        0.202      345.327       22.776      866.105
07/28/2014  19:22:00       50.801       59.009      104.846       72.721      102.967       54.198     5288.407    10602.264     2937.405        1.794        0.941       77.864       66.839        0.737      345.377       22.863      866.089
07/28/2014  19:23:00       45.975       39.159       78.534       54.022       82.651       48.589     2918.369     6831.190     2360.907        1.096        0.606       60.391       46.493        0.593      345.389       22.884      866.047
07/28/2014  19:24:00       81.457       -6.670       64.296       73.096       90.218       49.354     5343.052     8139.349     2435.788        1.336        0.796       81.730       50.053        0.375      345.432       22.958      865.987
07/28/2014  19:25:00       90.820        3.284       57.711       59.537       59.634       46.088     3544.703     3556.176     2124.065        1.041        0.461       90.879       29.499        0.105      345.425       22.946      865.938
07/28/2014  19:26:00      104.094      -72.403       43.377       84.785      103.995       62.754     7188.518    10815.044     3938.126        1.995        1.097      126.798       64.583        0.259      345.607       23.257      865.868
07/28/2014  19:27:00      119.196     -230.217       -2.854       57.940       57.043       41.922     3357.101     3253.877     1757.437        3.779        0.418      259.245       35.599        0.019      345.828       23.632      865.767
07/28/2014  19:28:00       75.584     -135.360       11.249       68.710      117.913       65.266     4721.051    13903.519     4259.688        2.352        1.144      155.033       72.811        0.221      345.808       23.602      865.679
07/28/2014  19:29:00      -17.990      -50.498       18.922       88.654       75.936       40.186     7859.570     5766.255     1614.916        0.923        0.762       53.606       37.271        0.483      345.613       23.266      865.605
07/28/2014  19:30:00     -146.562     -147.707      -12.369      121.927      110.468       54.888    14866.289    12203.190     3012.700        3.676        1.504      208.081       53.902        0.067      345.745       23.492      865.519
07/28/2014  19:31:00     -140.309     -195.542       -0.089       99.782      110.992       55.418     9956.518    12319.259     3071.203        4.163        1.267      240.673       45.076        0.035      345.891       23.743      865.509
07/28/2014  19:32:00      -77.902     -167.962       -3.119       91.255       84.100       44.042     8327.428     7072.849     1939.724        2.581        0.867      185.148       41.503        0.050      345.972       23.882      865.477
07/28/2014  19:33:00     -154.231     -221.374       -4.257       96.473      105.259       63.044     9306.947    11079.555     3974.573        4.858        1.218      269.803       48.735        0.033      346.049       24.014      865.444
07/28/2014  19:34:00     -194.453     -264.610      -10.968      117.708      115.727       61.636    13855.181    13392.795     3798.972        6.949        1.552      328.376       56.504        0.030      346.092       24.087      865.422
07/28/2014  19:35:00     -129.578     -186.455       -4.714       82.197       81.470       45.118     6756.294     6637.331     2035.590        3.350        0.771      227.059       37.874        0.028      346.065       24.041      865.423
07/28/2014  19:36:00      -85.134     -143.507       20.448      138.818      104.103       56.295    19270.454    10837.469     3169.114        3.076        1.664      166.860       71.316        0.183      346.146       24.182      865.425
07/28/2014  19:37:00     -101.372     -155.129       13.321      128.435       86.240       51.306    16495.507     7437.385     2632.255        3.054        1.328      185.314       56.005        0.091      346.302       24.448      865.438
07/28/2014  19:38:00     -168.135     -184.145      -16.673       87.577       63.273       42.972     7669.764     4003.438     1846.559        3.799        0.676      249.356       21.107        0.007      346.375       24.576      865.444
07/28/2014  19:39:00     -117.657     -167.115      -13.087       99.149      108.381       56.426     9830.522    11746.453     3183.911        3.335        1.238      204.378       56.831        0.077      346.460       24.722      865.433
07/28/2014  19:40:00     -146.579     -174.406       -5.233      146.242      121.227       60.700    21386.735    14695.916     3684.512        4.584        1.988      227.822       77.734        0.116      346.538       24.854      865.423
07/28/2014  19:41:00     -152.384     -154.410        5.378      131.576       89.414       55.066    17312.275     7994.859     3032.315        3.771        1.417      216.941       59.171        0.074      346.620       24.996      865.419
07/28/2014  19:42:00     -188.765     -241.697       -6.584      103.598      118.334       55.723    10732.560    14002.885     3105.016        6.096        1.392      306.675       47.442        0.024      346.686       25.107      865.401
07/28/2014  19:43:00     -195.302     -230.184       -4.243      111.438      107.917       64.446    12418.445    11646.092     4153.327        5.968        1.411      301.873       53.336        0.031      346.721       25.168      865.362
07/28/2014  19:44:00      -86.690     -206.664       21.532      146.605      134.064       64.656    21493.074    17973.035     4180.398        4.716        2.182      224.110       56.560        0.064      346.884       25.451      865.360
07/28/2014  19:45:00     -153.106     -125.326       12.742      137.819       76.941       56.276    18994.197     5919.965     3166.952        3.369        1.404      197.859       52.380        0.070      347.013       25.672      865.337
07/28/2014  19:46:00      -18.700     -155.427       -8.513      118.895       86.727       57.922    14135.928     7521.489     3354.929        2.479        1.251      156.548       36.946        0.056      347.029       25.699      865.306
07/28/2014  19:47:00      -95.462     -118.831       -0.671      109.328       92.024       43.463    11952.611     8468.412     1889.068        2.277        1.116      152.427       43.330        0.081      347.085       25.797      865.307
07/28/2014  19:48:00     -187.042     -184.135      -15.186       96.436       92.810       46.138     9299.856     8613.738     2128.735        4.458        1.002      262.470       42.373        0.026      347.154       25.914      865.308
07/28/2014  19:49:00     -232.375     -153.479        3.330      120.812      106.132       63.943    14595.660    11263.900     4088.653        5.375        1.497      278.485       60.734        0.048      347.175       25.950      865.329
07/28/2014  19:50:00     -338.438     -140.324      -13.186      142.852       98.231       60.273    20406.556     9649.338     3632.866        8.404        1.684      366.375       61.341        0.028      347.043       25.722      865.363
07/28/2014  19:51:00     -295.618     -132.291      -10.766      111.509       84.273       54.961    12434.252     7101.898     3020.674        6.378        1.128      323.868       59.285        0.034      346.345       24.522      865.369
07/28/2014  19:52:00     -210.225      -52.014        7.750      115.733       98.203       49.910    13394.047     9643.880     2491.010        3.624        1.276      216.564       52.145        0.058      346.070       24.050      865.335
07/28/2014  19:53:00     -301.199      -58.061       -0.119      141.697      105.313       57.154    20077.921    11090.735     3266.560        6.426        1.722      306.744       67.271        0.048      346.026       23.973      865.314
07/28/2014  19:54:00     -260.427     -108.832       -3.157      132.611      110.401       63.957    17585.673    12188.375     4090.558        5.676        1.693      282.252       66.547        0.056      345.898       23.755      865.314
07/28/2014  19:55:00     -268.745     -170.486       -7.264      185.519      142.361       84.433    34417.333    20266.663     7128.929        8.157        3.091      318.259       97.687        0.094      346.113       24.124      865.309
07/28/2014  19:56:00     -331.440     -162.341      -15.517      144.864      130.076       68.355    20985.573    16919.787     4672.406        8.950        2.129      369.063       66.683        0.033      346.260       24.375      865.315
07/28/2014  19:57:00     -285.057     -160.998       16.492      180.080      137.752       82.202    32428.974    18975.524     6757.250        8.279        2.908      327.380       99.384        0.092      346.483       24.761      865.301
07/28/2014  19:58:00     -227.235     -204.841        6.595      128.846      140.573       71.855    16601.348    19760.722     5163.133        6.757        2.076      305.934       86.006        0.079      346.852       25.394      865.272
07/28/2014  19:59:00     -264.460     -156.062        1.112      150.677      113.455       63.831    22703.526    12871.991     4074.377        6.696        1.982      307.074       75.024        0.060      346.671       25.082      865.305
07/28/2014  20:00:00     -261.124     -217.691        5.228      145.406      146.333       86.595    21143.028    21413.373     7498.776        8.282        2.503      339.963       89.152        0.069      346.286       24.420      865.340
07/28/2014  20:01:00     -434.287     -209.477        2.324      231.959      166.039       96.365    53805.183    27568.804     9286.217       16.156        4.533      482.168      104.399        0.047      346.078       24.064      865.344
07/28/2014  20:02:00     -304.104     -252.357       -1.364      148.037      146.912       82.506    21914.879    21583.021     6807.162       10.323        2.515      395.175       82.988        0.044      345.996       23.922      865.358
07/28/2014  20:03:00     -376.959     -197.228      -32.862      141.537      101.228       67.848    20032.668    10247.033     4603.348       10.847        1.744      425.437       70.345        0.027      345.963       23.867      865.351
07/28/2014  20:04:00     -257.216     -160.208       -0.038      193.086      111.757       74.170    37282.283    12489.603     5501.263        7.354        2.764      303.030       96.348        0.101      345.994       23.919      865.370
07/28/2014  20:05:00     -292.570     -101.969       -0.689      131.011      103.008       55.230    17163.986    10610.624     3050.398        6.340        1.541      309.831       61.446        0.039      346.041       24.000      865.379
07/28/2014  20:06:00     -241.263     -195.243       -2.430      139.658      140.283       70.517    19504.488    19679.247     4972.707        7.024        2.208      310.367       66.509        0.046      346.016       23.957      865.393
07/28/2014  20:07:00     -226.239     -141.747      -14.802      127.201       88.488       54.888    16180.030     7830.140     3012.671        4.925        1.351      266.976       51.152        0.037      345.954       23.849      865.424
07/28/2014  20:08:00     -151.115     -112.372       -3.493      106.188       87.015       59.471    11275.851     7571.540     3536.828        2.893        1.119      188.317       58.620        0.097      345.986       23.907      865.427
07/28/2014  20:09:00     -192.463     -112.900       -2.605      125.295       94.194       65.064    15698.919     8872.574     4233.370        3.929        1.440      223.134       55.530        0.062      345.979       23.895      865.445
07/28/2014  20:10:00     -155.085     -105.384        6.519      121.414       94.396       57.864    14741.362     8910.670     3348.213        3.109        1.350      187.502       61.713        0.108      345.954       23.850      865.447
07/28/2014  20:11:00     -181.282     -125.293      -16.582      108.609      107.513       59.732    11795.973    11559.074     3567.970        3.787        1.346      220.367       64.608        0.086      345.990       23.912      865.440
07/28/2014  20:12:00     -232.933      -95.165       -1.368      128.489       95.031       56.154    16509.353     9030.920     3153.301        4.600        1.435      251.623       57.003        0.051      346.033       23.986      865.424
07/28/2014  20:13:00     -198.540     -144.377       -1.319      140.805       87.825       60.641    19826.120     7713.315     3677.290        4.573        1.561      245.485       69.367        0.080      346.339       24.513      865.409
07/28/2014  20:14:00     -243.994      -36.083        7.634      119.824       93.367       58.793    14357.689     8717.306     3456.584        4.371        1.327      246.648       59.354        0.058      346.372       24.569      865.399
07/28/2014  20:15:00     -343.045      -88.269      -11.099      131.296      121.842       57.605    17238.616    14845.548     3318.392        8.049        1.770      354.220       60.089        0.029      346.371       24.566      865.406
07/28/2014  20:16:00     -369.151      -83.440      -17.371       94.200       82.175       54.388     8873.616     6752.769     2958.019        8.106        0.929      378.464       44.472        0.014      346.282       24.413      865.412
07/28/2014  20:17:00     -230.752     -115.375       12.221      141.818      112.673       69.452    20112.318    12695.294     4823.548        5.216        1.882      257.988       70.147        0.074      346.386       24.594      865.397
07/28/2014  20:18:00     -311.389      -56.167       -4.797      128.581       97.080       66.040    16533.161     9424.556     4361.300        6.522        1.516      316.414       75.377        0.057      346.276       24.402      865.403
07/28/2014  20:19:00     -359.191      -99.175      -27.454      110.460       94.615       66.035    12201.490     8951.995     4360.571        8.256        1.276      372.631       60.567        0.026      346.263       24.381      865.415
07/28/2014  20:20:00     -247.092      -61.370       -9.811      110.687       86.994       51.626    12251.655     7567.927     2665.238        4.370        1.124      254.599       52.281        0.042      346.230       24.322      865.432
07/28/2014  20:21:00     -262.268     -101.663        2.394      101.706       88.490       65.280    10344.088     7830.535     4261.449        5.078        1.122      281.283       41.417        0.022      346.246       24.352      865.458
07/28/2014  20:22:00     -270.459      -46.930      -13.621       88.583       75.557       49.571     7846.864     5708.933     2457.330        4.577        0.801      274.500       40.497        0.022      346.181       24.241      865.472
07/28/2014  20:23:00     -226.815      -74.794       -7.527       84.433       69.338       44.854     7129.007     4807.757     2011.880        3.552        0.697      238.829       42.084        0.031      346.177       24.233      865.493
07/28/2014  20:24:00     -215.030      -59.110        7.919      118.681      102.680       55.891    14085.212    10543.135     3123.767        3.877        1.388      223.006       58.184        0.068      346.225       24.317      865.504
07/28/2014  20:25:00     -333.821      -22.842       -5.863      142.717      102.120       63.388    20368.123    10428.562     4018.074        7.340        1.741      334.601       76.093        0.052      346.214       24.296      865.522
07/28/2014  20:26:00     -245.951      -40.547       -8.831      129.846       86.197       54.559    16860.036     7429.936     2976.707        4.473        1.363      249.271       55.543        0.050      346.194       24.261      865.545
07/28/2014  20:27:00     -228.689      -31.480       -8.041       84.896       81.227       49.788     7207.304     6597.795     2478.796        3.482        0.814      230.845       49.870        0.047      346.160       24.205      865.580
07/28/2014  20:28:00     -263.944      -82.830        1.293       89.619       81.537       50.070     8031.587     6648.248     2507.024        4.685        0.859      276.636       42.627        0.024      346.175       24.230      865.614
07/28/2014  20:29:00     -143.329      -26.681       10.649       88.700       75.382       42.252     7867.621     5682.478     1785.217        1.835        0.767      145.792       42.504        0.085      346.150       24.189      865.641
07/28/2014  20:30:00     -193.057      -75.902       -9.499       71.893       73.488       46.123     5168.586     5400.555     2127.347        2.791        0.635      207.442       41.911        0.041      346.197       24.268      865.662
07/28/2014  20:31:00     -162.488      -58.962       -2.349       82.817       66.564       36.272     6858.679     4430.830     1315.686        2.124        0.630      172.854       36.244        0.044      346.196       24.267      865.671
07/28/2014  20:32:00     -178.382      -98.661      -17.303       80.688       81.634       39.113     6510.530     6664.051     1529.864        2.828        0.735      203.848       40.970        0.040      346.227       24.319      865.672
07/28/2014  20:33:00     -176.277     -101.478        3.257       92.532       58.368       37.988     8562.144     3406.782     1443.066        2.739        0.671      203.399       39.817        0.038      346.241       24.344      865.678
07/28/2014  20:34:00      -99.859      -59.310        8.371       83.809       50.787       38.553     7023.875     2579.354     1486.302        1.232        0.554      116.144       33.117        0.081      346.264       24.387      865.676
07/28/2014  20:35:00     -143.901     -104.282       -7.047       95.233       67.077       43.593     9069.261     4499.262     1900.362        2.355        0.773      177.714       49.439        0.077      346.254       24.366      865.682
07/28/2014  20:36:00     -120.101      -93.547       10.459       67.287       54.449       38.049     4527.590     2964.676     1447.713        1.611        0.447      152.234       42.028        0.076      346.224       24.316      865.691
07/28/2014  20:37:00     -173.710     -142.605      -10.371       99.276       72.224       46.588     9855.749     5216.279     2170.425        3.393        0.862      224.747       43.917        0.038      346.199       24.268      865.696
07/28/2014  20:38:00     -179.513     -109.609       -4.166      112.212       67.719       40.533    12591.589     4585.820     1642.915        3.153        0.941      210.331       39.310        0.035      346.178       24.235      865.711
07/28/2014  20:39:00     -132.746      -92.112        4.018       66.733       68.540       39.835     4453.277     4697.765     1586.823        1.843        0.537      161.574       33.785        0.044      346.161       24.208      865.719
07/28/2014  20:40:00     -160.114      -81.453       -6.723       83.336       58.038       29.571     6944.921     3368.443      874.474        2.175        0.559      179.641       22.461        0.016      346.211       24.292      865.727
07/28/2014  20:41:00      -94.254      -57.528       -3.141       46.192       35.477       24.452     2133.699     1258.598      597.910        0.810        0.200      110.423       20.486        0.034      346.212       24.293      865.742
07/28/2014  20:42:00      -75.533     -120.387        1.357       53.091       57.427       37.196     2818.609     3297.807     1383.566        1.385        0.375      142.120       22.230        0.024      346.250       24.361      865.748
07/28/2014  20:43:00      -30.231      -96.304        9.109       51.036       38.011       26.969     2604.638     1444.863      727.303        0.752        0.239      100.938       16.135        0.026      346.253       24.368      865.756
07/28/2014  20:44:00      -30.451     -110.530        8.154       55.702       61.339       37.894     3102.743     3762.454     1435.947        1.075        0.415      114.647       33.930        0.088      346.246       24.356      865.756
07/28/2014  20:45:00      -60.099      -66.130       -2.954       46.618       37.111       19.036     2173.266     1377.226      362.370        0.595        0.196       89.360       10.914        0.015      346.212       24.297      865.760
07/28/2014  20:46:00        2.687      -83.727       -5.265       26.851       45.377       21.480      720.988     2059.111      461.372        0.514        0.162       83.770       16.783        0.040      346.194       24.268      865.768
07/28/2014  20:47:00      -28.269      -69.488        1.646       42.903       32.852       29.432     1840.694     1079.236      866.261        0.471        0.189       75.018       10.665        0.020      346.146       24.184      865.780
07/28/2014  20:48:00       -4.155      -78.468      -21.491       42.700       42.596       21.705     1823.320     1814.406      471.103        0.537        0.205       78.578       17.167        0.048      346.174       24.235      865.784
07/28/2014  20:49:00      -35.688     -147.656       -3.190       52.026       50.720       26.768     2706.718     2572.496      716.508        1.454        0.300      151.908        8.201        0.003      346.185       24.252      865.805
07/28/2014  20:50:00       -0.834      -68.248        4.205       45.865       31.165       19.926     2103.626      971.272      397.035        0.407        0.174       68.253       19.169        0.079      346.183       24.248      865.826
07/28/2014  20:51:00      -48.422      -60.703        3.804       54.603       26.774       22.545     2981.513      716.859      508.300        0.512        0.210       77.650       25.361        0.107      346.145       24.184      865.851
07/28/2014  20:52:00       -8.511      -70.491       24.589       54.216       50.299       28.727     2939.337     2529.959      825.216        0.597        0.315       71.003       32.668        0.212      346.184       24.249      865.866
07/28/2014  20:53:00     -100.621      -41.775        3.968       64.379       35.521       28.261     4144.666     1261.742      798.696        0.904        0.310      108.949       28.521        0.069      346.170       24.223      865.883
07/28/2014  20:54:00        7.221      -59.006       11.762       20.161       30.385       18.391      406.477      923.229      338.240        0.267        0.083       59.446       13.220        0.049      346.193       24.265      865.901
07/28/2014  20:55:00      -33.792      -64.591        7.863       23.053       35.710       14.399      531.460     1275.175      207.338        0.369        0.101       72.897       12.484        0.029      346.194       24.265      865.909
07/28/2014  20:56:00      -18.685      -44.679       -0.677       14.286       29.119       14.145      204.100      847.909      200.088        0.180        0.063       48.429       13.262        0.075      346.249       24.361      865.907
07/28/2014  20:57:00      -65.100      -42.378       -6.245       32.468       18.204       14.304     1054.150      331.389      204.617        0.383        0.080       77.679       10.667        0.019      346.189       24.257      865.920
07/28/2014  20:58:00       -3.602      -36.300       -2.449       15.781       16.294       12.914      249.026      265.498      166.763        0.101        0.034       36.479        3.762        0.011      346.180       24.242      865.926
07/28/2014  20:59:00       -0.062       -6.941        5.445       27.551        9.067       10.165      759.032       82.215      103.336        0.051        0.047        6.942       12.372        3.177      346.216       24.298      865.938
07/28/2014  21:00:00       32.425      -69.017        3.367       23.441       20.911       14.846      549.468      437.284      220.404        0.352        0.060       76.254       11.592        0.023      346.209       24.290      865.940
07/28/2014  21:01:00       -4.643      -74.752       -9.369       34.124       34.689       19.590     1164.467     1203.304      383.752        0.422        0.138       74.896       14.690        0.038      346.274       24.403      865.957
07/28/2014  21:02:00      -15.912      -92.769        4.779       28.185       37.635       23.526      794.399     1416.398      553.464        0.582        0.138       94.124       19.740        0.044      346.205       24.288      865.967
07/28/2014  21:03:00      -19.668      -39.136        0.174       30.849       50.499       23.455      951.634     2550.159      550.135        0.298        0.203       43.800       26.420        0.364      346.190       24.260      865.974
07/28/2014  21:04:00      -23.922      -44.578      -13.161       45.813       43.299       24.963     2098.837     1874.823      623.158        0.366        0.230       50.591       17.245        0.116      346.197       24.271      865.987
07/28/2014  21:05:00       -3.194      -33.558        5.440       31.672       42.136       19.755     1003.084     1775.454      390.269        0.217        0.158       33.709       16.080        0.228      346.207       24.289      866.012
07/28/2014  21:06:00      -29.872      -35.421      -19.629       32.269       48.998       20.515     1041.283     2400.768      420.874        0.320        0.193       46.336       21.213        0.210      346.211       24.293      866.043
07/28/2014  21:07:00      -51.848      -33.984        0.981       22.589       23.716       11.386      510.257      562.454      129.638        0.252        0.060       61.993       10.126        0.027      346.149       24.190      866.062
07/28/2014  21:08:00      -21.354      -51.597       -5.679       26.464       20.149       22.068      700.357      405.963      486.978        0.237        0.080       55.841       15.599        0.078      346.159       24.206      866.082
07/28/2014  21:09:00       18.334      -52.625        5.605       26.806       28.381       15.667      718.577      805.507      245.456        0.245        0.088       55.727       10.394        0.035      346.176       24.236      866.091
07/28/2014  21:10:00       -7.925      -27.926       -0.082       13.664       20.875       12.339      186.697      435.765      152.251        0.081        0.039       29.029        8.261        0.081      346.167       24.221      866.097
07/28/2014  21:11:00      -22.452      -21.706       -8.771       26.415       19.157       11.146      697.748      366.972      124.234        0.112        0.059       31.228        9.773        0.098      346.164       24.216      866.110
07/28/2014  21:12:00       10.176      -48.867       14.326       33.774       37.864       23.313     1140.682     1433.707      543.518        0.291        0.156       49.915       28.320        0.322      346.159       24.206      866.122
07/28/2014  21:13:00      -26.887      -85.081        6.118       26.148       24.826       22.792      683.728      616.332      519.453        0.491        0.091       89.228       16.067        0.032      346.185       24.251      866.123
07/28/2014  21:14:00      -35.156     -104.362       -4.871       28.620       27.195       16.820      819.088      739.585      282.922        0.700        0.092      110.125       12.376        0.013      346.140       24.171      866.124
07/28/2014  21:15:00      -12.496      -96.597      -15.737       53.287       23.114       21.776     2839.485      534.276      474.198        0.679        0.192       97.402       17.255        0.031      346.117       24.133      866.135
07/28/2014  21:16:00      -26.678      -55.487       -6.372       27.582       29.951       18.212      760.784      897.089      331.691        0.291        0.099       61.567       13.627        0.049      346.095       24.094      866.132
07/28/2014  21:17:00       -7.721      -53.469        8.945       33.002       33.942       31.650     1089.133     1152.076     1001.692        0.312        0.162       54.024       17.767        0.108      346.055       24.028      866.120
07/28/2014  21:18:00        5.475      -87.984      -22.716       41.529       40.781       27.821     1724.690     1663.056      774.020        0.622        0.208       88.155       22.710        0.066      346.060       24.036      866.131
07/28/2014  21:19:00      -40.971      -56.903       -3.491       40.538       37.298       23.893     1643.302     1391.132      570.887        0.427        0.180       70.119       19.864        0.080      346.065       24.044      866.142
07/28/2014  21:20:00      -21.422      -72.209       -7.108       26.500       43.022       19.727      702.265     1850.883      389.141        0.433        0.147       75.319       14.960        0.039      346.064       24.044      866.148
07/28/2014  21:21:00      -36.990      -62.500      -10.123       29.826       23.383       22.618      889.568      546.757      511.577        0.366        0.097       72.626       17.217        0.056      346.155       24.201      866.144
07/28/2014  21:22:00      -31.896      -44.036        5.626       28.404       26.528       17.402      806.763      703.746      302.816        0.240        0.091       54.374       11.857        0.048      346.111       24.125      866.160
07/28/2014  21:23:00      -44.060      -87.760       -3.780       39.045       32.105       21.603     1524.501     1030.730      466.680        0.634        0.151       98.199       12.363        0.016      346.197       24.269      866.177
07/28/2014  21:24:00       -5.527      -57.339        4.882       32.322       46.827       28.918     1044.690     2192.813      836.254        0.371        0.204       57.605       20.712        0.129      346.190       24.260      866.173
07/28/2014  21:25:00      -49.784      -66.954        6.317       29.797       39.273       21.046      887.878     1542.338      442.914        0.494        0.144       83.435       17.514        0.044      346.272       24.399      866.189
07/28/2014  21:26:00      -29.742      -90.812       -3.038       34.142       33.813       27.006     1165.695     1143.302      729.328        0.609        0.152       95.559       15.207        0.025      346.303       24.454      866.184
07/28/2014  21:27:00       14.004      -52.224        1.677       32.797       38.557       41.713     1075.664     1486.671     1739.961        0.361        0.215       54.069       27.945        0.267      346.292       24.434      866.161
07/28/2014  21:28:00       18.096      -56.742       -1.874       32.578       28.591       25.830     1061.309      817.460      667.176        0.305        0.127       59.558       12.745        0.046      346.260       24.379      866.168
07/28/2014  21:29:00       52.538      -38.039       10.762       46.431       47.368       33.918     2155.796     2243.683     1150.402        0.494        0.277       64.863       35.298        0.296      346.301       24.450      866.161
07/28/2014  21:30:00       18.439     -100.563       -3.768       41.435       50.016       39.450     1716.891     2501.594     1556.282        0.812        0.289      102.239       28.257        0.076      346.254       24.370      866.159
07/28/2014  21:31:00       78.440     -133.382      -11.249       58.350       58.888       33.467     3404.677     3467.851     1120.035        1.603        0.400      154.737       29.216        0.036      346.333       24.504      866.168
07/28/2014  21:32:00       43.333      -94.244      -19.031       50.257       66.997       52.065     2525.801     4488.539     2710.772        1.042        0.486      103.729       35.846        0.119      346.258       24.376      866.155
07/28/2014  21:33:00       76.573     -127.012      -17.563       50.054       50.492       34.573     2505.391     2549.417     1195.276        1.428        0.313      148.309       25.000        0.028      346.297       24.443      866.155
07/28/2014  21:34:00        6.322      -94.863      -16.262       37.125       39.005       23.877     1378.252     1521.411      570.095        0.639        0.173       95.073       22.876        0.058      346.229       24.327      866.166
07/28/2014  21:35:00      -32.663      -21.107       13.758       51.625       42.186       22.333     2665.113     1779.645      498.749        0.332        0.247       38.889       23.120        0.353      346.224       24.318      866.186
07/28/2014  21:36:00      -24.421        3.847        8.864       33.804       22.536       15.126     1142.696      507.858      228.796        0.128        0.094       24.722       12.414        0.252      346.159       24.204      866.210
07/28/2014  21:37:00       10.398       -9.995       22.149       17.671       21.638       14.391      312.271      468.209      207.091        0.084        0.049       14.423        9.267        0.413      346.126       24.148      866.211
07/28/2014  21:38:00       16.420      -32.604       41.248       42.731       68.910       45.783     1825.978     4748.571     2096.086        0.585        0.434       36.506       51.638        2.001      346.245       24.355      866.184
07/28/2014  21:39:00       47.512     -138.101      -22.289       46.357       56.301       38.970     2149.009     3169.826     1518.673        1.433        0.342      146.046       20.322        0.019      346.235       24.335      866.178
07/28/2014  21:40:00        5.890      -86.295       -3.000       45.996       54.068       47.116     2115.671     2923.398     2219.957        0.737        0.363       86.496       32.600        0.142      346.272       24.399      866.205
07/28/2014  21:41:00        9.426      -47.107       15.609       28.271       42.716       30.116      799.262     1824.643      906.999        0.304        0.177       48.041       12.509        0.068      346.242       24.348      866.223
07/28/2014  21:42:00        9.133       20.024       63.000       32.348       50.946       40.528     1046.408     2595.517     1642.513        0.487        0.264       22.009       40.405        3.370      346.238       24.340      866.193
07/28/2014  21:43:00       25.816      -95.522       -9.541       41.814       28.115       21.358     1748.377      790.440      456.183        0.644        0.150       98.949       16.110        0.027      346.258       24.377      866.190
07/28/2014  21:44:00       59.988      -72.522       17.292       52.396       46.956       32.092     2745.332     2204.837     1029.924        0.757        0.299       94.117       29.289        0.097      346.284       24.421      866.179
07/28/2014  21:45:00       13.946      -62.827        4.836       31.677       49.613       25.656     1003.421     2461.422      658.251        0.414        0.206       64.357       28.271        0.193      346.246       24.356      866.156
07/28/2014  21:46:00       33.695      -41.302        5.959       53.245       56.660       32.811     2835.020     3210.367     1076.544        0.500        0.356       53.303       40.506        0.577      346.202       24.280      866.127
07/28/2014  21:47:00      -67.160        1.123        6.095       50.967       35.986       29.155     2597.652     1294.975      850.017        0.464        0.237       67.169       26.259        0.153      346.198       24.273      866.135
07/28/2014  21:48:00      -77.212      -24.675       -4.330       34.335       29.397       19.448     1178.916      864.185      378.224        0.450        0.121       81.059       16.517        0.042      346.168       24.220      866.147
07/28/2014  21:49:00      -11.515       18.071       -2.658       47.238       17.697       14.581     2231.459      313.179      212.605        0.161        0.138       21.427       18.247        0.725      346.020       23.964      866.141
07/28/2014  21:50:00       -6.716       -7.491        1.662       16.714       14.772        8.220      279.347      218.222       67.567        0.033        0.028       10.061       10.846        1.162      346.012       23.953      866.119
07/28/2014  21:51:00      -72.067       -0.424       -4.948       25.235       15.951       16.322      636.787      254.429      266.398        0.319        0.058       72.068       14.767        0.042      346.034       23.991      866.122
07/28/2014  21:52:00      -54.550        3.846       -2.658       23.429       14.482       11.180      548.902      209.717      124.988        0.194        0.044       54.685       13.634        0.062      345.955       23.855      866.114
07/28/2014  21:53:00      -29.920      -15.382        7.444       34.071       16.117       12.719     1160.816      259.765      161.773        0.138        0.079       33.642       15.646        0.216      346.083       24.074      866.085
07/28/2014  21:54:00      -60.997      -26.873       -0.066       31.613       22.144       15.638      999.386      490.363      244.538        0.309        0.087       66.655       17.722        0.071      346.140       24.172      866.082
07/28/2014  21:55:00      -29.275       -9.850        4.148       18.939       16.383       11.169      358.671      268.404      124.742        0.086        0.038       30.887       11.287        0.134      346.029       23.981      866.081
07/28/2014  21:56:00       -8.367       -9.258       -4.438       15.325       11.850        4.826      234.852      140.423       23.290        0.029        0.020       12.479        5.502        0.194      346.212       24.298      866.058
07/28/2014  21:57:00      -42.746      -10.308        2.516       27.066       15.064       11.341      732.590      226.921      128.617        0.151        0.054       43.971       14.793        0.113      346.177       24.237      866.067
07/28/2014  21:58:00      -16.775      -23.754       -3.003       26.137       20.098       11.021      683.137      403.946      121.453        0.103        0.060       29.080        8.096        0.078      346.181       24.244      866.069
07/28/2014  21:59:00       -8.431      -10.923        8.505       20.723       24.310       17.195      429.451      590.997      295.653        0.079        0.066       13.798       17.627        1.632      346.160       24.207      866.064
07/28/2014  22:00:00       -2.425      -45.097        4.754       14.161       26.868       12.915      200.539      721.900      166.785        0.158        0.054       45.162       10.428        0.053      346.334       24.507      866.052
07/28/2014  22:01:00       13.563      -67.280        3.611       27.791       42.525       22.764      772.320     1808.388      518.222        0.391        0.155       68.633       12.003        0.031      346.504       24.799      866.041
07/28/2014  22:02:00      -33.019      -76.564        3.439       44.658       54.045       17.522     1994.371     2920.830      307.007        0.609        0.261       83.380       26.049        0.098      346.513       24.816      866.022
07/28/2014  22:03:00      -42.146      -76.761        7.841       45.423       73.789       25.542     2063.244     5444.778      652.403        0.794        0.408       87.570       25.552        0.085      346.458       24.719      866.028
07/28/2014  22:04:00      -83.565     -174.018        8.839       97.013       68.505       43.998     9411.469     4692.980     1935.823        2.669        0.802      193.043       47.228        0.060      346.774       25.263      866.017
07/28/2014  22:05:00     -121.132     -120.532        3.369      102.177       64.915       42.608    10440.051     4213.946     1815.461        2.284        0.823      170.883       50.393        0.087      346.620       24.997      866.000
07/28/2014  22:06:00      -95.460      -45.346        7.849       74.554       71.626       44.791     5558.325     5130.218     2006.229        1.196        0.635      105.683       41.062        0.151      346.650       25.050      865.998
07/28/2014  22:07:00      -64.266      -74.663       11.198       74.388       70.059       40.085     5533.629     4908.325     1606.802        1.094        0.602       98.512       46.247        0.220      346.710       25.154      865.976
07/28/2014  22:08:00      -81.201      -73.028       12.670       72.995       47.998       36.551     5328.230     2303.802     1335.963        1.053        0.448      109.210       38.490        0.124      346.826       25.352      865.972
07/28/2014  22:09:00     -172.887     -108.494       -4.666       89.781       58.687       35.796     8060.658     3444.178     1281.364        2.723        0.639      204.110       42.325        0.043      346.863       25.414      865.959
07/28/2014  22:10:00     -129.301     -111.245        1.457      108.211       90.074       59.188    11709.719     8113.300     3503.184        2.621        1.166      170.570       58.385        0.117      346.897       25.472      865.938
07/28/2014  22:11:00     -137.485      -61.555       -3.223       73.256       49.648       36.377     5366.492     2464.945     1323.317        1.593        0.458      150.636       27.436        0.033      346.850       25.394      865.922
07/28/2014  22:12:00     -206.856      -63.990       -3.707      107.195       95.434       54.993    11490.711     9107.697     3024.263        3.526        1.181      216.527       52.634        0.059      346.994       25.639      865.905
07/28/2014  22:13:00      -90.374      -64.396       11.379       94.743       89.277       40.277     8976.311     7970.416     1622.274        1.550        0.928      110.970       44.695        0.162      346.935       25.537      865.867
07/28/2014  22:14:00     -105.883      -65.517       -2.292       66.325       44.127       32.860     4398.944     1947.209     1079.788        1.147        0.371      124.514       32.866        0.070      346.925       25.524      865.856
07/28/2014  22:15:00     -127.252      -69.829        9.859       82.933       61.886       36.086     6877.953     3829.893     1302.215        1.659        0.601      145.152       43.338        0.089      346.887       25.456      865.843
07/28/2014  22:16:00     -240.661      -17.743      -12.421      107.104       90.852       43.147    11471.304     8254.089     1861.626        3.998        1.079      241.314       31.951        0.018      346.988       25.629      865.827
07/28/2014  22:17:00     -147.179      -82.593       14.422      117.063       82.152       53.113    13703.853     6748.875     2820.989        2.598        1.164      168.770       68.814        0.166      346.917       25.508      865.825
07/28/2014  22:18:00     -250.748     -109.409      -26.138      116.587       89.696       51.837    13592.447     8045.456     2687.058        4.992        1.216      273.578       51.054        0.035      346.965       25.589      865.832
07/28/2014  22:19:00     -198.478      -32.132       -5.078       96.883       59.685       43.244     9386.268     3562.329     1870.071        2.763        0.741      201.062       49.887        0.062      346.884       25.449      865.831
07/28/2014  22:20:00     -170.638      -55.016        9.852      166.499      106.586       65.351    27721.867    11360.573     4270.787        3.779        2.168      179.288       77.479        0.187      346.917       25.507      865.819
07/28/2014  22:21:00     -147.033       -5.377        3.432      110.960       61.817       44.857    12312.155     3821.339     2012.195        1.990        0.907      147.131       52.384        0.127      346.924       25.518      865.828
07/28/2014  22:22:00     -114.402      -40.874        3.252       66.313       60.553       34.405     4397.460     3666.668     1183.711        1.201        0.462      121.484       26.713        0.048      346.879       25.444      865.840
07/28/2014  22:23:00     -153.727      -59.828        2.155       83.433       66.196       38.309     6961.123     4381.890     1467.610        2.001        0.641      164.958       32.350        0.038      346.929       25.528      865.842
07/28/2014  22:24:00     -134.002      -87.692       -1.938       63.125       45.537       30.057     3984.754     2073.600      903.451        1.630        0.348      160.146       24.355        0.023      346.899       25.476      865.864
07/28/2014  22:25:00     -110.925     -106.549       13.308       97.801       62.753       44.917     9565.067     3937.996     2017.504        1.967        0.776      153.809       46.038        0.090      346.863       25.416      865.872
07/28/2014  22:26:00     -165.486     -122.989       -9.262       90.709       63.671       43.516     8228.177     4053.942     1893.664        2.838        0.709      206.184       34.323        0.028      346.894       25.467      865.866
07/28/2014  22:27:00      -77.911      -68.284       10.660       90.853       50.372       39.657     8254.283     2537.367     1572.676        1.160        0.618      103.599       41.761        0.162      346.862       25.415      865.870
07/28/2014  22:28:00     -166.680      -79.048       -6.630       91.205       78.475       53.234     8318.363     6158.310     2833.837        2.569        0.866      184.474       58.288        0.100      346.879       25.442      865.859
07/28/2014  22:29:00     -180.927     -116.660        1.851       99.180      105.976       51.694     9836.635    11230.963     2672.257        3.504        1.187      215.277       43.613        0.041      346.868       25.423      865.857
07/28/2014  22:30:00      -97.772      -41.480       -3.875      107.338       95.463       52.549    11521.516     9113.179     2761.414        1.734        1.170      106.207       55.499        0.273      346.859       25.408      865.843
07/28/2014  22:31:00     -201.826      -16.059       -3.608      130.039       78.305       45.779    16910.191     6131.668     2095.719        3.307        1.257      202.464       37.910        0.035      346.901       25.480      865.834
07/28/2014  22:32:00     -144.443      -43.383        1.167      101.457       87.846       54.713    10293.531     7716.953     2993.487        2.187        1.050      150.817       33.589        0.050      346.914       25.502      865.825
07/28/2014  22:33:00     -156.024      -13.139        4.806      106.399       75.412       48.065    11320.817     5687.029     2310.202        2.192        0.966      156.576       50.248        0.103      346.883       25.449      865.810
07/28/2014  22:34:00     -107.390      -69.400       -6.514      117.022       86.195       57.760    13694.082     7429.618     3336.176        2.042        1.223      127.863       57.516        0.202      346.894       25.467      865.804
07/28/2014  22:35:00      -89.611      -65.087        8.212       99.763       77.932       59.087     9952.590     6073.443     3491.292        1.592        0.976      110.754       50.937        0.212      346.859       25.409      865.816
07/28/2014  22:36:00     -139.482     -113.739       17.454      112.258       89.277       58.979    12601.837     7970.408     3478.570        2.837        1.203      179.978       60.381        0.113      346.886       25.453      865.807
07/28/2014  22:37:00     -221.586     -105.545        1.693       99.719       91.229       50.474     9943.921     8322.726     2547.615        4.052        1.041      245.438       45.030        0.034      346.932       25.533      865.806
07/28/2014  22:38:00     -122.085      -82.858        4.010       92.528       61.465       52.396     8561.440     3777.931     2745.308        1.843        0.754      147.547       57.677        0.153      346.915       25.504      865.798
07/28/2014  22:39:00     -134.241     -115.665       -3.097       76.706       80.459       38.925     5883.795     6473.705     1515.189        2.264        0.694      177.197       39.956        0.051      346.913       25.499      865.805
07/28/2014  22:40:00     -104.941      -44.134        2.825       71.454       48.843       39.998     5105.684     2385.687     1599.817        1.103        0.455      113.844       38.367        0.114      346.845       25.385      865.800
07/28/2014  22:41:00     -121.116     -135.157        2.311      153.776      100.903       67.315    23646.944    10181.332     4531.291        3.564        1.918      181.484       79.125        0.190      346.975       25.606      865.774
07/28/2014  22:42:00     -124.782     -108.027       18.081      102.222       71.960       43.178    10449.326     5178.268     1864.339        2.253        0.875      165.047       43.956        0.071      346.888       25.458      865.768
07/28/2014  22:43:00     -117.495     -118.031        9.048      100.094       74.993       39.332    10018.808     5623.944     1546.973        2.250        0.859      166.542       46.835        0.079      346.915       25.504      865.774
07/28/2014  22:44:00     -164.584     -109.619       12.143       83.770       74.736       45.429     7017.358     5585.399     2063.781        2.696        0.733      197.748       40.422        0.042      346.864       25.416      865.767
07/28/2014  22:45:00      -85.383      -72.097        9.587       74.477       42.666       35.117     5546.863     1820.405     1233.230        1.059        0.430      111.751       32.506        0.085      346.819       25.340      865.765
07/28/2014  22:46:00     -146.606     -133.589        3.844       81.733       66.290       40.660     6680.331     4394.307     1653.203        2.604        0.636      198.341       45.864        0.053      346.829       25.355      865.763
07/28/2014  22:47:00     -119.094      -73.964        1.001       73.276       46.280       36.289     5369.343     2141.804     1316.881        1.424        0.441      140.193       38.552        0.076      346.808       25.321      865.753
07/28/2014  22:48:00     -101.155     -137.837        4.327       68.368       75.630       43.263     4674.214     5719.880     1871.675        2.076        0.613      170.972       40.990        0.057      346.796       25.299      865.757
07/28/2014  22:49:00     -135.609     -111.043        0.815       99.842       61.529       43.494     9968.389     3785.829     1891.716        2.318        0.782      175.273       42.679        0.059      346.794       25.297      865.759
07/28/2014  22:50:00      -44.070      -40.510       20.158       74.738       49.122       38.814     5585.817     2412.953     1506.518        0.675        0.475       59.860       37.011        0.382      346.804       25.315      865.737
07/28/2014  22:51:00     -107.960      -97.982        7.176       75.585       59.368       43.410     5713.061     3524.581     1884.395        1.621        0.556      145.794       40.627        0.078      346.844       25.382      865.726
07/28/2014  22:52:00     -248.332     -135.195       -2.867       78.640       68.376       47.324     6184.286     4675.244     2239.604        4.652        0.655      282.748       45.328        0.026      346.886       25.452      865.719
07/28/2014  22:53:00     -126.195     -105.641        9.085       69.071       65.478       33.920     4770.751     4287.329     1150.574        1.869        0.510      164.576       33.895        0.042      346.826       25.353      865.718
07/28/2014  22:54:00     -180.859      -51.199        8.151      112.985       68.726       50.821    12765.563     4723.265     2582.809        2.773        1.004      187.967       57.265        0.093      346.865       25.418      865.721
07/28/2014  22:55:00      -76.341      -82.342       12.716       85.204       66.763       44.142     7259.804     4457.319     1948.485        1.322        0.683      112.286       40.756        0.132      346.815       25.333      865.727
07/28/2014  22:56:00     -100.831      -87.357       13.392       78.636       35.840       30.571     6183.666     1284.511      934.557        1.319        0.420      133.410       25.661        0.037      346.745       25.212      865.743
07/28/2014  22:57:00      -80.780      -44.663        4.117       41.851       36.267       23.577     1751.548     1315.300      555.874        0.608        0.181       92.305       17.993        0.038      346.694       25.125      865.734
07/28/2014  22:58:00      -76.261      -91.181       -2.029       57.745       31.383       20.797     3334.508      984.901      432.515        0.944        0.238      118.869       28.409        0.057      346.737       25.199      865.717
07/28/2014  22:59:00      -44.387     -140.094        0.425       30.349       33.535       19.198      921.060     1124.579      368.550        1.201        0.121      146.958       20.866        0.020      346.769       25.255      865.717
07/28/2014  23:00:00      -71.378      -78.683        2.488       37.012       33.686       21.821     1369.863     1134.727      476.164        0.714        0.149      106.235       19.107        0.032      346.685       25.112      865.721
07/28/2014  23:01:00      -48.273     -116.465       13.267       71.153       60.030       44.897     5062.757     3603.548     2015.782        1.337        0.534      126.073       47.769        0.144      346.690       25.118      865.715
07/28/2014  23:02:00      -65.646     -130.648        0.389       54.641       48.221       33.486     2985.647     2325.296     1121.321        1.390        0.322      146.213       35.381        0.059      346.756       25.233      865.676
07/28/2014  23:03:00      -58.778     -119.556        5.969       47.527       50.065       29.843     2258.779     2506.545      890.608        1.172        0.283      133.224       25.162        0.036      346.810       25.325      865.655
07/28/2014  23:04:00      -61.901      -84.357        1.470       51.930       63.089       25.062     2696.763     3980.209      628.082        0.913        0.365      104.631       22.884        0.048      346.811       25.326      865.626
07/28/2014  23:05:00     -114.072      -87.832        1.089       53.438       56.683       30.475     2855.662     3212.972      928.745        1.386        0.350      143.968       18.659        0.017      346.790       25.288      865.614
07/28/2014  23:06:00     -208.010      -88.573        1.783      121.978       72.954       51.888    14878.599     5322.245     2692.401        3.700        1.145      226.083       62.787        0.077      346.796       25.298      865.623
07/28/2014  23:07:00     -103.513      -74.193       12.319       79.817       50.007       37.635     6370.680     2500.719     1416.403        1.333        0.514      127.355       38.101        0.090      346.724       25.176      865.624
07/28/2014  23:08:00     -111.179      -48.401        3.916       80.534       32.525       28.654     6485.727     1057.852      821.069        1.154        0.418      121.257       33.541        0.077      346.693       25.122      865.626
07/28/2014  23:09:00     -150.696      -87.268      -15.760      101.994       62.896       37.685    10402.828     3955.908     1420.141        2.317        0.789      174.141       40.185        0.053      346.819       25.337      865.615
07/28/2014  23:10:00      -75.807      -78.090        7.635       62.459       53.224       35.981     3901.112     2832.786     1294.626        0.996        0.401      108.834       31.108        0.082      346.783       25.279      865.591
07/28/2014  23:11:00     -120.613      -11.304       -9.968       46.683       39.982       24.995     2179.305     1598.538      624.740        0.959        0.220      121.142       22.943        0.036      346.940       25.549      865.566
07/28/2014  23:12:00     -133.864      -35.628       -5.028       92.940       66.709       31.436     8637.809     4450.067      988.216        1.664        0.704      138.524       47.997        0.120      346.864       25.416      865.550
07/28/2014  23:13:00     -185.792      -26.763      -10.490      124.189       79.661       45.395    15422.943     6345.838     2060.686        2.958        1.191      187.710       42.623        0.052      346.897       25.474      865.544
07/28/2014  23:14:00     -235.490      -22.130      -23.955       96.138       79.849       49.546     9242.491     6375.890     2454.810        3.729        0.904      236.528       54.642        0.053      346.936       25.540      865.534
07/28/2014  23:15:00     -232.867      -67.956      -10.163      101.274       55.996       42.444    10256.444     3135.579     1801.514        3.707        0.760      242.580       47.742        0.039      346.898       25.472      865.545
07/28/2014  23:16:00     -153.584      -48.707       -5.203       80.772       79.518       47.325     6524.192     6323.089     2239.616        2.053        0.754      161.123       42.562        0.070      346.917       25.508      865.551
07/28/2014  23:17:00     -104.115      -90.091       14.075      118.660       97.968       54.051    14080.155     9597.667     2921.459        2.287        1.330      137.682       62.419        0.206      346.923       25.518      865.554
07/28/2014  23:18:00     -204.941      -67.100       -6.321      106.584       93.093       50.510    11360.115     8666.282     2551.225        3.456        1.129      215.646       55.044        0.065      347.049       25.734      865.554
07/28/2014  23:19:00     -152.986      -83.275        6.436       95.796       91.033       44.062     9176.926     8287.082     1941.421        2.489        0.970      174.182       44.968        0.067      347.037       25.714      865.559
07/28/2014  23:20:00     -144.018       -1.971        3.379      110.223       67.594       43.332    12149.037     4568.913     1877.699        1.967        0.930      144.031       54.857        0.145      347.071       25.772      865.559
07/28/2014  23:21:00     -180.692      -20.622        0.834       76.758       88.506       42.758     5891.820     7833.384     1828.264        2.431        0.778      181.865       38.176        0.044      347.083       25.793      865.566
07/28/2014  23:22:00     -240.608      -84.923       -9.303       99.711       75.367       42.462     9942.375     5680.177     1803.030        4.130        0.871      255.155       44.446        0.030      347.038       25.712      865.589
07/28/2014  23:23:00     -219.906      -38.905      -20.327       73.675       51.959       46.424     5428.071     2699.782     2155.175        3.028        0.514      223.321       42.795        0.037      347.054       25.742      865.598
07/28/2014  23:24:00     -210.067      -22.165       -4.885      166.498       78.107       52.637    27721.446     6100.647     2770.689        4.061        1.830      211.234       63.024        0.089      347.025       25.693      865.607
07/28/2014  23:25:00     -211.088      -26.312       -8.103      121.510       68.183       44.552    14764.616     4648.951     1984.878        3.335        1.070      212.721       52.364        0.061      347.026       25.696      865.617
07/28/2014  23:26:00     -136.186       -2.228        2.349       81.913       55.598       35.174     6709.769     3091.110     1237.209        1.480        0.552      136.205       34.947        0.066      346.999       25.649      865.614
07/28/2014  23:27:00     -223.189     -100.307        0.750       88.897       77.660       44.697     7902.683     6031.147     1997.846        3.790        0.797      244.693       44.644        0.033      347.053       25.741      865.598
07/28/2014  23:28:00     -120.073      -50.423       -9.473       80.165       44.516       24.022     6426.491     1981.678      577.059        1.302        0.449      130.231       23.395        0.032      347.006       25.662      865.593
07/28/2014  23:29:00     -196.708      -82.244       -7.273      137.523      106.753       55.942    18912.568    11396.153     3129.555        3.947        1.672      213.209       54.381        0.065      347.037       25.714      865.586
07/28/2014  23:30:00     -233.319      -63.731       -2.123       85.390       69.133       47.248     7291.461     4779.325     2232.389        3.640        0.715      241.867       48.923        0.041      347.044       25.725      865.596
07/28/2014  23:31:00      -46.058      -21.100       19.596       85.850       48.044       34.647     7370.262     2308.210     1200.411        0.691        0.544       50.661       41.746        0.679      346.945       25.558      865.600
07/28/2014  23:32:00      -86.062      -37.327       -5.076      100.253       83.249       42.499    10050.605     6930.379     1806.171        1.380        0.939       93.808       50.162        0.286      347.014       25.674      865.581
07/28/2014  23:33:00     -160.190      -53.519       -7.475      118.574       51.774       41.304    14059.768     2680.543     1705.979        2.351        0.922      168.894       38.454        0.052      347.077       25.783      865.575
07/28/2014  23:34:00     -159.912      -67.212       -2.194       93.265       57.006       38.279     8698.305     3249.706     1465.310        2.175        0.671      173.463       40.420        0.054      347.070       25.770      865.577
07/28/2014  23:35:00      -70.862      -31.389        9.525       54.473       49.365       38.276     2967.255     2436.934     1465.050        0.648        0.343       77.502       32.428        0.175      347.004       25.659      865.575
07/28/2014  23:36:00      -69.544      -55.627       10.585       66.051       56.166       40.378     4362.787     3154.637     1630.421        0.859        0.457       89.054       36.936        0.172      347.005       25.659      865.574
07/28/2014  23:37:00      -31.074      -37.678        4.164       58.607       44.440       24.561     3434.728     1974.948      603.266        0.421        0.301       48.839       31.760        0.423      346.913       25.503      865.574
07/28/2014  23:38:00     -151.459      -30.102      -14.161       50.371       63.349       29.965     2537.211     4013.112      897.915        1.575        0.372      154.421       20.965        0.018      346.984       25.625      865.585
07/28/2014  23:39:00     -193.084      -62.570      -10.778       96.681       64.978       36.718     9347.130     4222.185     1348.182        2.811        0.746      202.969       35.244        0.030      347.055       25.744      865.570
07/28/2014  23:40:00     -158.247      -47.008       -1.321       94.718       69.970       40.489     8971.466     4895.768     1639.356        2.138        0.775      165.082       46.677        0.080      347.107       25.835      865.549
07/28/2014  23:41:00     -112.637      -41.154        2.006       96.154       59.298       38.855     9245.581     3516.245     1509.729        1.433        0.714      119.920       46.049        0.147      347.057       25.749      865.535
07/28/2014  23:42:00     -128.103      -75.087        0.179       75.102      105.404       38.199     5640.309    11110.069     1459.198        2.013        0.910      148.487       44.008        0.088      347.092       25.809      865.519
07/28/2014  23:43:00     -143.161      -47.777       -9.113       76.431       50.597       31.285     5841.651     2560.036      978.733        1.612        0.469      150.922       30.871        0.042      347.028       25.698      865.532
07/28/2014  23:44:00     -203.900      -61.674      -15.251      122.990       88.437       54.671    15126.640     7821.130     2988.888        3.577        1.297      213.023       60.737        0.081      347.091       25.807      865.535
07/28/2014  23:45:00     -135.545      -60.200       -9.586       76.646       58.570       38.067     5874.564     3430.413     1449.069        1.642        0.538      148.312       35.592        0.058      347.105       25.833      865.525
07/28/2014  23:46:00     -161.783        0.251        1.697      111.286       99.031       47.589    12384.677     9807.192     2264.685        2.531        1.223      161.784       48.305        0.089      347.071       25.773      865.512
07/28/2014  23:47:00     -144.412      -42.527        3.744       99.668       67.366       40.386     9933.640     4538.160     1631.058        1.939        0.805      150.544       46.478        0.095      347.078       25.785      865.500
07/28/2014  23:48:00     -150.911     -104.339        6.101      109.106       77.918       54.304    11904.167     6071.157     2948.888        2.731        1.046      183.469       49.326        0.072      347.110       25.840      865.496
07/28/2014  23:49:00     -243.569      -73.906      -14.832      132.442       68.228       48.511    17540.791     4655.034     2353.345        4.477        1.227      254.535       57.838        0.052      347.154       25.914      865.490
07/28/2014  23:50:00     -191.921      -60.634        0.230       72.600       52.187       45.471     5270.830     2723.506     2067.630        2.528        0.503      201.272       46.080        0.052      347.114       25.847      865.488
07/28/2014  23:51:00     -113.498      -80.989       -0.434       66.262       31.651       36.227     4390.690     1001.809     1312.386        1.307        0.335      139.431       37.510        0.072      347.082       25.794      865.496
07/28/2014  23:52:00     -132.569      -42.821      -10.160       65.680       67.017       32.048     4313.802     4491.320     1027.054        1.467        0.492      139.313       33.858        0.059      347.102       25.829      865.495
07/28/2014  23:53:00      -70.070      -88.963       11.706      103.458       69.196       46.015    10703.657     4788.067     2117.366        1.528        0.880      113.245       49.305        0.190      347.076       25.782      865.477
07/28/2014  23:54:00     -133.632     -105.327       -2.105      110.271       74.998       47.236    12159.656     5624.704     2231.258        2.448        1.001      170.150       53.114        0.097      347.112       25.844      865.456
07/28/2014  23:55:00     -177.716     -135.355       15.789      150.455      115.122       65.999    22636.693    13253.088     4355.818        4.519        2.012      223.392       84.012        0.141      347.152       25.911      865.470
07/28/2014  23:56:00     -249.334       -9.574      -12.114       80.801       89.430       46.818     6528.752     7997.783     2191.906        3.956        0.836      249.518       46.611        0.035      347.148       25.904      865.451
07/28/2014  23:57:00     -225.503      -46.700      -10.052       80.131       85.957       42.280     6420.942     7388.531     1787.613        3.436        0.780      230.288       45.131        0.038      347.103       25.825      865.473
07/28/2014  23:58:00     -198.234      -65.078       -3.058       96.172       92.904       57.340     9248.974     8631.103     3287.864        3.235        1.058      208.643       61.624        0.087      347.075       25.777      865.481
07/28/2014  23:59:00     -203.554     -149.875      -25.289      113.230       84.438       55.900    12820.938     7129.815     3124.770        4.380        1.154      252.778       57.306        0.051      347.126       25.865      865.480
